<?xml version="1.0" encoding="UTF-8" standalone="no" ?>
<gpx xmlns="http://www.topografix.com/GPX/1/1" xmlns:xsi="http://www.w3.org/2001/XMLSchema-instance" xsi:schemaLocation="http://www.topografix.com/GPX/1/1 http://www.topografix.com/GPX/1/1/gpx.xsd" version="1.1" creator="VisuGPX - https://www.visugpx.com">
  <metadata>
    <name>Crête de combeynot (brèche 3023m), couloir Nord Est</name>
    <desc><![CDATA[grp_trc:]]></desc>
  </metadata>
  <trk>
    <name><![CDATA[Pic Du Lac De Combeynot]]></name>
    <cmt><![CDATA[09:42:57]]></cmt>
    <desc><![CDATA[comment ...]]></desc>
    <trkseg>
      <trkpt lat="45.00951" lon="6.46753">
        <ele>1632</ele>
        <time>2020-01-21T08:42:57Z</time>
      </trkpt>
      <trkpt lat="45.00951" lon="6.46753">
        <ele>1632</ele>
        <time>2020-01-21T08:42:58Z</time>
      </trkpt>
      <trkpt lat="45.00953" lon="6.46754">
        <ele>1632</ele>
        <time>2020-01-21T08:43:06Z</time>
      </trkpt>
      <trkpt lat="45.00954" lon="6.46755">
        <ele>1631</ele>
        <time>2020-01-21T08:43:09Z</time>
      </trkpt>
      <trkpt lat="45.00956" lon="6.46752">
        <ele>1629</ele>
        <time>2020-01-21T08:43:20Z</time>
      </trkpt>
      <trkpt lat="45.00959" lon="6.46748">
        <ele>1628</ele>
        <time>2020-01-21T08:43:24Z</time>
      </trkpt>
      <trkpt lat="45.00965" lon="6.46736">
        <ele>1630</ele>
        <time>2020-01-21T08:43:32Z</time>
      </trkpt>
      <trkpt lat="45.00968" lon="6.46734">
        <ele>1633</ele>
        <time>2020-01-21T08:43:38Z</time>
      </trkpt>
      <trkpt lat="45.00969" lon="6.46732">
        <ele>1632</ele>
        <time>2020-01-21T08:43:50Z</time>
      </trkpt>
      <trkpt lat="45.00969" lon="6.4673">
        <ele>1632</ele>
        <time>2020-01-21T08:43:51Z</time>
      </trkpt>
      <trkpt lat="45.00966" lon="6.4672">
        <ele>1631</ele>
        <time>2020-01-21T08:43:55Z</time>
      </trkpt>
      <trkpt lat="45.0096" lon="6.46709">
        <ele>1630</ele>
        <time>2020-01-21T08:44:03Z</time>
      </trkpt>
      <trkpt lat="45.00957" lon="6.46706">
        <ele>1630</ele>
        <time>2020-01-21T08:44:05Z</time>
      </trkpt>
      <trkpt lat="45.00956" lon="6.46701">
        <ele>1630</ele>
        <time>2020-01-21T08:44:08Z</time>
      </trkpt>
      <trkpt lat="45.00955" lon="6.46696">
        <ele>1628</ele>
        <time>2020-01-21T08:44:15Z</time>
      </trkpt>
      <trkpt lat="45.00954" lon="6.46693">
        <ele>1628</ele>
        <time>2020-01-21T08:44:19Z</time>
      </trkpt>
      <trkpt lat="45.00954" lon="6.46689">
        <ele>1628</ele>
        <time>2020-01-21T08:44:25Z</time>
      </trkpt>
      <trkpt lat="45.00949" lon="6.46684">
        <ele>1626</ele>
        <time>2020-01-21T08:44:29Z</time>
      </trkpt>
      <trkpt lat="45.00947" lon="6.46682">
        <ele>1626</ele>
        <time>2020-01-21T08:44:30Z</time>
      </trkpt>
      <trkpt lat="45.00944" lon="6.46682">
        <ele>1626</ele>
        <time>2020-01-21T08:44:32Z</time>
      </trkpt>
      <trkpt lat="45.00939" lon="6.46672">
        <ele>1625</ele>
        <time>2020-01-21T08:44:39Z</time>
      </trkpt>
      <trkpt lat="45.00937" lon="6.4667">
        <ele>1626</ele>
        <time>2020-01-21T08:44:41Z</time>
      </trkpt>
      <trkpt lat="45.00936" lon="6.46668">
        <ele>1626</ele>
        <time>2020-01-21T08:44:48Z</time>
      </trkpt>
      <trkpt lat="45.00934" lon="6.46665">
        <ele>1627</ele>
        <time>2020-01-21T08:44:50Z</time>
      </trkpt>
      <trkpt lat="45.00933" lon="6.46661">
        <ele>1627</ele>
        <time>2020-01-21T08:44:52Z</time>
      </trkpt>
      <trkpt lat="45.00931" lon="6.46658">
        <ele>1628</ele>
        <time>2020-01-21T08:44:54Z</time>
      </trkpt>
      <trkpt lat="45.00929" lon="6.46657">
        <ele>1628</ele>
        <time>2020-01-21T08:45:00Z</time>
      </trkpt>
      <trkpt lat="45.00926" lon="6.46649">
        <ele>1626</ele>
        <time>2020-01-21T08:45:04Z</time>
      </trkpt>
      <trkpt lat="45.00924" lon="6.46646">
        <ele>1626</ele>
        <time>2020-01-21T08:45:06Z</time>
      </trkpt>
      <trkpt lat="45.00924" lon="6.46644">
        <ele>1626</ele>
        <time>2020-01-21T08:45:08Z</time>
      </trkpt>
      <trkpt lat="45.00923" lon="6.4664">
        <ele>1625</ele>
        <time>2020-01-21T08:45:11Z</time>
      </trkpt>
      <trkpt lat="45.00921" lon="6.46637">
        <ele>1626</ele>
        <time>2020-01-21T08:45:13Z</time>
      </trkpt>
      <trkpt lat="45.0092" lon="6.46635">
        <ele>1626</ele>
        <time>2020-01-21T08:45:15Z</time>
      </trkpt>
      <trkpt lat="45.00919" lon="6.46633">
        <ele>1625</ele>
        <time>2020-01-21T08:45:17Z</time>
      </trkpt>
      <trkpt lat="45.00916" lon="6.46628">
        <ele>1625</ele>
        <time>2020-01-21T08:45:21Z</time>
      </trkpt>
      <trkpt lat="45.00914" lon="6.46625">
        <ele>1626</ele>
        <time>2020-01-21T08:45:23Z</time>
      </trkpt>
      <trkpt lat="45.00913" lon="6.46623">
        <ele>1626</ele>
        <time>2020-01-21T08:45:25Z</time>
      </trkpt>
      <trkpt lat="45.00911" lon="6.46622">
        <ele>1626</ele>
        <time>2020-01-21T08:45:26Z</time>
      </trkpt>
      <trkpt lat="45.00909" lon="6.4662">
        <ele>1626</ele>
        <time>2020-01-21T08:45:28Z</time>
      </trkpt>
      <trkpt lat="45.00908" lon="6.46618">
        <ele>1626</ele>
        <time>2020-01-21T08:45:30Z</time>
      </trkpt>
      <trkpt lat="45.00906" lon="6.46613">
        <ele>1627</ele>
        <time>2020-01-21T08:45:34Z</time>
      </trkpt>
      <trkpt lat="45.00902" lon="6.4661">
        <ele>1628</ele>
        <time>2020-01-21T08:45:38Z</time>
      </trkpt>
      <trkpt lat="45.00901" lon="6.46608">
        <ele>1628</ele>
        <time>2020-01-21T08:45:41Z</time>
      </trkpt>
      <trkpt lat="45.00899" lon="6.46607">
        <ele>1628</ele>
        <time>2020-01-21T08:45:43Z</time>
      </trkpt>
      <trkpt lat="45.00898" lon="6.46606">
        <ele>1628</ele>
        <time>2020-01-21T08:45:45Z</time>
      </trkpt>
      <trkpt lat="45.00897" lon="6.46603">
        <ele>1629</ele>
        <time>2020-01-21T08:45:47Z</time>
      </trkpt>
      <trkpt lat="45.00895" lon="6.466">
        <ele>1629</ele>
        <time>2020-01-21T08:45:49Z</time>
      </trkpt>
      <trkpt lat="45.00883" lon="6.46579">
        <ele>1631</ele>
        <time>2020-01-21T08:46:03Z</time>
      </trkpt>
      <trkpt lat="45.00882" lon="6.46575">
        <ele>1631</ele>
        <time>2020-01-21T08:46:05Z</time>
      </trkpt>
      <trkpt lat="45.0088" lon="6.46571">
        <ele>1631</ele>
        <time>2020-01-21T08:46:08Z</time>
      </trkpt>
      <trkpt lat="45.00878" lon="6.4657">
        <ele>1631</ele>
        <time>2020-01-21T08:46:10Z</time>
      </trkpt>
      <trkpt lat="45.00873" lon="6.46571">
        <ele>1632</ele>
        <time>2020-01-21T08:46:12Z</time>
      </trkpt>
      <trkpt lat="45.00872" lon="6.46566">
        <ele>1631</ele>
        <time>2020-01-21T08:46:15Z</time>
      </trkpt>
      <trkpt lat="45.00869" lon="6.46548">
        <ele>1630</ele>
        <time>2020-01-21T08:46:23Z</time>
      </trkpt>
      <trkpt lat="45.00868" lon="6.46544">
        <ele>1628</ele>
        <time>2020-01-21T08:46:25Z</time>
      </trkpt>
      <trkpt lat="45.00865" lon="6.46538">
        <ele>1628</ele>
        <time>2020-01-21T08:46:30Z</time>
      </trkpt>
      <trkpt lat="45.00863" lon="6.46533">
        <ele>1627</ele>
        <time>2020-01-21T08:46:34Z</time>
      </trkpt>
      <trkpt lat="45.00862" lon="6.46531">
        <ele>1627</ele>
        <time>2020-01-21T08:46:35Z</time>
      </trkpt>
      <trkpt lat="45.00861" lon="6.46529">
        <ele>1628</ele>
        <time>2020-01-21T08:46:37Z</time>
      </trkpt>
      <trkpt lat="45.0086" lon="6.46527">
        <ele>1628</ele>
        <time>2020-01-21T08:46:39Z</time>
      </trkpt>
      <trkpt lat="45.00859" lon="6.46519">
        <ele>1627</ele>
        <time>2020-01-21T08:46:50Z</time>
      </trkpt>
      <trkpt lat="45.00859" lon="6.4651">
        <ele>1628</ele>
        <time>2020-01-21T08:46:55Z</time>
      </trkpt>
      <trkpt lat="45.00858" lon="6.46508">
        <ele>1627</ele>
        <time>2020-01-21T08:46:57Z</time>
      </trkpt>
      <trkpt lat="45.00858" lon="6.46506">
        <ele>1627</ele>
        <time>2020-01-21T08:46:58Z</time>
      </trkpt>
      <trkpt lat="45.00856" lon="6.46501">
        <ele>1627</ele>
        <time>2020-01-21T08:47:01Z</time>
      </trkpt>
      <trkpt lat="45.00855" lon="6.46498">
        <ele>1627</ele>
        <time>2020-01-21T08:47:03Z</time>
      </trkpt>
      <trkpt lat="45.00853" lon="6.46496">
        <ele>1628</ele>
        <time>2020-01-21T08:47:05Z</time>
      </trkpt>
      <trkpt lat="45.00852" lon="6.46494">
        <ele>1628</ele>
        <time>2020-01-21T08:47:07Z</time>
      </trkpt>
      <trkpt lat="45.00846" lon="6.4649">
        <ele>1627</ele>
        <time>2020-01-21T08:47:11Z</time>
      </trkpt>
      <trkpt lat="45.00844" lon="6.46486">
        <ele>1627</ele>
        <time>2020-01-21T08:47:13Z</time>
      </trkpt>
      <trkpt lat="45.00844" lon="6.46482">
        <ele>1627</ele>
        <time>2020-01-21T08:47:16Z</time>
      </trkpt>
      <trkpt lat="45.00846" lon="6.46478">
        <ele>1627</ele>
        <time>2020-01-21T08:47:31Z</time>
      </trkpt>
      <trkpt lat="45.00845" lon="6.46476">
        <ele>1628</ele>
        <time>2020-01-21T08:47:38Z</time>
      </trkpt>
      <trkpt lat="45.00839" lon="6.4647">
        <ele>1629</ele>
        <time>2020-01-21T08:47:45Z</time>
      </trkpt>
      <trkpt lat="45.00837" lon="6.46467">
        <ele>1630</ele>
        <time>2020-01-21T08:47:49Z</time>
      </trkpt>
      <trkpt lat="45.00834" lon="6.46467">
        <ele>1629</ele>
        <time>2020-01-21T08:47:59Z</time>
      </trkpt>
      <trkpt lat="45.00826" lon="6.46457">
        <ele>1631</ele>
        <time>2020-01-21T08:48:08Z</time>
      </trkpt>
      <trkpt lat="45.00817" lon="6.46455">
        <ele>1634</ele>
        <time>2020-01-21T08:48:19Z</time>
      </trkpt>
      <trkpt lat="45.00812" lon="6.46455">
        <ele>1634</ele>
        <time>2020-01-21T08:48:32Z</time>
      </trkpt>
      <trkpt lat="45.00802" lon="6.46452">
        <ele>1636</ele>
        <time>2020-01-21T08:48:44Z</time>
      </trkpt>
      <trkpt lat="45.00799" lon="6.46449">
        <ele>1637</ele>
        <time>2020-01-21T08:48:48Z</time>
      </trkpt>
      <trkpt lat="45.00797" lon="6.46448">
        <ele>1637</ele>
        <time>2020-01-21T08:48:50Z</time>
      </trkpt>
      <trkpt lat="45.00793" lon="6.46447">
        <ele>1638</ele>
        <time>2020-01-21T08:48:54Z</time>
      </trkpt>
      <trkpt lat="45.00787" lon="6.46443">
        <ele>1639</ele>
        <time>2020-01-21T08:49:01Z</time>
      </trkpt>
      <trkpt lat="45.00785" lon="6.46442">
        <ele>1640</ele>
        <time>2020-01-21T08:49:04Z</time>
      </trkpt>
      <trkpt lat="45.00783" lon="6.46442">
        <ele>1641</ele>
        <time>2020-01-21T08:49:07Z</time>
      </trkpt>
      <trkpt lat="45.00781" lon="6.4644">
        <ele>1642</ele>
        <time>2020-01-21T08:49:11Z</time>
      </trkpt>
      <trkpt lat="45.0078" lon="6.46438">
        <ele>1642</ele>
        <time>2020-01-21T08:49:13Z</time>
      </trkpt>
      <trkpt lat="45.00778" lon="6.46436">
        <ele>1642</ele>
        <time>2020-01-21T08:49:16Z</time>
      </trkpt>
      <trkpt lat="45.00777" lon="6.46435">
        <ele>1643</ele>
        <time>2020-01-21T08:49:19Z</time>
      </trkpt>
      <trkpt lat="45.00768" lon="6.46429">
        <ele>1644</ele>
        <time>2020-01-21T08:49:31Z</time>
      </trkpt>
      <trkpt lat="45.00767" lon="6.46426">
        <ele>1644</ele>
        <time>2020-01-21T08:49:34Z</time>
      </trkpt>
      <trkpt lat="45.00766" lon="6.46424">
        <ele>1643</ele>
        <time>2020-01-21T08:49:36Z</time>
      </trkpt>
      <trkpt lat="45.00764" lon="6.46423">
        <ele>1644</ele>
        <time>2020-01-21T08:49:41Z</time>
      </trkpt>
      <trkpt lat="45.00763" lon="6.46416">
        <ele>1646</ele>
        <time>2020-01-21T08:49:48Z</time>
      </trkpt>
      <trkpt lat="45.00765" lon="6.46413">
        <ele>1648</ele>
        <time>2020-01-21T08:49:54Z</time>
      </trkpt>
      <trkpt lat="45.00766" lon="6.46411">
        <ele>1649</ele>
        <time>2020-01-21T08:49:58Z</time>
      </trkpt>
      <trkpt lat="45.00767" lon="6.46407">
        <ele>1650</ele>
        <time>2020-01-21T08:50:01Z</time>
      </trkpt>
      <trkpt lat="45.00767" lon="6.46405">
        <ele>1651</ele>
        <time>2020-01-21T08:50:04Z</time>
      </trkpt>
      <trkpt lat="45.00769" lon="6.46396">
        <ele>1655</ele>
        <time>2020-01-21T08:50:14Z</time>
      </trkpt>
      <trkpt lat="45.0077" lon="6.46392">
        <ele>1656</ele>
        <time>2020-01-21T08:50:19Z</time>
      </trkpt>
      <trkpt lat="45.0077" lon="6.46389">
        <ele>1657</ele>
        <time>2020-01-21T08:50:22Z</time>
      </trkpt>
      <trkpt lat="45.00769" lon="6.46387">
        <ele>1657</ele>
        <time>2020-01-21T08:50:25Z</time>
      </trkpt>
      <trkpt lat="45.00767" lon="6.46384">
        <ele>1658</ele>
        <time>2020-01-21T08:50:30Z</time>
      </trkpt>
      <trkpt lat="45.00766" lon="6.46382">
        <ele>1658</ele>
        <time>2020-01-21T08:50:33Z</time>
      </trkpt>
      <trkpt lat="45.00766" lon="6.46379">
        <ele>1658</ele>
        <time>2020-01-21T08:50:35Z</time>
      </trkpt>
      <trkpt lat="45.00764" lon="6.46377">
        <ele>1659</ele>
        <time>2020-01-21T08:50:39Z</time>
      </trkpt>
      <trkpt lat="45.00761" lon="6.46373">
        <ele>1661</ele>
        <time>2020-01-21T08:50:47Z</time>
      </trkpt>
      <trkpt lat="45.00758" lon="6.46371">
        <ele>1662</ele>
        <time>2020-01-21T08:50:51Z</time>
      </trkpt>
      <trkpt lat="45.00756" lon="6.46371">
        <ele>1662</ele>
        <time>2020-01-21T08:50:54Z</time>
      </trkpt>
      <trkpt lat="45.00754" lon="6.46369">
        <ele>1662</ele>
        <time>2020-01-21T08:50:56Z</time>
      </trkpt>
      <trkpt lat="45.00752" lon="6.46369">
        <ele>1662</ele>
        <time>2020-01-21T08:51:01Z</time>
      </trkpt>
      <trkpt lat="45.00749" lon="6.46368">
        <ele>1661</ele>
        <time>2020-01-21T08:51:03Z</time>
      </trkpt>
      <trkpt lat="45.00747" lon="6.46367">
        <ele>1660</ele>
        <time>2020-01-21T08:51:06Z</time>
      </trkpt>
      <trkpt lat="45.00745" lon="6.46366">
        <ele>1661</ele>
        <time>2020-01-21T08:51:09Z</time>
      </trkpt>
      <trkpt lat="45.00742" lon="6.46362">
        <ele>1661</ele>
        <time>2020-01-21T08:51:18Z</time>
      </trkpt>
      <trkpt lat="45.0074" lon="6.46359">
        <ele>1661</ele>
        <time>2020-01-21T08:51:21Z</time>
      </trkpt>
      <trkpt lat="45.00738" lon="6.46357">
        <ele>1661</ele>
        <time>2020-01-21T08:51:24Z</time>
      </trkpt>
      <trkpt lat="45.00736" lon="6.46356">
        <ele>1662</ele>
        <time>2020-01-21T08:51:28Z</time>
      </trkpt>
      <trkpt lat="45.00734" lon="6.46353">
        <ele>1662</ele>
        <time>2020-01-21T08:51:31Z</time>
      </trkpt>
      <trkpt lat="45.00732" lon="6.4635">
        <ele>1662</ele>
        <time>2020-01-21T08:51:35Z</time>
      </trkpt>
      <trkpt lat="45.00731" lon="6.46349">
        <ele>1662</ele>
        <time>2020-01-21T08:51:38Z</time>
      </trkpt>
      <trkpt lat="45.00729" lon="6.46348">
        <ele>1662</ele>
        <time>2020-01-21T08:51:41Z</time>
      </trkpt>
      <trkpt lat="45.00727" lon="6.46347">
        <ele>1661</ele>
        <time>2020-01-21T08:51:44Z</time>
      </trkpt>
      <trkpt lat="45.00725" lon="6.46344">
        <ele>1661</ele>
        <time>2020-01-21T08:51:47Z</time>
      </trkpt>
      <trkpt lat="45.00723" lon="6.46344">
        <ele>1662</ele>
        <time>2020-01-21T08:51:49Z</time>
      </trkpt>
      <trkpt lat="45.00723" lon="6.4634">
        <ele>1662</ele>
        <time>2020-01-21T08:51:54Z</time>
      </trkpt>
      <trkpt lat="45.00724" lon="6.46337">
        <ele>1666</ele>
        <time>2020-01-21T08:52:00Z</time>
      </trkpt>
      <trkpt lat="45.00726" lon="6.46335">
        <ele>1667</ele>
        <time>2020-01-21T08:52:42Z</time>
      </trkpt>
      <trkpt lat="45.00729" lon="6.46329">
        <ele>1667</ele>
        <time>2020-01-21T08:52:46Z</time>
      </trkpt>
      <trkpt lat="45.00729" lon="6.46326">
        <ele>1668</ele>
        <time>2020-01-21T08:52:49Z</time>
      </trkpt>
      <trkpt lat="45.00728" lon="6.46323">
        <ele>1669</ele>
        <time>2020-01-21T08:52:52Z</time>
      </trkpt>
      <trkpt lat="45.00727" lon="6.4632">
        <ele>1668</ele>
        <time>2020-01-21T08:52:55Z</time>
      </trkpt>
      <trkpt lat="45.00725" lon="6.46318">
        <ele>1668</ele>
        <time>2020-01-21T08:53:00Z</time>
      </trkpt>
      <trkpt lat="45.00723" lon="6.46318">
        <ele>1669</ele>
        <time>2020-01-21T08:53:07Z</time>
      </trkpt>
      <trkpt lat="45.00721" lon="6.46317">
        <ele>1669</ele>
        <time>2020-01-21T08:53:09Z</time>
      </trkpt>
      <trkpt lat="45.00717" lon="6.46313">
        <ele>1670</ele>
        <time>2020-01-21T08:53:14Z</time>
      </trkpt>
      <trkpt lat="45.00715" lon="6.46312">
        <ele>1670</ele>
        <time>2020-01-21T08:53:18Z</time>
      </trkpt>
      <trkpt lat="45.00713" lon="6.4631">
        <ele>1670</ele>
        <time>2020-01-21T08:53:21Z</time>
      </trkpt>
      <trkpt lat="45.00707" lon="6.46306">
        <ele>1670</ele>
        <time>2020-01-21T08:53:29Z</time>
      </trkpt>
      <trkpt lat="45.00705" lon="6.46303">
        <ele>1670</ele>
        <time>2020-01-21T08:53:38Z</time>
      </trkpt>
      <trkpt lat="45.00705" lon="6.463">
        <ele>1671</ele>
        <time>2020-01-21T08:53:40Z</time>
      </trkpt>
      <trkpt lat="45.00704" lon="6.46297">
        <ele>1671</ele>
        <time>2020-01-21T08:53:42Z</time>
      </trkpt>
      <trkpt lat="45.00704" lon="6.46294">
        <ele>1672</ele>
        <time>2020-01-21T08:53:45Z</time>
      </trkpt>
      <trkpt lat="45.00704" lon="6.46291">
        <ele>1672</ele>
        <time>2020-01-21T08:53:48Z</time>
      </trkpt>
      <trkpt lat="45.00705" lon="6.46284">
        <ele>1673</ele>
        <time>2020-01-21T08:53:56Z</time>
      </trkpt>
      <trkpt lat="45.00704" lon="6.46282">
        <ele>1675</ele>
        <time>2020-01-21T08:54:02Z</time>
      </trkpt>
      <trkpt lat="45.00705" lon="6.46279">
        <ele>1675</ele>
        <time>2020-01-21T08:54:07Z</time>
      </trkpt>
      <trkpt lat="45.00707" lon="6.46277">
        <ele>1678</ele>
        <time>2020-01-21T08:54:14Z</time>
      </trkpt>
      <trkpt lat="45.00711" lon="6.46271">
        <ele>1679</ele>
        <time>2020-01-21T08:54:21Z</time>
      </trkpt>
      <trkpt lat="45.00713" lon="6.46266">
        <ele>1680</ele>
        <time>2020-01-21T08:54:26Z</time>
      </trkpt>
      <trkpt lat="45.00713" lon="6.46263">
        <ele>1680</ele>
        <time>2020-01-21T08:54:28Z</time>
      </trkpt>
      <trkpt lat="45.00715" lon="6.46258">
        <ele>1681</ele>
        <time>2020-01-21T08:54:36Z</time>
      </trkpt>
      <trkpt lat="45.00714" lon="6.46255">
        <ele>1681</ele>
        <time>2020-01-21T08:54:40Z</time>
      </trkpt>
      <trkpt lat="45.00715" lon="6.46251">
        <ele>1683</ele>
        <time>2020-01-21T08:54:46Z</time>
      </trkpt>
      <trkpt lat="45.00714" lon="6.46243">
        <ele>1685</ele>
        <time>2020-01-21T08:54:54Z</time>
      </trkpt>
      <trkpt lat="45.00715" lon="6.46237">
        <ele>1686</ele>
        <time>2020-01-21T08:55:02Z</time>
      </trkpt>
      <trkpt lat="45.00715" lon="6.46234">
        <ele>1686</ele>
        <time>2020-01-21T08:55:06Z</time>
      </trkpt>
      <trkpt lat="45.00715" lon="6.46231">
        <ele>1686</ele>
        <time>2020-01-21T08:55:10Z</time>
      </trkpt>
      <trkpt lat="45.00713" lon="6.46225">
        <ele>1687</ele>
        <time>2020-01-21T08:55:16Z</time>
      </trkpt>
      <trkpt lat="45.0071" lon="6.46222">
        <ele>1688</ele>
        <time>2020-01-21T08:55:20Z</time>
      </trkpt>
      <trkpt lat="45.00708" lon="6.46221">
        <ele>1689</ele>
        <time>2020-01-21T08:55:24Z</time>
      </trkpt>
      <trkpt lat="45.00703" lon="6.46218">
        <ele>1691</ele>
        <time>2020-01-21T08:55:31Z</time>
      </trkpt>
      <trkpt lat="45.00701" lon="6.46216">
        <ele>1692</ele>
        <time>2020-01-21T08:55:34Z</time>
      </trkpt>
      <trkpt lat="45.00699" lon="6.46214">
        <ele>1693</ele>
        <time>2020-01-21T08:55:40Z</time>
      </trkpt>
      <trkpt lat="45.00697" lon="6.46211">
        <ele>1696</ele>
        <time>2020-01-21T08:55:45Z</time>
      </trkpt>
      <trkpt lat="45.00695" lon="6.46206">
        <ele>1696</ele>
        <time>2020-01-21T08:55:50Z</time>
      </trkpt>
      <trkpt lat="45.00693" lon="6.46204">
        <ele>1697</ele>
        <time>2020-01-21T08:55:53Z</time>
      </trkpt>
      <trkpt lat="45.00687" lon="6.46197">
        <ele>1699</ele>
        <time>2020-01-21T08:56:06Z</time>
      </trkpt>
      <trkpt lat="45.00685" lon="6.46194">
        <ele>1699</ele>
        <time>2020-01-21T08:56:10Z</time>
      </trkpt>
      <trkpt lat="45.00677" lon="6.46193">
        <ele>1701</ele>
        <time>2020-01-21T08:56:22Z</time>
      </trkpt>
      <trkpt lat="45.00673" lon="6.46193">
        <ele>1702</ele>
        <time>2020-01-21T08:56:26Z</time>
      </trkpt>
      <trkpt lat="45.00671" lon="6.46193">
        <ele>1704</ele>
        <time>2020-01-21T08:56:29Z</time>
      </trkpt>
      <trkpt lat="45.00668" lon="6.46193">
        <ele>1705</ele>
        <time>2020-01-21T08:56:37Z</time>
      </trkpt>
      <trkpt lat="45.00667" lon="6.46194">
        <ele>1705</ele>
        <time>2020-01-21T08:56:44Z</time>
      </trkpt>
      <trkpt lat="45.00667" lon="6.46191">
        <ele>1705</ele>
        <time>2020-01-21T08:56:47Z</time>
      </trkpt>
      <trkpt lat="45.00668" lon="6.46183">
        <ele>1706</ele>
        <time>2020-01-21T08:56:55Z</time>
      </trkpt>
      <trkpt lat="45.00668" lon="6.46176">
        <ele>1706</ele>
        <time>2020-01-21T08:57:02Z</time>
      </trkpt>
      <trkpt lat="45.00671" lon="6.4617">
        <ele>1707</ele>
        <time>2020-01-21T08:57:10Z</time>
      </trkpt>
      <trkpt lat="45.00671" lon="6.46167">
        <ele>1708</ele>
        <time>2020-01-21T08:57:15Z</time>
      </trkpt>
      <trkpt lat="45.00673" lon="6.46166">
        <ele>1711</ele>
        <time>2020-01-21T08:57:19Z</time>
      </trkpt>
      <trkpt lat="45.00675" lon="6.46163">
        <ele>1712</ele>
        <time>2020-01-21T08:57:26Z</time>
      </trkpt>
      <trkpt lat="45.00675" lon="6.4616">
        <ele>1714</ele>
        <time>2020-01-21T08:57:30Z</time>
      </trkpt>
      <trkpt lat="45.00673" lon="6.46158">
        <ele>1714</ele>
        <time>2020-01-21T08:57:33Z</time>
      </trkpt>
      <trkpt lat="45.00673" lon="6.46156">
        <ele>1715</ele>
        <time>2020-01-21T08:57:37Z</time>
      </trkpt>
      <trkpt lat="45.00669" lon="6.4615">
        <ele>1718</ele>
        <time>2020-01-21T08:57:46Z</time>
      </trkpt>
      <trkpt lat="45.00666" lon="6.46149">
        <ele>1719</ele>
        <time>2020-01-21T08:57:54Z</time>
      </trkpt>
      <trkpt lat="45.00667" lon="6.46147">
        <ele>1719</ele>
        <time>2020-01-21T08:58:00Z</time>
      </trkpt>
      <trkpt lat="45.0067" lon="6.46144">
        <ele>1720</ele>
        <time>2020-01-21T08:58:06Z</time>
      </trkpt>
      <trkpt lat="45.00678" lon="6.46141">
        <ele>1724</ele>
        <time>2020-01-21T08:58:22Z</time>
      </trkpt>
      <trkpt lat="45.00678" lon="6.46137">
        <ele>1724</ele>
        <time>2020-01-21T08:58:26Z</time>
      </trkpt>
      <trkpt lat="45.00675" lon="6.46135">
        <ele>1725</ele>
        <time>2020-01-21T08:58:30Z</time>
      </trkpt>
      <trkpt lat="45.00675" lon="6.46131">
        <ele>1724</ele>
        <time>2020-01-21T08:58:33Z</time>
      </trkpt>
      <trkpt lat="45.00672" lon="6.4613">
        <ele>1724</ele>
        <time>2020-01-21T08:58:36Z</time>
      </trkpt>
      <trkpt lat="45.0067" lon="6.46129">
        <ele>1725</ele>
        <time>2020-01-21T08:58:39Z</time>
      </trkpt>
      <trkpt lat="45.00668" lon="6.46126">
        <ele>1724</ele>
        <time>2020-01-21T08:58:43Z</time>
      </trkpt>
      <trkpt lat="45.00667" lon="6.46123">
        <ele>1723</ele>
        <time>2020-01-21T08:58:51Z</time>
      </trkpt>
      <trkpt lat="45.00668" lon="6.4612">
        <ele>1723</ele>
        <time>2020-01-21T08:58:57Z</time>
      </trkpt>
      <trkpt lat="45.00667" lon="6.46117">
        <ele>1723</ele>
        <time>2020-01-21T08:59:01Z</time>
      </trkpt>
      <trkpt lat="45.0067" lon="6.46112">
        <ele>1725</ele>
        <time>2020-01-21T08:59:11Z</time>
      </trkpt>
      <trkpt lat="45.00672" lon="6.4611">
        <ele>1728</ele>
        <time>2020-01-21T08:59:15Z</time>
      </trkpt>
      <trkpt lat="45.00677" lon="6.46107">
        <ele>1732</ele>
        <time>2020-01-21T08:59:25Z</time>
      </trkpt>
      <trkpt lat="45.00679" lon="6.46106">
        <ele>1733</ele>
        <time>2020-01-21T08:59:28Z</time>
      </trkpt>
      <trkpt lat="45.0068" lon="6.46103">
        <ele>1735</ele>
        <time>2020-01-21T08:59:39Z</time>
      </trkpt>
      <trkpt lat="45.0068" lon="6.46103">
        <ele>1735</ele>
        <time>2020-01-21T08:59:47Z</time>
      </trkpt>
      <trkpt lat="45.0068" lon="6.46097">
        <ele>1733</ele>
        <time>2020-01-21T08:59:59Z</time>
      </trkpt>
      <trkpt lat="45.00668" lon="6.46077">
        <ele>1735</ele>
        <time>2020-01-21T09:00:29Z</time>
      </trkpt>
      <trkpt lat="45.00668" lon="6.46074">
        <ele>1735</ele>
        <time>2020-01-21T09:00:32Z</time>
      </trkpt>
      <trkpt lat="45.00666" lon="6.46071">
        <ele>1737</ele>
        <time>2020-01-21T09:00:36Z</time>
      </trkpt>
      <trkpt lat="45.00662" lon="6.46066">
        <ele>1738</ele>
        <time>2020-01-21T09:00:44Z</time>
      </trkpt>
      <trkpt lat="45.0066" lon="6.46064">
        <ele>1738</ele>
        <time>2020-01-21T09:00:46Z</time>
      </trkpt>
      <trkpt lat="45.00658" lon="6.4606">
        <ele>1739</ele>
        <time>2020-01-21T09:00:54Z</time>
      </trkpt>
      <trkpt lat="45.00656" lon="6.46059">
        <ele>1740</ele>
        <time>2020-01-21T09:00:57Z</time>
      </trkpt>
      <trkpt lat="45.00651" lon="6.46053">
        <ele>1745</ele>
        <time>2020-01-21T09:01:08Z</time>
      </trkpt>
      <trkpt lat="45.00649" lon="6.4605">
        <ele>1746</ele>
        <time>2020-01-21T09:01:14Z</time>
      </trkpt>
      <trkpt lat="45.00653" lon="6.4604">
        <ele>1749</ele>
        <time>2020-01-21T09:01:31Z</time>
      </trkpt>
      <trkpt lat="45.00653" lon="6.46034">
        <ele>1752</ele>
        <time>2020-01-21T09:01:38Z</time>
      </trkpt>
      <trkpt lat="45.00651" lon="6.46032">
        <ele>1752</ele>
        <time>2020-01-21T09:01:45Z</time>
      </trkpt>
      <trkpt lat="45.00649" lon="6.4603">
        <ele>1754</ele>
        <time>2020-01-21T09:01:49Z</time>
      </trkpt>
      <trkpt lat="45.00646" lon="6.46026">
        <ele>1754</ele>
        <time>2020-01-21T09:01:55Z</time>
      </trkpt>
      <trkpt lat="45.00646" lon="6.46022">
        <ele>1753</ele>
        <time>2020-01-21T09:01:59Z</time>
      </trkpt>
      <trkpt lat="45.00645" lon="6.46019">
        <ele>1753</ele>
        <time>2020-01-21T09:02:03Z</time>
      </trkpt>
      <trkpt lat="45.00642" lon="6.46018">
        <ele>1752</ele>
        <time>2020-01-21T09:02:08Z</time>
      </trkpt>
      <trkpt lat="45.00641" lon="6.46016">
        <ele>1752</ele>
        <time>2020-01-21T09:02:11Z</time>
      </trkpt>
      <trkpt lat="45.00641" lon="6.46013">
        <ele>1752</ele>
        <time>2020-01-21T09:02:15Z</time>
      </trkpt>
      <trkpt lat="45.00641" lon="6.46009">
        <ele>1753</ele>
        <time>2020-01-21T09:02:20Z</time>
      </trkpt>
      <trkpt lat="45.0064" lon="6.46006">
        <ele>1754</ele>
        <time>2020-01-21T09:02:25Z</time>
      </trkpt>
      <trkpt lat="45.00638" lon="6.46004">
        <ele>1754</ele>
        <time>2020-01-21T09:02:28Z</time>
      </trkpt>
      <trkpt lat="45.00637" lon="6.46002">
        <ele>1754</ele>
        <time>2020-01-21T09:02:34Z</time>
      </trkpt>
      <trkpt lat="45.00635" lon="6.46">
        <ele>1754</ele>
        <time>2020-01-21T09:02:38Z</time>
      </trkpt>
      <trkpt lat="45.00633" lon="6.45994">
        <ele>1756</ele>
        <time>2020-01-21T09:02:48Z</time>
      </trkpt>
      <trkpt lat="45.00633" lon="6.45991">
        <ele>1756</ele>
        <time>2020-01-21T09:02:51Z</time>
      </trkpt>
      <trkpt lat="45.00635" lon="6.45989">
        <ele>1758</ele>
        <time>2020-01-21T09:02:55Z</time>
      </trkpt>
      <trkpt lat="45.00635" lon="6.45986">
        <ele>1760</ele>
        <time>2020-01-21T09:03:00Z</time>
      </trkpt>
      <trkpt lat="45.00631" lon="6.45984">
        <ele>1762</ele>
        <time>2020-01-21T09:03:09Z</time>
      </trkpt>
      <trkpt lat="45.00633" lon="6.45981">
        <ele>1762</ele>
        <time>2020-01-21T09:03:14Z</time>
      </trkpt>
      <trkpt lat="45.00633" lon="6.45978">
        <ele>1764</ele>
        <time>2020-01-21T09:03:18Z</time>
      </trkpt>
      <trkpt lat="45.00633" lon="6.45975">
        <ele>1765</ele>
        <time>2020-01-21T09:03:23Z</time>
      </trkpt>
      <trkpt lat="45.00631" lon="6.45973">
        <ele>1766</ele>
        <time>2020-01-21T09:03:26Z</time>
      </trkpt>
      <trkpt lat="45.00632" lon="6.4597">
        <ele>1767</ele>
        <time>2020-01-21T09:03:32Z</time>
      </trkpt>
      <trkpt lat="45.00631" lon="6.45967">
        <ele>1766</ele>
        <time>2020-01-21T09:03:37Z</time>
      </trkpt>
      <trkpt lat="45.00629" lon="6.45965">
        <ele>1766</ele>
        <time>2020-01-21T09:03:41Z</time>
      </trkpt>
      <trkpt lat="45.00629" lon="6.45962">
        <ele>1767</ele>
        <time>2020-01-21T09:03:44Z</time>
      </trkpt>
      <trkpt lat="45.00628" lon="6.45959">
        <ele>1767</ele>
        <time>2020-01-21T09:03:48Z</time>
      </trkpt>
      <trkpt lat="45.00628" lon="6.45956">
        <ele>1770</ele>
        <time>2020-01-21T09:03:54Z</time>
      </trkpt>
      <trkpt lat="45.00627" lon="6.45954">
        <ele>1770</ele>
        <time>2020-01-21T09:03:57Z</time>
      </trkpt>
      <trkpt lat="45.00629" lon="6.45952">
        <ele>1771</ele>
        <time>2020-01-21T09:04:01Z</time>
      </trkpt>
      <trkpt lat="45.00632" lon="6.4595">
        <ele>1774</ele>
        <time>2020-01-21T09:04:06Z</time>
      </trkpt>
      <trkpt lat="45.00634" lon="6.45949">
        <ele>1776</ele>
        <time>2020-01-21T09:04:12Z</time>
      </trkpt>
      <trkpt lat="45.00635" lon="6.45946">
        <ele>1776</ele>
        <time>2020-01-21T09:04:18Z</time>
      </trkpt>
      <trkpt lat="45.00635" lon="6.45944">
        <ele>1776</ele>
        <time>2020-01-21T09:04:21Z</time>
      </trkpt>
      <trkpt lat="45.00636" lon="6.45941">
        <ele>1776</ele>
        <time>2020-01-21T09:04:23Z</time>
      </trkpt>
      <trkpt lat="45.00637" lon="6.45938">
        <ele>1776</ele>
        <time>2020-01-21T09:04:28Z</time>
      </trkpt>
      <trkpt lat="45.00638" lon="6.45931">
        <ele>1779</ele>
        <time>2020-01-21T09:04:37Z</time>
      </trkpt>
      <trkpt lat="45.00637" lon="6.45925">
        <ele>1779</ele>
        <time>2020-01-21T09:04:42Z</time>
      </trkpt>
      <trkpt lat="45.00636" lon="6.45923">
        <ele>1780</ele>
        <time>2020-01-21T09:04:44Z</time>
      </trkpt>
      <trkpt lat="45.00634" lon="6.45917">
        <ele>1780</ele>
        <time>2020-01-21T09:04:50Z</time>
      </trkpt>
      <trkpt lat="45.00632" lon="6.45916">
        <ele>1780</ele>
        <time>2020-01-21T09:04:52Z</time>
      </trkpt>
      <trkpt lat="45.00631" lon="6.45913">
        <ele>1780</ele>
        <time>2020-01-21T09:04:55Z</time>
      </trkpt>
      <trkpt lat="45.00628" lon="6.45909">
        <ele>1780</ele>
        <time>2020-01-21T09:05:01Z</time>
      </trkpt>
      <trkpt lat="45.00626" lon="6.45907">
        <ele>1780</ele>
        <time>2020-01-21T09:05:03Z</time>
      </trkpt>
      <trkpt lat="45.00625" lon="6.45905">
        <ele>1782</ele>
        <time>2020-01-21T09:05:08Z</time>
      </trkpt>
      <trkpt lat="45.00624" lon="6.45901">
        <ele>1785</ele>
        <time>2020-01-21T09:05:17Z</time>
      </trkpt>
      <trkpt lat="45.00625" lon="6.45898">
        <ele>1786</ele>
        <time>2020-01-21T09:05:21Z</time>
      </trkpt>
      <trkpt lat="45.00623" lon="6.45896">
        <ele>1786</ele>
        <time>2020-01-21T09:05:25Z</time>
      </trkpt>
      <trkpt lat="45.00621" lon="6.45892">
        <ele>1786</ele>
        <time>2020-01-21T09:05:31Z</time>
      </trkpt>
      <trkpt lat="45.0062" lon="6.45889">
        <ele>1787</ele>
        <time>2020-01-21T09:05:33Z</time>
      </trkpt>
      <trkpt lat="45.00619" lon="6.45887">
        <ele>1788</ele>
        <time>2020-01-21T09:05:38Z</time>
      </trkpt>
      <trkpt lat="45.00622" lon="6.45882">
        <ele>1788</ele>
        <time>2020-01-21T09:05:46Z</time>
      </trkpt>
      <trkpt lat="45.00621" lon="6.45879">
        <ele>1790</ele>
        <time>2020-01-21T09:05:50Z</time>
      </trkpt>
      <trkpt lat="45.00619" lon="6.45874">
        <ele>1790</ele>
        <time>2020-01-21T09:05:58Z</time>
      </trkpt>
      <trkpt lat="45.00618" lon="6.45872">
        <ele>1790</ele>
        <time>2020-01-21T09:06:02Z</time>
      </trkpt>
      <trkpt lat="45.00616" lon="6.4587">
        <ele>1790</ele>
        <time>2020-01-21T09:06:06Z</time>
      </trkpt>
      <trkpt lat="45.00612" lon="6.45869">
        <ele>1791</ele>
        <time>2020-01-21T09:06:13Z</time>
      </trkpt>
      <trkpt lat="45.00611" lon="6.45866">
        <ele>1792</ele>
        <time>2020-01-21T09:06:19Z</time>
      </trkpt>
      <trkpt lat="45.00612" lon="6.45862">
        <ele>1792</ele>
        <time>2020-01-21T09:06:22Z</time>
      </trkpt>
      <trkpt lat="45.00612" lon="6.45856">
        <ele>1795</ele>
        <time>2020-01-21T09:06:30Z</time>
      </trkpt>
      <trkpt lat="45.00611" lon="6.45853">
        <ele>1796</ele>
        <time>2020-01-21T09:06:33Z</time>
      </trkpt>
      <trkpt lat="45.00611" lon="6.4585">
        <ele>1797</ele>
        <time>2020-01-21T09:06:38Z</time>
      </trkpt>
      <trkpt lat="45.00612" lon="6.45847">
        <ele>1797</ele>
        <time>2020-01-21T09:06:42Z</time>
      </trkpt>
      <trkpt lat="45.00613" lon="6.45845">
        <ele>1798</ele>
        <time>2020-01-21T09:06:46Z</time>
      </trkpt>
      <trkpt lat="45.00616" lon="6.45842">
        <ele>1800</ele>
        <time>2020-01-21T09:06:53Z</time>
      </trkpt>
      <trkpt lat="45.00618" lon="6.4584">
        <ele>1801</ele>
        <time>2020-01-21T09:06:56Z</time>
      </trkpt>
      <trkpt lat="45.00618" lon="6.45838">
        <ele>1802</ele>
        <time>2020-01-21T09:07:01Z</time>
      </trkpt>
      <trkpt lat="45.00616" lon="6.45836">
        <ele>1802</ele>
        <time>2020-01-21T09:07:05Z</time>
      </trkpt>
      <trkpt lat="45.00615" lon="6.45834">
        <ele>1804</ele>
        <time>2020-01-21T09:07:09Z</time>
      </trkpt>
      <trkpt lat="45.00614" lon="6.4583">
        <ele>1804</ele>
        <time>2020-01-21T09:07:15Z</time>
      </trkpt>
      <trkpt lat="45.00612" lon="6.45828">
        <ele>1804</ele>
        <time>2020-01-21T09:07:20Z</time>
      </trkpt>
      <trkpt lat="45.0061" lon="6.45822">
        <ele>1803</ele>
        <time>2020-01-21T09:07:27Z</time>
      </trkpt>
      <trkpt lat="45.00608" lon="6.45817">
        <ele>1805</ele>
        <time>2020-01-21T09:07:35Z</time>
      </trkpt>
      <trkpt lat="45.00607" lon="6.45815">
        <ele>1806</ele>
        <time>2020-01-21T09:07:40Z</time>
      </trkpt>
      <trkpt lat="45.00607" lon="6.45812">
        <ele>1806</ele>
        <time>2020-01-21T09:07:43Z</time>
      </trkpt>
      <trkpt lat="45.00606" lon="6.45811">
        <ele>1806</ele>
        <time>2020-01-21T09:07:46Z</time>
      </trkpt>
      <trkpt lat="45.00606" lon="6.45809">
        <ele>1806</ele>
        <time>2020-01-21T09:07:49Z</time>
      </trkpt>
      <trkpt lat="45.00607" lon="6.45806">
        <ele>1807</ele>
        <time>2020-01-21T09:07:56Z</time>
      </trkpt>
      <trkpt lat="45.00605" lon="6.45796">
        <ele>1810</ele>
        <time>2020-01-21T09:08:09Z</time>
      </trkpt>
      <trkpt lat="45.00606" lon="6.45793">
        <ele>1812</ele>
        <time>2020-01-21T09:08:13Z</time>
      </trkpt>
      <trkpt lat="45.00605" lon="6.45791">
        <ele>1813</ele>
        <time>2020-01-21T09:08:16Z</time>
      </trkpt>
      <trkpt lat="45.00603" lon="6.45789">
        <ele>1814</ele>
        <time>2020-01-21T09:08:19Z</time>
      </trkpt>
      <trkpt lat="45.00604" lon="6.45787">
        <ele>1814</ele>
        <time>2020-01-21T09:08:23Z</time>
      </trkpt>
      <trkpt lat="45.00604" lon="6.45782">
        <ele>1814</ele>
        <time>2020-01-21T09:08:28Z</time>
      </trkpt>
      <trkpt lat="45.006" lon="6.45768">
        <ele>1817</ele>
        <time>2020-01-21T09:08:44Z</time>
      </trkpt>
      <trkpt lat="45.00599" lon="6.45766">
        <ele>1819</ele>
        <time>2020-01-21T09:08:49Z</time>
      </trkpt>
      <trkpt lat="45.00597" lon="6.45761">
        <ele>1819</ele>
        <time>2020-01-21T09:09:04Z</time>
      </trkpt>
      <trkpt lat="45.00597" lon="6.45759">
        <ele>1819</ele>
        <time>2020-01-21T09:09:11Z</time>
      </trkpt>
      <trkpt lat="45.00599" lon="6.45759">
        <ele>1820</ele>
        <time>2020-01-21T09:09:56Z</time>
      </trkpt>
      <trkpt lat="45.00599" lon="6.45762">
        <ele>1824</ele>
        <time>2020-01-21T09:10:54Z</time>
      </trkpt>
      <trkpt lat="45.00599" lon="6.45759">
        <ele>1826</ele>
        <time>2020-01-21T09:11:29Z</time>
      </trkpt>
      <trkpt lat="45.00597" lon="6.45754">
        <ele>1826</ele>
        <time>2020-01-21T09:11:34Z</time>
      </trkpt>
      <trkpt lat="45.00595" lon="6.45748">
        <ele>1825</ele>
        <time>2020-01-21T09:11:40Z</time>
      </trkpt>
      <trkpt lat="45.00595" lon="6.45744">
        <ele>1825</ele>
        <time>2020-01-21T09:11:44Z</time>
      </trkpt>
      <trkpt lat="45.00595" lon="6.45742">
        <ele>1825</ele>
        <time>2020-01-21T09:11:47Z</time>
      </trkpt>
      <trkpt lat="45.00594" lon="6.45727">
        <ele>1827</ele>
        <time>2020-01-21T09:12:01Z</time>
      </trkpt>
      <trkpt lat="45.00595" lon="6.45725">
        <ele>1828</ele>
        <time>2020-01-21T09:12:04Z</time>
      </trkpt>
      <trkpt lat="45.00593" lon="6.45723">
        <ele>1828</ele>
        <time>2020-01-21T09:12:07Z</time>
      </trkpt>
      <trkpt lat="45.00589" lon="6.45708">
        <ele>1830</ele>
        <time>2020-01-21T09:12:23Z</time>
      </trkpt>
      <trkpt lat="45.00587" lon="6.45693">
        <ele>1833</ele>
        <time>2020-01-21T09:12:40Z</time>
      </trkpt>
      <trkpt lat="45.00586" lon="6.45685">
        <ele>1835</ele>
        <time>2020-01-21T09:12:48Z</time>
      </trkpt>
      <trkpt lat="45.00584" lon="6.45682">
        <ele>1835</ele>
        <time>2020-01-21T09:12:52Z</time>
      </trkpt>
      <trkpt lat="45.00581" lon="6.45671">
        <ele>1836</ele>
        <time>2020-01-21T09:13:03Z</time>
      </trkpt>
      <trkpt lat="45.00581" lon="6.45667">
        <ele>1835</ele>
        <time>2020-01-21T09:13:07Z</time>
      </trkpt>
      <trkpt lat="45.00578" lon="6.45661">
        <ele>1837</ele>
        <time>2020-01-21T09:13:15Z</time>
      </trkpt>
      <trkpt lat="45.00577" lon="6.45658">
        <ele>1837</ele>
        <time>2020-01-21T09:13:18Z</time>
      </trkpt>
      <trkpt lat="45.00575" lon="6.45652">
        <ele>1839</ele>
        <time>2020-01-21T09:13:28Z</time>
      </trkpt>
      <trkpt lat="45.00575" lon="6.45649">
        <ele>1839</ele>
        <time>2020-01-21T09:13:31Z</time>
      </trkpt>
      <trkpt lat="45.00571" lon="6.45624">
        <ele>1845</ele>
        <time>2020-01-21T09:14:03Z</time>
      </trkpt>
      <trkpt lat="45.00567" lon="6.45615">
        <ele>1847</ele>
        <time>2020-01-21T09:14:14Z</time>
      </trkpt>
      <trkpt lat="45.00563" lon="6.45599">
        <ele>1848</ele>
        <time>2020-01-21T09:14:34Z</time>
      </trkpt>
      <trkpt lat="45.00561" lon="6.45597">
        <ele>1848</ele>
        <time>2020-01-21T09:14:39Z</time>
      </trkpt>
      <trkpt lat="45.0056" lon="6.45594">
        <ele>1850</ele>
        <time>2020-01-21T09:14:43Z</time>
      </trkpt>
      <trkpt lat="45.00558" lon="6.4559">
        <ele>1851</ele>
        <time>2020-01-21T09:14:47Z</time>
      </trkpt>
      <trkpt lat="45.00558" lon="6.45586">
        <ele>1853</ele>
        <time>2020-01-21T09:14:51Z</time>
      </trkpt>
      <trkpt lat="45.00556" lon="6.45584">
        <ele>1853</ele>
        <time>2020-01-21T09:14:55Z</time>
      </trkpt>
      <trkpt lat="45.00555" lon="6.45581">
        <ele>1853</ele>
        <time>2020-01-21T09:14:59Z</time>
      </trkpt>
      <trkpt lat="45.00555" lon="6.45579">
        <ele>1854</ele>
        <time>2020-01-21T09:15:03Z</time>
      </trkpt>
      <trkpt lat="45.00556" lon="6.45575">
        <ele>1855</ele>
        <time>2020-01-21T09:15:08Z</time>
      </trkpt>
      <trkpt lat="45.00556" lon="6.45571">
        <ele>1855</ele>
        <time>2020-01-21T09:15:12Z</time>
      </trkpt>
      <trkpt lat="45.00557" lon="6.45567">
        <ele>1857</ele>
        <time>2020-01-21T09:15:18Z</time>
      </trkpt>
      <trkpt lat="45.00556" lon="6.45564">
        <ele>1858</ele>
        <time>2020-01-21T09:15:25Z</time>
      </trkpt>
      <trkpt lat="45.00554" lon="6.45562">
        <ele>1859</ele>
        <time>2020-01-21T09:15:28Z</time>
      </trkpt>
      <trkpt lat="45.0055" lon="6.45557">
        <ele>1862</ele>
        <time>2020-01-21T09:15:35Z</time>
      </trkpt>
      <trkpt lat="45.0055" lon="6.45552">
        <ele>1863</ele>
        <time>2020-01-21T09:15:42Z</time>
      </trkpt>
      <trkpt lat="45.0055" lon="6.4554">
        <ele>1867</ele>
        <time>2020-01-21T09:15:56Z</time>
      </trkpt>
      <trkpt lat="45.00548" lon="6.45539">
        <ele>1868</ele>
        <time>2020-01-21T09:16:00Z</time>
      </trkpt>
      <trkpt lat="45.00547" lon="6.45537">
        <ele>1868</ele>
        <time>2020-01-21T09:16:03Z</time>
      </trkpt>
      <trkpt lat="45.00547" lon="6.45534">
        <ele>1868</ele>
        <time>2020-01-21T09:16:07Z</time>
      </trkpt>
      <trkpt lat="45.00545" lon="6.45528">
        <ele>1868</ele>
        <time>2020-01-21T09:16:14Z</time>
      </trkpt>
      <trkpt lat="45.00544" lon="6.45519">
        <ele>1870</ele>
        <time>2020-01-21T09:16:25Z</time>
      </trkpt>
      <trkpt lat="45.00543" lon="6.45516">
        <ele>1870</ele>
        <time>2020-01-21T09:16:29Z</time>
      </trkpt>
      <trkpt lat="45.00542" lon="6.45513">
        <ele>1871</ele>
        <time>2020-01-21T09:16:34Z</time>
      </trkpt>
      <trkpt lat="45.00542" lon="6.45507">
        <ele>1872</ele>
        <time>2020-01-21T09:16:40Z</time>
      </trkpt>
      <trkpt lat="45.00541" lon="6.45505">
        <ele>1873</ele>
        <time>2020-01-21T09:16:45Z</time>
      </trkpt>
      <trkpt lat="45.0054" lon="6.45502">
        <ele>1873</ele>
        <time>2020-01-21T09:16:48Z</time>
      </trkpt>
      <trkpt lat="45.00538" lon="6.455">
        <ele>1874</ele>
        <time>2020-01-21T09:16:51Z</time>
      </trkpt>
      <trkpt lat="45.00537" lon="6.45497">
        <ele>1874</ele>
        <time>2020-01-21T09:16:54Z</time>
      </trkpt>
      <trkpt lat="45.00536" lon="6.45493">
        <ele>1876</ele>
        <time>2020-01-21T09:16:59Z</time>
      </trkpt>
      <trkpt lat="45.00536" lon="6.4549">
        <ele>1876</ele>
        <time>2020-01-21T09:17:02Z</time>
      </trkpt>
      <trkpt lat="45.00534" lon="6.45484">
        <ele>1877</ele>
        <time>2020-01-21T09:17:10Z</time>
      </trkpt>
      <trkpt lat="45.00533" lon="6.45477">
        <ele>1881</ele>
        <time>2020-01-21T09:17:18Z</time>
      </trkpt>
      <trkpt lat="45.0053" lon="6.45473">
        <ele>1882</ele>
        <time>2020-01-21T09:17:24Z</time>
      </trkpt>
      <trkpt lat="45.00527" lon="6.45472">
        <ele>1882</ele>
        <time>2020-01-21T09:17:28Z</time>
      </trkpt>
      <trkpt lat="45.00526" lon="6.45468">
        <ele>1883</ele>
        <time>2020-01-21T09:17:33Z</time>
      </trkpt>
      <trkpt lat="45.00524" lon="6.45466">
        <ele>1884</ele>
        <time>2020-01-21T09:17:40Z</time>
      </trkpt>
      <trkpt lat="45.00524" lon="6.45463">
        <ele>1885</ele>
        <time>2020-01-21T09:17:43Z</time>
      </trkpt>
      <trkpt lat="45.00526" lon="6.45459">
        <ele>1886</ele>
        <time>2020-01-21T09:17:48Z</time>
      </trkpt>
      <trkpt lat="45.00527" lon="6.45456">
        <ele>1888</ele>
        <time>2020-01-21T09:17:51Z</time>
      </trkpt>
      <trkpt lat="45.00528" lon="6.45453">
        <ele>1888</ele>
        <time>2020-01-21T09:17:54Z</time>
      </trkpt>
      <trkpt lat="45.00528" lon="6.45447">
        <ele>1889</ele>
        <time>2020-01-21T09:18:02Z</time>
      </trkpt>
      <trkpt lat="45.00527" lon="6.4544">
        <ele>1892</ele>
        <time>2020-01-21T09:18:13Z</time>
      </trkpt>
      <trkpt lat="45.00527" lon="6.45437">
        <ele>1893</ele>
        <time>2020-01-21T09:18:17Z</time>
      </trkpt>
      <trkpt lat="45.00525" lon="6.45431">
        <ele>1893</ele>
        <time>2020-01-21T09:18:23Z</time>
      </trkpt>
      <trkpt lat="45.00523" lon="6.45428">
        <ele>1893</ele>
        <time>2020-01-21T09:18:26Z</time>
      </trkpt>
      <trkpt lat="45.00522" lon="6.45426">
        <ele>1892</ele>
        <time>2020-01-21T09:18:29Z</time>
      </trkpt>
      <trkpt lat="45.00521" lon="6.45423">
        <ele>1892</ele>
        <time>2020-01-21T09:18:33Z</time>
      </trkpt>
      <trkpt lat="45.00519" lon="6.45421">
        <ele>1893</ele>
        <time>2020-01-21T09:18:36Z</time>
      </trkpt>
      <trkpt lat="45.00517" lon="6.45419">
        <ele>1893</ele>
        <time>2020-01-21T09:18:39Z</time>
      </trkpt>
      <trkpt lat="45.00516" lon="6.45416">
        <ele>1894</ele>
        <time>2020-01-21T09:18:44Z</time>
      </trkpt>
      <trkpt lat="45.00515" lon="6.45413">
        <ele>1894</ele>
        <time>2020-01-21T09:18:48Z</time>
      </trkpt>
      <trkpt lat="45.00513" lon="6.45411">
        <ele>1895</ele>
        <time>2020-01-21T09:18:50Z</time>
      </trkpt>
      <trkpt lat="45.00512" lon="6.45408">
        <ele>1895</ele>
        <time>2020-01-21T09:18:55Z</time>
      </trkpt>
      <trkpt lat="45.0051" lon="6.45395">
        <ele>1899</ele>
        <time>2020-01-21T09:19:13Z</time>
      </trkpt>
      <trkpt lat="45.0051" lon="6.45392">
        <ele>1900</ele>
        <time>2020-01-21T09:19:18Z</time>
      </trkpt>
      <trkpt lat="45.0051" lon="6.45388">
        <ele>1901</ele>
        <time>2020-01-21T09:19:21Z</time>
      </trkpt>
      <trkpt lat="45.00513" lon="6.45383">
        <ele>1905</ele>
        <time>2020-01-21T09:19:31Z</time>
      </trkpt>
      <trkpt lat="45.00514" lon="6.4538">
        <ele>1906</ele>
        <time>2020-01-21T09:19:37Z</time>
      </trkpt>
      <trkpt lat="45.00515" lon="6.45376">
        <ele>1907</ele>
        <time>2020-01-21T09:19:42Z</time>
      </trkpt>
      <trkpt lat="45.00514" lon="6.45374">
        <ele>1908</ele>
        <time>2020-01-21T09:19:45Z</time>
      </trkpt>
      <trkpt lat="45.00513" lon="6.4537">
        <ele>1909</ele>
        <time>2020-01-21T09:19:50Z</time>
      </trkpt>
      <trkpt lat="45.00509" lon="6.45361">
        <ele>1911</ele>
        <time>2020-01-21T09:20:05Z</time>
      </trkpt>
      <trkpt lat="45.00508" lon="6.45354">
        <ele>1911</ele>
        <time>2020-01-21T09:20:16Z</time>
      </trkpt>
      <trkpt lat="45.00507" lon="6.4535">
        <ele>1912</ele>
        <time>2020-01-21T09:20:20Z</time>
      </trkpt>
      <trkpt lat="45.00505" lon="6.45348">
        <ele>1912</ele>
        <time>2020-01-21T09:20:26Z</time>
      </trkpt>
      <trkpt lat="45.00502" lon="6.4533">
        <ele>1915</ele>
        <time>2020-01-21T09:20:48Z</time>
      </trkpt>
      <trkpt lat="45.00503" lon="6.45326">
        <ele>1918</ele>
        <time>2020-01-21T09:20:56Z</time>
      </trkpt>
      <trkpt lat="45.00502" lon="6.45322">
        <ele>1919</ele>
        <time>2020-01-21T09:21:01Z</time>
      </trkpt>
      <trkpt lat="45.005" lon="6.45319">
        <ele>1919</ele>
        <time>2020-01-21T09:21:04Z</time>
      </trkpt>
      <trkpt lat="45.005" lon="6.45312">
        <ele>1921</ele>
        <time>2020-01-21T09:21:15Z</time>
      </trkpt>
      <trkpt lat="45.00499" lon="6.45305">
        <ele>1922</ele>
        <time>2020-01-21T09:21:23Z</time>
      </trkpt>
      <trkpt lat="45.00498" lon="6.45298">
        <ele>1921</ele>
        <time>2020-01-21T09:21:33Z</time>
      </trkpt>
      <trkpt lat="45.00498" lon="6.45293">
        <ele>1925</ele>
        <time>2020-01-21T09:21:41Z</time>
      </trkpt>
      <trkpt lat="45.00498" lon="6.45289">
        <ele>1926</ele>
        <time>2020-01-21T09:21:45Z</time>
      </trkpt>
      <trkpt lat="45.00496" lon="6.45285">
        <ele>1927</ele>
        <time>2020-01-21T09:21:51Z</time>
      </trkpt>
      <trkpt lat="45.00495" lon="6.45278">
        <ele>1928</ele>
        <time>2020-01-21T09:22:00Z</time>
      </trkpt>
      <trkpt lat="45.00496" lon="6.45273">
        <ele>1930</ele>
        <time>2020-01-21T09:22:07Z</time>
      </trkpt>
      <trkpt lat="45.00494" lon="6.4527">
        <ele>1932</ele>
        <time>2020-01-21T09:22:11Z</time>
      </trkpt>
      <trkpt lat="45.00491" lon="6.45256">
        <ele>1932</ele>
        <time>2020-01-21T09:22:26Z</time>
      </trkpt>
      <trkpt lat="45.00486" lon="6.45245">
        <ele>1933</ele>
        <time>2020-01-21T09:22:40Z</time>
      </trkpt>
      <trkpt lat="45.00485" lon="6.45241">
        <ele>1934</ele>
        <time>2020-01-21T09:22:46Z</time>
      </trkpt>
      <trkpt lat="45.00482" lon="6.45234">
        <ele>1937</ele>
        <time>2020-01-21T09:22:54Z</time>
      </trkpt>
      <trkpt lat="45.00479" lon="6.45223">
        <ele>1938</ele>
        <time>2020-01-21T09:23:06Z</time>
      </trkpt>
      <trkpt lat="45.00477" lon="6.45221">
        <ele>1938</ele>
        <time>2020-01-21T09:23:11Z</time>
      </trkpt>
      <trkpt lat="45.00477" lon="6.45217">
        <ele>1939</ele>
        <time>2020-01-21T09:23:16Z</time>
      </trkpt>
      <trkpt lat="45.00475" lon="6.45215">
        <ele>1940</ele>
        <time>2020-01-21T09:23:19Z</time>
      </trkpt>
      <trkpt lat="45.00474" lon="6.45213">
        <ele>1941</ele>
        <time>2020-01-21T09:23:22Z</time>
      </trkpt>
      <trkpt lat="45.00472" lon="6.45211">
        <ele>1941</ele>
        <time>2020-01-21T09:23:25Z</time>
      </trkpt>
      <trkpt lat="45.00471" lon="6.45208">
        <ele>1941</ele>
        <time>2020-01-21T09:23:29Z</time>
      </trkpt>
      <trkpt lat="45.00469" lon="6.45205">
        <ele>1942</ele>
        <time>2020-01-21T09:23:33Z</time>
      </trkpt>
      <trkpt lat="45.00468" lon="6.45201">
        <ele>1942</ele>
        <time>2020-01-21T09:23:37Z</time>
      </trkpt>
      <trkpt lat="45.00466" lon="6.452">
        <ele>1942</ele>
        <time>2020-01-21T09:23:40Z</time>
      </trkpt>
      <trkpt lat="45.00465" lon="6.45196">
        <ele>1943</ele>
        <time>2020-01-21T09:23:44Z</time>
      </trkpt>
      <trkpt lat="45.00464" lon="6.45194">
        <ele>1943</ele>
        <time>2020-01-21T09:23:47Z</time>
      </trkpt>
      <trkpt lat="45.00462" lon="6.45187">
        <ele>1945</ele>
        <time>2020-01-21T09:23:55Z</time>
      </trkpt>
      <trkpt lat="45.0046" lon="6.45185">
        <ele>1946</ele>
        <time>2020-01-21T09:23:59Z</time>
      </trkpt>
      <trkpt lat="45.00458" lon="6.45182">
        <ele>1946</ele>
        <time>2020-01-21T09:24:02Z</time>
      </trkpt>
      <trkpt lat="45.00457" lon="6.4518">
        <ele>1947</ele>
        <time>2020-01-21T09:24:05Z</time>
      </trkpt>
      <trkpt lat="45.00453" lon="6.45175">
        <ele>1949</ele>
        <time>2020-01-21T09:24:13Z</time>
      </trkpt>
      <trkpt lat="45.00449" lon="6.45159">
        <ele>1952</ele>
        <time>2020-01-21T09:24:33Z</time>
      </trkpt>
      <trkpt lat="45.00447" lon="6.45157">
        <ele>1952</ele>
        <time>2020-01-21T09:24:37Z</time>
      </trkpt>
      <trkpt lat="45.00445" lon="6.45152">
        <ele>1953</ele>
        <time>2020-01-21T09:24:42Z</time>
      </trkpt>
      <trkpt lat="45.00443" lon="6.4515">
        <ele>1954</ele>
        <time>2020-01-21T09:24:45Z</time>
      </trkpt>
      <trkpt lat="45.00436" lon="6.45136">
        <ele>1961</ele>
        <time>2020-01-21T09:25:03Z</time>
      </trkpt>
      <trkpt lat="45.00435" lon="6.45132">
        <ele>1962</ele>
        <time>2020-01-21T09:25:10Z</time>
      </trkpt>
      <trkpt lat="45.00435" lon="6.45129">
        <ele>1961</ele>
        <time>2020-01-21T09:25:15Z</time>
      </trkpt>
      <trkpt lat="45.00437" lon="6.45122">
        <ele>1962</ele>
        <time>2020-01-21T09:25:25Z</time>
      </trkpt>
      <trkpt lat="45.00439" lon="6.4512">
        <ele>1964</ele>
        <time>2020-01-21T09:25:31Z</time>
      </trkpt>
      <trkpt lat="45.00442" lon="6.4511">
        <ele>1966</ele>
        <time>2020-01-21T09:25:46Z</time>
      </trkpt>
      <trkpt lat="45.00442" lon="6.45105">
        <ele>1968</ele>
        <time>2020-01-21T09:25:51Z</time>
      </trkpt>
      <trkpt lat="45.00448" lon="6.45098">
        <ele>1970</ele>
        <time>2020-01-21T09:26:08Z</time>
      </trkpt>
      <trkpt lat="45.0045" lon="6.45096">
        <ele>1972</ele>
        <time>2020-01-21T09:26:14Z</time>
      </trkpt>
      <trkpt lat="45.00455" lon="6.45092">
        <ele>1974</ele>
        <time>2020-01-21T09:26:22Z</time>
      </trkpt>
      <trkpt lat="45.00455" lon="6.45089">
        <ele>1974</ele>
        <time>2020-01-21T09:26:26Z</time>
      </trkpt>
      <trkpt lat="45.00453" lon="6.45087">
        <ele>1975</ele>
        <time>2020-01-21T09:26:31Z</time>
      </trkpt>
      <trkpt lat="45.00451" lon="6.45076">
        <ele>1975</ele>
        <time>2020-01-21T09:26:44Z</time>
      </trkpt>
      <trkpt lat="45.00449" lon="6.45073">
        <ele>1975</ele>
        <time>2020-01-21T09:26:48Z</time>
      </trkpt>
      <trkpt lat="45.00448" lon="6.4507">
        <ele>1975</ele>
        <time>2020-01-21T09:26:53Z</time>
      </trkpt>
      <trkpt lat="45.00446" lon="6.4506">
        <ele>1978</ele>
        <time>2020-01-21T09:27:07Z</time>
      </trkpt>
      <trkpt lat="45.00443" lon="6.45055">
        <ele>1979</ele>
        <time>2020-01-21T09:27:16Z</time>
      </trkpt>
      <trkpt lat="45.00437" lon="6.45047">
        <ele>1982</ele>
        <time>2020-01-21T09:27:30Z</time>
      </trkpt>
      <trkpt lat="45.00436" lon="6.45044">
        <ele>1983</ele>
        <time>2020-01-21T09:27:34Z</time>
      </trkpt>
      <trkpt lat="45.00436" lon="6.4504">
        <ele>1983</ele>
        <time>2020-01-21T09:27:39Z</time>
      </trkpt>
      <trkpt lat="45.00438" lon="6.45038">
        <ele>1985</ele>
        <time>2020-01-21T09:27:44Z</time>
      </trkpt>
      <trkpt lat="45.0044" lon="6.45037">
        <ele>1986</ele>
        <time>2020-01-21T09:27:49Z</time>
      </trkpt>
      <trkpt lat="45.00452" lon="6.45032">
        <ele>1990</ele>
        <time>2020-01-21T09:28:09Z</time>
      </trkpt>
      <trkpt lat="45.00454" lon="6.45026">
        <ele>1992</ele>
        <time>2020-01-21T09:28:16Z</time>
      </trkpt>
      <trkpt lat="45.00454" lon="6.45022">
        <ele>1993</ele>
        <time>2020-01-21T09:28:20Z</time>
      </trkpt>
      <trkpt lat="45.00454" lon="6.45019">
        <ele>1992</ele>
        <time>2020-01-21T09:28:23Z</time>
      </trkpt>
      <trkpt lat="45.00453" lon="6.45017">
        <ele>1992</ele>
        <time>2020-01-21T09:28:28Z</time>
      </trkpt>
      <trkpt lat="45.00452" lon="6.45013">
        <ele>1994</ele>
        <time>2020-01-21T09:28:32Z</time>
      </trkpt>
      <trkpt lat="45.00441" lon="6.44993">
        <ele>1998</ele>
        <time>2020-01-21T09:29:00Z</time>
      </trkpt>
      <trkpt lat="45.0044" lon="6.4499">
        <ele>1997</ele>
        <time>2020-01-21T09:29:04Z</time>
      </trkpt>
      <trkpt lat="45.00439" lon="6.44987">
        <ele>1997</ele>
        <time>2020-01-21T09:29:07Z</time>
      </trkpt>
      <trkpt lat="45.00435" lon="6.44982">
        <ele>1997</ele>
        <time>2020-01-21T09:29:14Z</time>
      </trkpt>
      <trkpt lat="45.00434" lon="6.4498">
        <ele>1998</ele>
        <time>2020-01-21T09:29:16Z</time>
      </trkpt>
      <trkpt lat="45.00432" lon="6.44979">
        <ele>1998</ele>
        <time>2020-01-21T09:29:19Z</time>
      </trkpt>
      <trkpt lat="45.00432" lon="6.44976">
        <ele>1999</ele>
        <time>2020-01-21T09:29:22Z</time>
      </trkpt>
      <trkpt lat="45.0043" lon="6.44974">
        <ele>2000</ele>
        <time>2020-01-21T09:29:26Z</time>
      </trkpt>
      <trkpt lat="45.00423" lon="6.44967">
        <ele>2004</ele>
        <time>2020-01-21T09:29:42Z</time>
      </trkpt>
      <trkpt lat="45.00421" lon="6.44965">
        <ele>2005</ele>
        <time>2020-01-21T09:29:45Z</time>
      </trkpt>
      <trkpt lat="45.00413" lon="6.44957">
        <ele>2008</ele>
        <time>2020-01-21T09:29:58Z</time>
      </trkpt>
      <trkpt lat="45.00411" lon="6.44956">
        <ele>2009</ele>
        <time>2020-01-21T09:30:01Z</time>
      </trkpt>
      <trkpt lat="45.0041" lon="6.44954">
        <ele>2010</ele>
        <time>2020-01-21T09:30:04Z</time>
      </trkpt>
      <trkpt lat="45.00408" lon="6.44953">
        <ele>2009</ele>
        <time>2020-01-21T09:30:09Z</time>
      </trkpt>
      <trkpt lat="45.00406" lon="6.44951">
        <ele>2009</ele>
        <time>2020-01-21T09:30:13Z</time>
      </trkpt>
      <trkpt lat="45.00405" lon="6.44949">
        <ele>2009</ele>
        <time>2020-01-21T09:30:16Z</time>
      </trkpt>
      <trkpt lat="45.00394" lon="6.44938">
        <ele>2014</ele>
        <time>2020-01-21T09:30:37Z</time>
      </trkpt>
      <trkpt lat="45.00392" lon="6.44939">
        <ele>2015</ele>
        <time>2020-01-21T09:30:42Z</time>
      </trkpt>
      <trkpt lat="45.00391" lon="6.44936">
        <ele>2016</ele>
        <time>2020-01-21T09:30:47Z</time>
      </trkpt>
      <trkpt lat="45.00393" lon="6.44924">
        <ele>2016</ele>
        <time>2020-01-21T09:31:02Z</time>
      </trkpt>
      <trkpt lat="45.00397" lon="6.44923">
        <ele>2017</ele>
        <time>2020-01-21T09:31:07Z</time>
      </trkpt>
      <trkpt lat="45.00399" lon="6.4492">
        <ele>2018</ele>
        <time>2020-01-21T09:31:11Z</time>
      </trkpt>
      <trkpt lat="45.004" lon="6.44918">
        <ele>2018</ele>
        <time>2020-01-21T09:31:15Z</time>
      </trkpt>
      <trkpt lat="45.00402" lon="6.44914">
        <ele>2019</ele>
        <time>2020-01-21T09:31:19Z</time>
      </trkpt>
      <trkpt lat="45.00408" lon="6.4491">
        <ele>2024</ele>
        <time>2020-01-21T09:31:33Z</time>
      </trkpt>
      <trkpt lat="45.0041" lon="6.44907">
        <ele>2025</ele>
        <time>2020-01-21T09:31:35Z</time>
      </trkpt>
      <trkpt lat="45.00413" lon="6.44907">
        <ele>2026</ele>
        <time>2020-01-21T09:31:39Z</time>
      </trkpt>
      <trkpt lat="45.00413" lon="6.44904">
        <ele>2027</ele>
        <time>2020-01-21T09:31:46Z</time>
      </trkpt>
      <trkpt lat="45.00407" lon="6.44896">
        <ele>2026</ele>
        <time>2020-01-21T09:31:57Z</time>
      </trkpt>
      <trkpt lat="45.00403" lon="6.4489">
        <ele>2027</ele>
        <time>2020-01-21T09:32:08Z</time>
      </trkpt>
      <trkpt lat="45.00396" lon="6.44882">
        <ele>2030</ele>
        <time>2020-01-21T09:32:25Z</time>
      </trkpt>
      <trkpt lat="45.00391" lon="6.4488">
        <ele>2030</ele>
        <time>2020-01-21T09:32:32Z</time>
      </trkpt>
      <trkpt lat="45.0039" lon="6.44879">
        <ele>2031</ele>
        <time>2020-01-21T09:32:36Z</time>
      </trkpt>
      <trkpt lat="45.00387" lon="6.44877">
        <ele>2032</ele>
        <time>2020-01-21T09:32:40Z</time>
      </trkpt>
      <trkpt lat="45.00386" lon="6.44875">
        <ele>2033</ele>
        <time>2020-01-21T09:32:45Z</time>
      </trkpt>
      <trkpt lat="45.00384" lon="6.44873">
        <ele>2033</ele>
        <time>2020-01-21T09:32:49Z</time>
      </trkpt>
      <trkpt lat="45.0038" lon="6.44871">
        <ele>2034</ele>
        <time>2020-01-21T09:32:56Z</time>
      </trkpt>
      <trkpt lat="45.00379" lon="6.4487">
        <ele>2034</ele>
        <time>2020-01-21T09:32:59Z</time>
      </trkpt>
      <trkpt lat="45.00376" lon="6.44866">
        <ele>2036</ele>
        <time>2020-01-21T09:33:05Z</time>
      </trkpt>
      <trkpt lat="45.00374" lon="6.44865">
        <ele>2037</ele>
        <time>2020-01-21T09:33:09Z</time>
      </trkpt>
      <trkpt lat="45.00372" lon="6.44863">
        <ele>2037</ele>
        <time>2020-01-21T09:33:12Z</time>
      </trkpt>
      <trkpt lat="45.00369" lon="6.44861">
        <ele>2039</ele>
        <time>2020-01-21T09:33:18Z</time>
      </trkpt>
      <trkpt lat="45.00368" lon="6.44859">
        <ele>2039</ele>
        <time>2020-01-21T09:33:21Z</time>
      </trkpt>
      <trkpt lat="45.00366" lon="6.44858">
        <ele>2039</ele>
        <time>2020-01-21T09:33:24Z</time>
      </trkpt>
      <trkpt lat="45.00364" lon="6.44858">
        <ele>2040</ele>
        <time>2020-01-21T09:33:28Z</time>
      </trkpt>
      <trkpt lat="45.00362" lon="6.44856">
        <ele>2041</ele>
        <time>2020-01-21T09:33:31Z</time>
      </trkpt>
      <trkpt lat="45.00359" lon="6.44854">
        <ele>2044</ele>
        <time>2020-01-21T09:33:39Z</time>
      </trkpt>
      <trkpt lat="45.00357" lon="6.44852">
        <ele>2044</ele>
        <time>2020-01-21T09:33:42Z</time>
      </trkpt>
      <trkpt lat="45.00355" lon="6.4485">
        <ele>2045</ele>
        <time>2020-01-21T09:33:52Z</time>
      </trkpt>
      <trkpt lat="45.00353" lon="6.44848">
        <ele>2045</ele>
        <time>2020-01-21T09:33:55Z</time>
      </trkpt>
      <trkpt lat="45.00351" lon="6.44846">
        <ele>2046</ele>
        <time>2020-01-21T09:33:57Z</time>
      </trkpt>
      <trkpt lat="45.0035" lon="6.44845">
        <ele>2047</ele>
        <time>2020-01-21T09:34:00Z</time>
      </trkpt>
      <trkpt lat="45.00349" lon="6.44843">
        <ele>2047</ele>
        <time>2020-01-21T09:34:03Z</time>
      </trkpt>
      <trkpt lat="45.00345" lon="6.4484">
        <ele>2047</ele>
        <time>2020-01-21T09:34:10Z</time>
      </trkpt>
      <trkpt lat="45.00342" lon="6.44835">
        <ele>2050</ele>
        <time>2020-01-21T09:34:18Z</time>
      </trkpt>
      <trkpt lat="45.0034" lon="6.44833">
        <ele>2050</ele>
        <time>2020-01-21T09:34:21Z</time>
      </trkpt>
      <trkpt lat="45.00339" lon="6.44832">
        <ele>2050</ele>
        <time>2020-01-21T09:34:23Z</time>
      </trkpt>
      <trkpt lat="45.00337" lon="6.4483">
        <ele>2051</ele>
        <time>2020-01-21T09:34:27Z</time>
      </trkpt>
      <trkpt lat="45.00334" lon="6.44826">
        <ele>2052</ele>
        <time>2020-01-21T09:34:34Z</time>
      </trkpt>
      <trkpt lat="45.00332" lon="6.44826">
        <ele>2052</ele>
        <time>2020-01-21T09:34:37Z</time>
      </trkpt>
      <trkpt lat="45.0033" lon="6.44826">
        <ele>2053</ele>
        <time>2020-01-21T09:34:40Z</time>
      </trkpt>
      <trkpt lat="45.00328" lon="6.44825">
        <ele>2054</ele>
        <time>2020-01-21T09:34:44Z</time>
      </trkpt>
      <trkpt lat="45.00326" lon="6.44825">
        <ele>2054</ele>
        <time>2020-01-21T09:34:48Z</time>
      </trkpt>
      <trkpt lat="45.00324" lon="6.44824">
        <ele>2055</ele>
        <time>2020-01-21T09:34:51Z</time>
      </trkpt>
      <trkpt lat="45.00321" lon="6.44822">
        <ele>2057</ele>
        <time>2020-01-21T09:34:57Z</time>
      </trkpt>
      <trkpt lat="45.00317" lon="6.44822">
        <ele>2058</ele>
        <time>2020-01-21T09:35:07Z</time>
      </trkpt>
      <trkpt lat="45.00315" lon="6.44821">
        <ele>2059</ele>
        <time>2020-01-21T09:35:10Z</time>
      </trkpt>
      <trkpt lat="45.00311" lon="6.44817">
        <ele>2061</ele>
        <time>2020-01-21T09:35:19Z</time>
      </trkpt>
      <trkpt lat="45.00309" lon="6.44815">
        <ele>2061</ele>
        <time>2020-01-21T09:35:23Z</time>
      </trkpt>
      <trkpt lat="45.0031" lon="6.44812">
        <ele>2062</ele>
        <time>2020-01-21T09:35:27Z</time>
      </trkpt>
      <trkpt lat="45.0031" lon="6.44809">
        <ele>2062</ele>
        <time>2020-01-21T09:35:30Z</time>
      </trkpt>
      <trkpt lat="45.00311" lon="6.44807">
        <ele>2063</ele>
        <time>2020-01-21T09:35:33Z</time>
      </trkpt>
      <trkpt lat="45.00311" lon="6.44801">
        <ele>2065</ele>
        <time>2020-01-21T09:35:41Z</time>
      </trkpt>
      <trkpt lat="45.0031" lon="6.44799">
        <ele>2065</ele>
        <time>2020-01-21T09:35:44Z</time>
      </trkpt>
      <trkpt lat="45.0031" lon="6.44783">
        <ele>2067</ele>
        <time>2020-01-21T09:36:06Z</time>
      </trkpt>
      <trkpt lat="45.0031" lon="6.44778">
        <ele>2069</ele>
        <time>2020-01-21T09:36:13Z</time>
      </trkpt>
      <trkpt lat="45.0031" lon="6.44775">
        <ele>2069</ele>
        <time>2020-01-21T09:36:17Z</time>
      </trkpt>
      <trkpt lat="45.0031" lon="6.44772">
        <ele>2070</ele>
        <time>2020-01-21T09:36:20Z</time>
      </trkpt>
      <trkpt lat="45.00308" lon="6.44769">
        <ele>2070</ele>
        <time>2020-01-21T09:36:25Z</time>
      </trkpt>
      <trkpt lat="45.00307" lon="6.44766">
        <ele>2071</ele>
        <time>2020-01-21T09:36:29Z</time>
      </trkpt>
      <trkpt lat="45.00305" lon="6.44765">
        <ele>2071</ele>
        <time>2020-01-21T09:36:32Z</time>
      </trkpt>
      <trkpt lat="45.00297" lon="6.4476">
        <ele>2075</ele>
        <time>2020-01-21T09:36:48Z</time>
      </trkpt>
      <trkpt lat="45.00295" lon="6.44759">
        <ele>2076</ele>
        <time>2020-01-21T09:36:53Z</time>
      </trkpt>
      <trkpt lat="45.00293" lon="6.44758">
        <ele>2076</ele>
        <time>2020-01-21T09:36:57Z</time>
      </trkpt>
      <trkpt lat="45.00292" lon="6.44757">
        <ele>2076</ele>
        <time>2020-01-21T09:37:00Z</time>
      </trkpt>
      <trkpt lat="45.0029" lon="6.44756">
        <ele>2077</ele>
        <time>2020-01-21T09:37:04Z</time>
      </trkpt>
      <trkpt lat="45.00289" lon="6.44754">
        <ele>2077</ele>
        <time>2020-01-21T09:37:10Z</time>
      </trkpt>
      <trkpt lat="45.0029" lon="6.44747">
        <ele>2078</ele>
        <time>2020-01-21T09:37:17Z</time>
      </trkpt>
      <trkpt lat="45.0029" lon="6.44745">
        <ele>2079</ele>
        <time>2020-01-21T09:37:19Z</time>
      </trkpt>
      <trkpt lat="45.0029" lon="6.44739">
        <ele>2081</ele>
        <time>2020-01-21T09:37:29Z</time>
      </trkpt>
      <trkpt lat="45.00291" lon="6.44737">
        <ele>2081</ele>
        <time>2020-01-21T09:37:34Z</time>
      </trkpt>
      <trkpt lat="45.00291" lon="6.44734">
        <ele>2082</ele>
        <time>2020-01-21T09:37:37Z</time>
      </trkpt>
      <trkpt lat="45.00291" lon="6.44731">
        <ele>2082</ele>
        <time>2020-01-21T09:37:41Z</time>
      </trkpt>
      <trkpt lat="45.00289" lon="6.44723">
        <ele>2084</ele>
        <time>2020-01-21T09:37:52Z</time>
      </trkpt>
      <trkpt lat="45.00287" lon="6.44721">
        <ele>2084</ele>
        <time>2020-01-21T09:37:56Z</time>
      </trkpt>
      <trkpt lat="45.00279" lon="6.44716">
        <ele>2087</ele>
        <time>2020-01-21T09:38:21Z</time>
      </trkpt>
      <trkpt lat="45.00278" lon="6.44714">
        <ele>2088</ele>
        <time>2020-01-21T09:38:30Z</time>
      </trkpt>
      <trkpt lat="45.00277" lon="6.44712">
        <ele>2089</ele>
        <time>2020-01-21T09:38:33Z</time>
      </trkpt>
      <trkpt lat="45.00278" lon="6.44709">
        <ele>2089</ele>
        <time>2020-01-21T09:39:03Z</time>
      </trkpt>
      <trkpt lat="45.00278" lon="6.44706">
        <ele>2089</ele>
        <time>2020-01-21T09:39:09Z</time>
      </trkpt>
      <trkpt lat="45.0028" lon="6.44704">
        <ele>2090</ele>
        <time>2020-01-21T09:39:12Z</time>
      </trkpt>
      <trkpt lat="45.00285" lon="6.4469">
        <ele>2095</ele>
        <time>2020-01-21T09:39:34Z</time>
      </trkpt>
      <trkpt lat="45.00283" lon="6.44684">
        <ele>2098</ele>
        <time>2020-01-21T09:39:43Z</time>
      </trkpt>
      <trkpt lat="45.00282" lon="6.44682">
        <ele>2098</ele>
        <time>2020-01-21T09:39:49Z</time>
      </trkpt>
      <trkpt lat="45.0028" lon="6.44681">
        <ele>2098</ele>
        <time>2020-01-21T09:39:53Z</time>
      </trkpt>
      <trkpt lat="45.00278" lon="6.44677">
        <ele>2098</ele>
        <time>2020-01-21T09:39:59Z</time>
      </trkpt>
      <trkpt lat="45.00277" lon="6.44674">
        <ele>2099</ele>
        <time>2020-01-21T09:40:04Z</time>
      </trkpt>
      <trkpt lat="45.00275" lon="6.44671">
        <ele>2100</ele>
        <time>2020-01-21T09:40:08Z</time>
      </trkpt>
      <trkpt lat="45.00273" lon="6.44666">
        <ele>2102</ele>
        <time>2020-01-21T09:40:17Z</time>
      </trkpt>
      <trkpt lat="45.00273" lon="6.44663">
        <ele>2102</ele>
        <time>2020-01-21T09:40:22Z</time>
      </trkpt>
      <trkpt lat="45.00279" lon="6.44654">
        <ele>2106</ele>
        <time>2020-01-21T09:40:35Z</time>
      </trkpt>
      <trkpt lat="45.0028" lon="6.44652">
        <ele>2106</ele>
        <time>2020-01-21T09:40:39Z</time>
      </trkpt>
      <trkpt lat="45.00281" lon="6.4465">
        <ele>2106</ele>
        <time>2020-01-21T09:40:43Z</time>
      </trkpt>
      <trkpt lat="45.00281" lon="6.44647">
        <ele>2107</ele>
        <time>2020-01-21T09:40:47Z</time>
      </trkpt>
      <trkpt lat="45.0028" lon="6.44643">
        <ele>2109</ele>
        <time>2020-01-21T09:40:54Z</time>
      </trkpt>
      <trkpt lat="45.00273" lon="6.44623">
        <ele>2114</ele>
        <time>2020-01-21T09:41:24Z</time>
      </trkpt>
      <trkpt lat="45.00272" lon="6.4462">
        <ele>2116</ele>
        <time>2020-01-21T09:41:28Z</time>
      </trkpt>
      <trkpt lat="45.00272" lon="6.44617">
        <ele>2117</ele>
        <time>2020-01-21T09:41:32Z</time>
      </trkpt>
      <trkpt lat="45.0027" lon="6.44609">
        <ele>2118</ele>
        <time>2020-01-21T09:41:44Z</time>
      </trkpt>
      <trkpt lat="45.00271" lon="6.44606">
        <ele>2118</ele>
        <time>2020-01-21T09:41:48Z</time>
      </trkpt>
      <trkpt lat="45.0027" lon="6.446">
        <ele>2119</ele>
        <time>2020-01-21T09:41:55Z</time>
      </trkpt>
      <trkpt lat="45.00271" lon="6.44598">
        <ele>2119</ele>
        <time>2020-01-21T09:41:59Z</time>
      </trkpt>
      <trkpt lat="45.00272" lon="6.44596">
        <ele>2120</ele>
        <time>2020-01-21T09:42:03Z</time>
      </trkpt>
      <trkpt lat="45.00275" lon="6.44593">
        <ele>2121</ele>
        <time>2020-01-21T09:42:10Z</time>
      </trkpt>
      <trkpt lat="45.00277" lon="6.44591">
        <ele>2123</ele>
        <time>2020-01-21T09:42:20Z</time>
      </trkpt>
      <trkpt lat="45.00284" lon="6.44583">
        <ele>2126</ele>
        <time>2020-01-21T09:42:36Z</time>
      </trkpt>
      <trkpt lat="45.00285" lon="6.44581">
        <ele>2127</ele>
        <time>2020-01-21T09:42:39Z</time>
      </trkpt>
      <trkpt lat="45.00285" lon="6.44578">
        <ele>2127</ele>
        <time>2020-01-21T09:42:43Z</time>
      </trkpt>
      <trkpt lat="45.00283" lon="6.44576">
        <ele>2128</ele>
        <time>2020-01-21T09:42:47Z</time>
      </trkpt>
      <trkpt lat="45.0028" lon="6.44567">
        <ele>2132</ele>
        <time>2020-01-21T09:43:02Z</time>
      </trkpt>
      <trkpt lat="45.00279" lon="6.4456">
        <ele>2133</ele>
        <time>2020-01-21T09:43:11Z</time>
      </trkpt>
      <trkpt lat="45.00279" lon="6.44558">
        <ele>2133</ele>
        <time>2020-01-21T09:43:14Z</time>
      </trkpt>
      <trkpt lat="45.00278" lon="6.44555">
        <ele>2134</ele>
        <time>2020-01-21T09:43:24Z</time>
      </trkpt>
      <trkpt lat="45.00278" lon="6.44552">
        <ele>2134</ele>
        <time>2020-01-21T09:43:28Z</time>
      </trkpt>
      <trkpt lat="45.00275" lon="6.44546">
        <ele>2135</ele>
        <time>2020-01-21T09:43:35Z</time>
      </trkpt>
      <trkpt lat="45.00273" lon="6.44543">
        <ele>2135</ele>
        <time>2020-01-21T09:43:41Z</time>
      </trkpt>
      <trkpt lat="45.00271" lon="6.44541">
        <ele>2136</ele>
        <time>2020-01-21T09:43:45Z</time>
      </trkpt>
      <trkpt lat="45.00273" lon="6.44535">
        <ele>2138</ele>
        <time>2020-01-21T09:43:53Z</time>
      </trkpt>
      <trkpt lat="45.00275" lon="6.44533">
        <ele>2140</ele>
        <time>2020-01-21T09:43:57Z</time>
      </trkpt>
      <trkpt lat="45.00279" lon="6.44529">
        <ele>2142</ele>
        <time>2020-01-21T09:44:06Z</time>
      </trkpt>
      <trkpt lat="45.00281" lon="6.44528">
        <ele>2143</ele>
        <time>2020-01-21T09:44:12Z</time>
      </trkpt>
      <trkpt lat="45.00283" lon="6.44526">
        <ele>2144</ele>
        <time>2020-01-21T09:44:28Z</time>
      </trkpt>
      <trkpt lat="45.00283" lon="6.44523">
        <ele>2144</ele>
        <time>2020-01-21T09:44:32Z</time>
      </trkpt>
      <trkpt lat="45.00282" lon="6.4452">
        <ele>2146</ele>
        <time>2020-01-21T09:44:41Z</time>
      </trkpt>
      <trkpt lat="45.00276" lon="6.44507">
        <ele>2149</ele>
        <time>2020-01-21T09:45:14Z</time>
      </trkpt>
      <trkpt lat="45.00275" lon="6.44504">
        <ele>2150</ele>
        <time>2020-01-21T09:45:18Z</time>
      </trkpt>
      <trkpt lat="45.00272" lon="6.44499">
        <ele>2151</ele>
        <time>2020-01-21T09:45:25Z</time>
      </trkpt>
      <trkpt lat="45.00271" lon="6.44496">
        <ele>2150</ele>
        <time>2020-01-21T09:45:28Z</time>
      </trkpt>
      <trkpt lat="45.00268" lon="6.44483">
        <ele>2152</ele>
        <time>2020-01-21T09:45:41Z</time>
      </trkpt>
      <trkpt lat="45.00267" lon="6.44475">
        <ele>2153</ele>
        <time>2020-01-21T09:45:51Z</time>
      </trkpt>
      <trkpt lat="45.00265" lon="6.44473">
        <ele>2154</ele>
        <time>2020-01-21T09:45:53Z</time>
      </trkpt>
      <trkpt lat="45.00264" lon="6.44471">
        <ele>2154</ele>
        <time>2020-01-21T09:45:55Z</time>
      </trkpt>
      <trkpt lat="45.00263" lon="6.44468">
        <ele>2155</ele>
        <time>2020-01-21T09:45:59Z</time>
      </trkpt>
      <trkpt lat="45.00263" lon="6.44464">
        <ele>2156</ele>
        <time>2020-01-21T09:46:04Z</time>
      </trkpt>
      <trkpt lat="45.00261" lon="6.44457">
        <ele>2158</ele>
        <time>2020-01-21T09:46:13Z</time>
      </trkpt>
      <trkpt lat="45.0026" lon="6.44453">
        <ele>2159</ele>
        <time>2020-01-21T09:46:18Z</time>
      </trkpt>
      <trkpt lat="45.00259" lon="6.4445">
        <ele>2160</ele>
        <time>2020-01-21T09:46:22Z</time>
      </trkpt>
      <trkpt lat="45.00254" lon="6.44436">
        <ele>2162</ele>
        <time>2020-01-21T09:46:38Z</time>
      </trkpt>
      <trkpt lat="45.00253" lon="6.44433">
        <ele>2163</ele>
        <time>2020-01-21T09:46:45Z</time>
      </trkpt>
      <trkpt lat="45.00251" lon="6.44421">
        <ele>2165</ele>
        <time>2020-01-21T09:46:58Z</time>
      </trkpt>
      <trkpt lat="45.00249" lon="6.44415">
        <ele>2166</ele>
        <time>2020-01-21T09:47:05Z</time>
      </trkpt>
      <trkpt lat="45.00248" lon="6.4441">
        <ele>2166</ele>
        <time>2020-01-21T09:47:10Z</time>
      </trkpt>
      <trkpt lat="45.00246" lon="6.44408">
        <ele>2167</ele>
        <time>2020-01-21T09:47:14Z</time>
      </trkpt>
      <trkpt lat="45.00245" lon="6.44405">
        <ele>2168</ele>
        <time>2020-01-21T09:47:17Z</time>
      </trkpt>
      <trkpt lat="45.00246" lon="6.44401">
        <ele>2168</ele>
        <time>2020-01-21T09:47:20Z</time>
      </trkpt>
      <trkpt lat="45.00245" lon="6.44397">
        <ele>2169</ele>
        <time>2020-01-21T09:47:24Z</time>
      </trkpt>
      <trkpt lat="45.00244" lon="6.44394">
        <ele>2170</ele>
        <time>2020-01-21T09:47:28Z</time>
      </trkpt>
      <trkpt lat="45.00242" lon="6.44392">
        <ele>2170</ele>
        <time>2020-01-21T09:47:31Z</time>
      </trkpt>
      <trkpt lat="45.00237" lon="6.44365">
        <ele>2175</ele>
        <time>2020-01-21T09:48:01Z</time>
      </trkpt>
      <trkpt lat="45.00235" lon="6.44362">
        <ele>2175</ele>
        <time>2020-01-21T09:48:05Z</time>
      </trkpt>
      <trkpt lat="45.00235" lon="6.44359">
        <ele>2177</ele>
        <time>2020-01-21T09:48:08Z</time>
      </trkpt>
      <trkpt lat="45.00235" lon="6.44355">
        <ele>2177</ele>
        <time>2020-01-21T09:48:12Z</time>
      </trkpt>
      <trkpt lat="45.00235" lon="6.44351">
        <ele>2178</ele>
        <time>2020-01-21T09:48:17Z</time>
      </trkpt>
      <trkpt lat="45.00233" lon="6.44349">
        <ele>2178</ele>
        <time>2020-01-21T09:48:21Z</time>
      </trkpt>
      <trkpt lat="45.00233" lon="6.44345">
        <ele>2178</ele>
        <time>2020-01-21T09:48:24Z</time>
      </trkpt>
      <trkpt lat="45.00232" lon="6.44342">
        <ele>2178</ele>
        <time>2020-01-21T09:48:27Z</time>
      </trkpt>
      <trkpt lat="45.00231" lon="6.44326">
        <ele>2180</ele>
        <time>2020-01-21T09:48:43Z</time>
      </trkpt>
      <trkpt lat="45.00228" lon="6.44319">
        <ele>2181</ele>
        <time>2020-01-21T09:48:50Z</time>
      </trkpt>
      <trkpt lat="45.00228" lon="6.44316">
        <ele>2182</ele>
        <time>2020-01-21T09:48:53Z</time>
      </trkpt>
      <trkpt lat="45.0023" lon="6.44313">
        <ele>2182</ele>
        <time>2020-01-21T09:48:58Z</time>
      </trkpt>
      <trkpt lat="45.00227" lon="6.44307">
        <ele>2184</ele>
        <time>2020-01-21T09:49:05Z</time>
      </trkpt>
      <trkpt lat="45.00225" lon="6.44304">
        <ele>2184</ele>
        <time>2020-01-21T09:49:09Z</time>
      </trkpt>
      <trkpt lat="45.00224" lon="6.44301">
        <ele>2185</ele>
        <time>2020-01-21T09:49:12Z</time>
      </trkpt>
      <trkpt lat="45.00223" lon="6.44297">
        <ele>2186</ele>
        <time>2020-01-21T09:49:17Z</time>
      </trkpt>
      <trkpt lat="45.00222" lon="6.44294">
        <ele>2186</ele>
        <time>2020-01-21T09:49:20Z</time>
      </trkpt>
      <trkpt lat="45.00222" lon="6.4429">
        <ele>2188</ele>
        <time>2020-01-21T09:49:24Z</time>
      </trkpt>
      <trkpt lat="45.00222" lon="6.44287">
        <ele>2190</ele>
        <time>2020-01-21T09:49:55Z</time>
      </trkpt>
      <trkpt lat="45.00221" lon="6.44282">
        <ele>2192</ele>
        <time>2020-01-21T09:49:59Z</time>
      </trkpt>
      <trkpt lat="45.00219" lon="6.44279">
        <ele>2197</ele>
        <time>2020-01-21T09:50:10Z</time>
      </trkpt>
      <trkpt lat="45.00223" lon="6.44269">
        <ele>2194</ele>
        <time>2020-01-21T09:50:30Z</time>
      </trkpt>
      <trkpt lat="45.00228" lon="6.44258">
        <ele>2194</ele>
        <time>2020-01-21T09:50:46Z</time>
      </trkpt>
      <trkpt lat="45.0023" lon="6.44255">
        <ele>2195</ele>
        <time>2020-01-21T09:50:51Z</time>
      </trkpt>
      <trkpt lat="45.00235" lon="6.4423">
        <ele>2198</ele>
        <time>2020-01-21T09:51:16Z</time>
      </trkpt>
      <trkpt lat="45.00235" lon="6.44227">
        <ele>2198</ele>
        <time>2020-01-21T09:51:20Z</time>
      </trkpt>
      <trkpt lat="45.00237" lon="6.44222">
        <ele>2199</ele>
        <time>2020-01-21T09:51:26Z</time>
      </trkpt>
      <trkpt lat="45.00238" lon="6.44218">
        <ele>2200</ele>
        <time>2020-01-21T09:51:29Z</time>
      </trkpt>
      <trkpt lat="45.00239" lon="6.44214">
        <ele>2200</ele>
        <time>2020-01-21T09:51:33Z</time>
      </trkpt>
      <trkpt lat="45.00238" lon="6.4421">
        <ele>2201</ele>
        <time>2020-01-21T09:51:35Z</time>
      </trkpt>
      <trkpt lat="45.00238" lon="6.44207">
        <ele>2201</ele>
        <time>2020-01-21T09:51:39Z</time>
      </trkpt>
      <trkpt lat="45.0024" lon="6.442">
        <ele>2203</ele>
        <time>2020-01-21T09:51:48Z</time>
      </trkpt>
      <trkpt lat="45.00241" lon="6.44193">
        <ele>2204</ele>
        <time>2020-01-21T09:51:56Z</time>
      </trkpt>
      <trkpt lat="45.0024" lon="6.44188">
        <ele>2204</ele>
        <time>2020-01-21T09:52:00Z</time>
      </trkpt>
      <trkpt lat="45.0024" lon="6.44184">
        <ele>2204</ele>
        <time>2020-01-21T09:52:05Z</time>
      </trkpt>
      <trkpt lat="45.00242" lon="6.44181">
        <ele>2206</ele>
        <time>2020-01-21T09:52:11Z</time>
      </trkpt>
      <trkpt lat="45.00242" lon="6.44178">
        <ele>2208</ele>
        <time>2020-01-21T09:52:14Z</time>
      </trkpt>
      <trkpt lat="45.00242" lon="6.44174">
        <ele>2208</ele>
        <time>2020-01-21T09:52:17Z</time>
      </trkpt>
      <trkpt lat="45.00243" lon="6.44172">
        <ele>2209</ele>
        <time>2020-01-21T09:52:20Z</time>
      </trkpt>
      <trkpt lat="45.00243" lon="6.44169">
        <ele>2211</ele>
        <time>2020-01-21T09:52:25Z</time>
      </trkpt>
      <trkpt lat="45.00241" lon="6.44166">
        <ele>2211</ele>
        <time>2020-01-21T09:52:28Z</time>
      </trkpt>
      <trkpt lat="45.0024" lon="6.44163">
        <ele>2212</ele>
        <time>2020-01-21T09:52:32Z</time>
      </trkpt>
      <trkpt lat="45.00239" lon="6.44159">
        <ele>2213</ele>
        <time>2020-01-21T09:52:35Z</time>
      </trkpt>
      <trkpt lat="45.00233" lon="6.44133">
        <ele>2211</ele>
        <time>2020-01-21T09:53:05Z</time>
      </trkpt>
      <trkpt lat="45.00234" lon="6.4413">
        <ele>2211</ele>
        <time>2020-01-21T09:53:08Z</time>
      </trkpt>
      <trkpt lat="45.00234" lon="6.4411">
        <ele>2213</ele>
        <time>2020-01-21T09:53:23Z</time>
      </trkpt>
      <trkpt lat="45.00235" lon="6.44106">
        <ele>2213</ele>
        <time>2020-01-21T09:53:27Z</time>
      </trkpt>
      <trkpt lat="45.00235" lon="6.441">
        <ele>2213</ele>
        <time>2020-01-21T09:53:32Z</time>
      </trkpt>
      <trkpt lat="45.00233" lon="6.44097">
        <ele>2214</ele>
        <time>2020-01-21T09:53:35Z</time>
      </trkpt>
      <trkpt lat="45.00232" lon="6.44093">
        <ele>2214</ele>
        <time>2020-01-21T09:53:39Z</time>
      </trkpt>
      <trkpt lat="45.00231" lon="6.44086">
        <ele>2215</ele>
        <time>2020-01-21T09:53:45Z</time>
      </trkpt>
      <trkpt lat="45.0023" lon="6.44081">
        <ele>2215</ele>
        <time>2020-01-21T09:53:48Z</time>
      </trkpt>
      <trkpt lat="45.00229" lon="6.44077">
        <ele>2215</ele>
        <time>2020-01-21T09:53:51Z</time>
      </trkpt>
      <trkpt lat="45.00228" lon="6.44073">
        <ele>2214</ele>
        <time>2020-01-21T09:53:56Z</time>
      </trkpt>
      <trkpt lat="45.00227" lon="6.4407">
        <ele>2214</ele>
        <time>2020-01-21T09:54:02Z</time>
      </trkpt>
      <trkpt lat="45.00222" lon="6.44058">
        <ele>2217</ele>
        <time>2020-01-21T09:54:14Z</time>
      </trkpt>
      <trkpt lat="45.0022" lon="6.44054">
        <ele>2217</ele>
        <time>2020-01-21T09:54:17Z</time>
      </trkpt>
      <trkpt lat="45.0022" lon="6.44045">
        <ele>2217</ele>
        <time>2020-01-21T09:54:24Z</time>
      </trkpt>
      <trkpt lat="45.00221" lon="6.44042">
        <ele>2217</ele>
        <time>2020-01-21T09:54:27Z</time>
      </trkpt>
      <trkpt lat="45.00221" lon="6.44039">
        <ele>2216</ele>
        <time>2020-01-21T09:54:30Z</time>
      </trkpt>
      <trkpt lat="45.00221" lon="6.44026">
        <ele>2218</ele>
        <time>2020-01-21T09:54:40Z</time>
      </trkpt>
      <trkpt lat="45.0022" lon="6.44023">
        <ele>2219</ele>
        <time>2020-01-21T09:54:43Z</time>
      </trkpt>
      <trkpt lat="45.0022" lon="6.44006">
        <ele>2220</ele>
        <time>2020-01-21T09:54:57Z</time>
      </trkpt>
      <trkpt lat="45.00222" lon="6.44002">
        <ele>2220</ele>
        <time>2020-01-21T09:55:00Z</time>
      </trkpt>
      <trkpt lat="45.00224" lon="6.43999">
        <ele>2220</ele>
        <time>2020-01-21T09:55:03Z</time>
      </trkpt>
      <trkpt lat="45.00224" lon="6.43995">
        <ele>2220</ele>
        <time>2020-01-21T09:55:06Z</time>
      </trkpt>
      <trkpt lat="45.00225" lon="6.43986">
        <ele>2219</ele>
        <time>2020-01-21T09:55:11Z</time>
      </trkpt>
      <trkpt lat="45.00227" lon="6.43982">
        <ele>2220</ele>
        <time>2020-01-21T09:55:15Z</time>
      </trkpt>
      <trkpt lat="45.00227" lon="6.43977">
        <ele>2219</ele>
        <time>2020-01-21T09:55:19Z</time>
      </trkpt>
      <trkpt lat="45.00232" lon="6.43956">
        <ele>2219</ele>
        <time>2020-01-21T09:55:41Z</time>
      </trkpt>
      <trkpt lat="45.00236" lon="6.43943">
        <ele>2220</ele>
        <time>2020-01-21T09:55:56Z</time>
      </trkpt>
      <trkpt lat="45.00236" lon="6.4394">
        <ele>2221</ele>
        <time>2020-01-21T09:56:00Z</time>
      </trkpt>
      <trkpt lat="45.00238" lon="6.43924">
        <ele>2225</ele>
        <time>2020-01-21T09:56:19Z</time>
      </trkpt>
      <trkpt lat="45.00238" lon="6.4392">
        <ele>2226</ele>
        <time>2020-01-21T09:56:23Z</time>
      </trkpt>
      <trkpt lat="45.00241" lon="6.43905">
        <ele>2230</ele>
        <time>2020-01-21T09:56:40Z</time>
      </trkpt>
      <trkpt lat="45.00242" lon="6.43893">
        <ele>2232</ele>
        <time>2020-01-21T09:56:53Z</time>
      </trkpt>
      <trkpt lat="45.00243" lon="6.43884">
        <ele>2233</ele>
        <time>2020-01-21T09:57:00Z</time>
      </trkpt>
      <trkpt lat="45.00245" lon="6.43881">
        <ele>2234</ele>
        <time>2020-01-21T09:57:04Z</time>
      </trkpt>
      <trkpt lat="45.00245" lon="6.43876">
        <ele>2234</ele>
        <time>2020-01-21T09:57:08Z</time>
      </trkpt>
      <trkpt lat="45.00245" lon="6.43874">
        <ele>2235</ele>
        <time>2020-01-21T09:57:18Z</time>
      </trkpt>
      <trkpt lat="45.00248" lon="6.43867">
        <ele>2234</ele>
        <time>2020-01-21T09:57:41Z</time>
      </trkpt>
      <trkpt lat="45.00247" lon="6.43863">
        <ele>2235</ele>
        <time>2020-01-21T09:57:45Z</time>
      </trkpt>
      <trkpt lat="45.00249" lon="6.43861">
        <ele>2237</ele>
        <time>2020-01-21T09:58:02Z</time>
      </trkpt>
      <trkpt lat="45.00251" lon="6.43859">
        <ele>2238</ele>
        <time>2020-01-21T09:58:59Z</time>
      </trkpt>
      <trkpt lat="45.00251" lon="6.43851">
        <ele>2238</ele>
        <time>2020-01-21T09:59:08Z</time>
      </trkpt>
      <trkpt lat="45.00252" lon="6.43846">
        <ele>2237</ele>
        <time>2020-01-21T09:59:12Z</time>
      </trkpt>
      <trkpt lat="45.00255" lon="6.43838">
        <ele>2236</ele>
        <time>2020-01-21T09:59:20Z</time>
      </trkpt>
      <trkpt lat="45.00256" lon="6.43834">
        <ele>2237</ele>
        <time>2020-01-21T09:59:24Z</time>
      </trkpt>
      <trkpt lat="45.00258" lon="6.43826">
        <ele>2237</ele>
        <time>2020-01-21T09:59:31Z</time>
      </trkpt>
      <trkpt lat="45.00258" lon="6.4382">
        <ele>2237</ele>
        <time>2020-01-21T09:59:35Z</time>
      </trkpt>
      <trkpt lat="45.00259" lon="6.43816">
        <ele>2237</ele>
        <time>2020-01-21T09:59:39Z</time>
      </trkpt>
      <trkpt lat="45.00262" lon="6.43808">
        <ele>2237</ele>
        <time>2020-01-21T09:59:46Z</time>
      </trkpt>
      <trkpt lat="45.00263" lon="6.43805">
        <ele>2237</ele>
        <time>2020-01-21T09:59:49Z</time>
      </trkpt>
      <trkpt lat="45.00265" lon="6.43802">
        <ele>2237</ele>
        <time>2020-01-21T09:59:53Z</time>
      </trkpt>
      <trkpt lat="45.00267" lon="6.43798">
        <ele>2238</ele>
        <time>2020-01-21T09:59:57Z</time>
      </trkpt>
      <trkpt lat="45.00268" lon="6.43794">
        <ele>2239</ele>
        <time>2020-01-21T10:00:01Z</time>
      </trkpt>
      <trkpt lat="45.00276" lon="6.4377">
        <ele>2245</ele>
        <time>2020-01-21T10:00:26Z</time>
      </trkpt>
      <trkpt lat="45.00277" lon="6.43766">
        <ele>2246</ele>
        <time>2020-01-21T10:00:30Z</time>
      </trkpt>
      <trkpt lat="45.00278" lon="6.43763">
        <ele>2247</ele>
        <time>2020-01-21T10:00:34Z</time>
      </trkpt>
      <trkpt lat="45.0028" lon="6.43756">
        <ele>2248</ele>
        <time>2020-01-21T10:00:43Z</time>
      </trkpt>
      <trkpt lat="45.00282" lon="6.43752">
        <ele>2249</ele>
        <time>2020-01-21T10:00:47Z</time>
      </trkpt>
      <trkpt lat="45.00284" lon="6.43745">
        <ele>2248</ele>
        <time>2020-01-21T10:00:54Z</time>
      </trkpt>
      <trkpt lat="45.00286" lon="6.43742">
        <ele>2248</ele>
        <time>2020-01-21T10:00:57Z</time>
      </trkpt>
      <trkpt lat="45.00291" lon="6.43728">
        <ele>2250</ele>
        <time>2020-01-21T10:01:13Z</time>
      </trkpt>
      <trkpt lat="45.00292" lon="6.43724">
        <ele>2250</ele>
        <time>2020-01-21T10:01:17Z</time>
      </trkpt>
      <trkpt lat="45.00295" lon="6.43703">
        <ele>2254</ele>
        <time>2020-01-21T10:01:39Z</time>
      </trkpt>
      <trkpt lat="45.00297" lon="6.437">
        <ele>2253</ele>
        <time>2020-01-21T10:01:42Z</time>
      </trkpt>
      <trkpt lat="45.00306" lon="6.43669">
        <ele>2255</ele>
        <time>2020-01-21T10:02:15Z</time>
      </trkpt>
      <trkpt lat="45.00307" lon="6.43665">
        <ele>2260</ele>
        <time>2020-01-21T10:02:19Z</time>
      </trkpt>
      <trkpt lat="45.00305" lon="6.4366">
        <ele>2259</ele>
        <time>2020-01-21T10:02:27Z</time>
      </trkpt>
      <trkpt lat="45.00307" lon="6.43652">
        <ele>2257</ele>
        <time>2020-01-21T10:02:36Z</time>
      </trkpt>
      <trkpt lat="45.00306" lon="6.43648">
        <ele>2258</ele>
        <time>2020-01-21T10:02:39Z</time>
      </trkpt>
      <trkpt lat="45.00307" lon="6.43635">
        <ele>2260</ele>
        <time>2020-01-21T10:02:55Z</time>
      </trkpt>
      <trkpt lat="45.00307" lon="6.43631">
        <ele>2261</ele>
        <time>2020-01-21T10:03:00Z</time>
      </trkpt>
      <trkpt lat="45.00306" lon="6.43627">
        <ele>2264</ele>
        <time>2020-01-21T10:03:04Z</time>
      </trkpt>
      <trkpt lat="45.00307" lon="6.43624">
        <ele>2264</ele>
        <time>2020-01-21T10:03:08Z</time>
      </trkpt>
      <trkpt lat="45.00307" lon="6.43621">
        <ele>2266</ele>
        <time>2020-01-21T10:03:13Z</time>
      </trkpt>
      <trkpt lat="45.00306" lon="6.43617">
        <ele>2266</ele>
        <time>2020-01-21T10:03:18Z</time>
      </trkpt>
      <trkpt lat="45.00307" lon="6.43614">
        <ele>2267</ele>
        <time>2020-01-21T10:03:21Z</time>
      </trkpt>
      <trkpt lat="45.0031" lon="6.43611">
        <ele>2268</ele>
        <time>2020-01-21T10:03:24Z</time>
      </trkpt>
      <trkpt lat="45.00309" lon="6.43607">
        <ele>2268</ele>
        <time>2020-01-21T10:03:27Z</time>
      </trkpt>
      <trkpt lat="45.00311" lon="6.43605">
        <ele>2267</ele>
        <time>2020-01-21T10:03:30Z</time>
      </trkpt>
      <trkpt lat="45.00319" lon="6.43582">
        <ele>2273</ele>
        <time>2020-01-21T10:04:00Z</time>
      </trkpt>
      <trkpt lat="45.00319" lon="6.43578">
        <ele>2274</ele>
        <time>2020-01-21T10:04:04Z</time>
      </trkpt>
      <trkpt lat="45.00321" lon="6.43575">
        <ele>2273</ele>
        <time>2020-01-21T10:04:07Z</time>
      </trkpt>
      <trkpt lat="45.00323" lon="6.43564">
        <ele>2276</ele>
        <time>2020-01-21T10:04:19Z</time>
      </trkpt>
      <trkpt lat="45.00322" lon="6.4356">
        <ele>2277</ele>
        <time>2020-01-21T10:04:39Z</time>
      </trkpt>
      <trkpt lat="45.00323" lon="6.43556">
        <ele>2278</ele>
        <time>2020-01-21T10:04:43Z</time>
      </trkpt>
      <trkpt lat="45.00329" lon="6.43544">
        <ele>2278</ele>
        <time>2020-01-21T10:05:18Z</time>
      </trkpt>
      <trkpt lat="45.0033" lon="6.43541">
        <ele>2278</ele>
        <time>2020-01-21T10:05:22Z</time>
      </trkpt>
      <trkpt lat="45.00333" lon="6.43532">
        <ele>2279</ele>
        <time>2020-01-21T10:05:31Z</time>
      </trkpt>
      <trkpt lat="45.00333" lon="6.43528">
        <ele>2280</ele>
        <time>2020-01-21T10:05:34Z</time>
      </trkpt>
      <trkpt lat="45.00338" lon="6.43519">
        <ele>2281</ele>
        <time>2020-01-21T10:05:46Z</time>
      </trkpt>
      <trkpt lat="45.00338" lon="6.43515">
        <ele>2282</ele>
        <time>2020-01-21T10:05:49Z</time>
      </trkpt>
      <trkpt lat="45.0034" lon="6.43512">
        <ele>2282</ele>
        <time>2020-01-21T10:05:52Z</time>
      </trkpt>
      <trkpt lat="45.00341" lon="6.43509">
        <ele>2283</ele>
        <time>2020-01-21T10:05:55Z</time>
      </trkpt>
      <trkpt lat="45.00343" lon="6.43507">
        <ele>2283</ele>
        <time>2020-01-21T10:05:58Z</time>
      </trkpt>
      <trkpt lat="45.00345" lon="6.43506">
        <ele>2288</ele>
        <time>2020-01-21T10:06:01Z</time>
      </trkpt>
      <trkpt lat="45.0035" lon="6.43495">
        <ele>2283</ele>
        <time>2020-01-21T10:06:13Z</time>
      </trkpt>
      <trkpt lat="45.00354" lon="6.43488">
        <ele>2283</ele>
        <time>2020-01-21T10:06:22Z</time>
      </trkpt>
      <trkpt lat="45.00355" lon="6.43481">
        <ele>2285</ele>
        <time>2020-01-21T10:06:31Z</time>
      </trkpt>
      <trkpt lat="45.00356" lon="6.43478">
        <ele>2286</ele>
        <time>2020-01-21T10:06:34Z</time>
      </trkpt>
      <trkpt lat="45.00357" lon="6.43476">
        <ele>2287</ele>
        <time>2020-01-21T10:06:38Z</time>
      </trkpt>
      <trkpt lat="45.00358" lon="6.43472">
        <ele>2288</ele>
        <time>2020-01-21T10:06:43Z</time>
      </trkpt>
      <trkpt lat="45.00366" lon="6.43454">
        <ele>2289</ele>
        <time>2020-01-21T10:07:01Z</time>
      </trkpt>
      <trkpt lat="45.00373" lon="6.43437">
        <ele>2292</ele>
        <time>2020-01-21T10:07:21Z</time>
      </trkpt>
      <trkpt lat="45.00374" lon="6.43434">
        <ele>2292</ele>
        <time>2020-01-21T10:07:26Z</time>
      </trkpt>
      <trkpt lat="45.0038" lon="6.43414">
        <ele>2297</ele>
        <time>2020-01-21T10:07:56Z</time>
      </trkpt>
      <trkpt lat="45.00381" lon="6.43411">
        <ele>2298</ele>
        <time>2020-01-21T10:08:00Z</time>
      </trkpt>
      <trkpt lat="45.00383" lon="6.43406">
        <ele>2299</ele>
        <time>2020-01-21T10:08:06Z</time>
      </trkpt>
      <trkpt lat="45.00383" lon="6.43402">
        <ele>2300</ele>
        <time>2020-01-21T10:08:10Z</time>
      </trkpt>
      <trkpt lat="45.00383" lon="6.43399">
        <ele>2301</ele>
        <time>2020-01-21T10:08:14Z</time>
      </trkpt>
      <trkpt lat="45.00385" lon="6.43392">
        <ele>2302</ele>
        <time>2020-01-21T10:08:23Z</time>
      </trkpt>
      <trkpt lat="45.00386" lon="6.43389">
        <ele>2302</ele>
        <time>2020-01-21T10:08:27Z</time>
      </trkpt>
      <trkpt lat="45.00386" lon="6.43385">
        <ele>2301</ele>
        <time>2020-01-21T10:08:32Z</time>
      </trkpt>
      <trkpt lat="45.00386" lon="6.43381">
        <ele>2301</ele>
        <time>2020-01-21T10:08:37Z</time>
      </trkpt>
      <trkpt lat="45.00386" lon="6.43377">
        <ele>2302</ele>
        <time>2020-01-21T10:08:41Z</time>
      </trkpt>
      <trkpt lat="45.00389" lon="6.43364">
        <ele>2306</ele>
        <time>2020-01-21T10:08:59Z</time>
      </trkpt>
      <trkpt lat="45.00388" lon="6.4336">
        <ele>2307</ele>
        <time>2020-01-21T10:09:04Z</time>
      </trkpt>
      <trkpt lat="45.00393" lon="6.43347">
        <ele>2307</ele>
        <time>2020-01-21T10:09:20Z</time>
      </trkpt>
      <trkpt lat="45.00393" lon="6.43334">
        <ele>2311</ele>
        <time>2020-01-21T10:09:56Z</time>
      </trkpt>
      <trkpt lat="45.00393" lon="6.4333">
        <ele>2310</ele>
        <time>2020-01-21T10:09:59Z</time>
      </trkpt>
      <trkpt lat="45.00396" lon="6.43323">
        <ele>2310</ele>
        <time>2020-01-21T10:10:08Z</time>
      </trkpt>
      <trkpt lat="45.00396" lon="6.4332">
        <ele>2311</ele>
        <time>2020-01-21T10:10:11Z</time>
      </trkpt>
      <trkpt lat="45.00394" lon="6.43317">
        <ele>2312</ele>
        <time>2020-01-21T10:10:17Z</time>
      </trkpt>
      <trkpt lat="45.00396" lon="6.43314">
        <ele>2313</ele>
        <time>2020-01-21T10:10:20Z</time>
      </trkpt>
      <trkpt lat="45.00396" lon="6.43311">
        <ele>2313</ele>
        <time>2020-01-21T10:10:24Z</time>
      </trkpt>
      <trkpt lat="45.00396" lon="6.43307">
        <ele>2314</ele>
        <time>2020-01-21T10:10:27Z</time>
      </trkpt>
      <trkpt lat="45.004" lon="6.43296">
        <ele>2314</ele>
        <time>2020-01-21T10:10:38Z</time>
      </trkpt>
      <trkpt lat="45.00402" lon="6.43293">
        <ele>2316</ele>
        <time>2020-01-21T10:10:42Z</time>
      </trkpt>
      <trkpt lat="45.00403" lon="6.4329">
        <ele>2316</ele>
        <time>2020-01-21T10:10:45Z</time>
      </trkpt>
      <trkpt lat="45.00405" lon="6.43288">
        <ele>2316</ele>
        <time>2020-01-21T10:10:49Z</time>
      </trkpt>
      <trkpt lat="45.00409" lon="6.43279">
        <ele>2316</ele>
        <time>2020-01-21T10:11:00Z</time>
      </trkpt>
      <trkpt lat="45.00415" lon="6.43267">
        <ele>2318</ele>
        <time>2020-01-21T10:11:17Z</time>
      </trkpt>
      <trkpt lat="45.00416" lon="6.4326">
        <ele>2318</ele>
        <time>2020-01-21T10:11:25Z</time>
      </trkpt>
      <trkpt lat="45.00417" lon="6.43257">
        <ele>2319</ele>
        <time>2020-01-21T10:11:29Z</time>
      </trkpt>
      <trkpt lat="45.00417" lon="6.43253">
        <ele>2320</ele>
        <time>2020-01-21T10:11:33Z</time>
      </trkpt>
      <trkpt lat="45.00419" lon="6.43247">
        <ele>2322</ele>
        <time>2020-01-21T10:11:42Z</time>
      </trkpt>
      <trkpt lat="45.0042" lon="6.43244">
        <ele>2322</ele>
        <time>2020-01-21T10:11:45Z</time>
      </trkpt>
      <trkpt lat="45.00421" lon="6.43241">
        <ele>2322</ele>
        <time>2020-01-21T10:11:49Z</time>
      </trkpt>
      <trkpt lat="45.00423" lon="6.43238">
        <ele>2322</ele>
        <time>2020-01-21T10:11:52Z</time>
      </trkpt>
      <trkpt lat="45.00427" lon="6.43222">
        <ele>2321</ele>
        <time>2020-01-21T10:12:22Z</time>
      </trkpt>
      <trkpt lat="45.00433" lon="6.43202">
        <ele>2324</ele>
        <time>2020-01-21T10:12:42Z</time>
      </trkpt>
      <trkpt lat="45.00435" lon="6.43199">
        <ele>2325</ele>
        <time>2020-01-21T10:12:45Z</time>
      </trkpt>
      <trkpt lat="45.00437" lon="6.43192">
        <ele>2326</ele>
        <time>2020-01-21T10:12:52Z</time>
      </trkpt>
      <trkpt lat="45.00441" lon="6.43187">
        <ele>2326</ele>
        <time>2020-01-21T10:13:00Z</time>
      </trkpt>
      <trkpt lat="45.00442" lon="6.43184">
        <ele>2326</ele>
        <time>2020-01-21T10:13:03Z</time>
      </trkpt>
      <trkpt lat="45.00445" lon="6.43178">
        <ele>2325</ele>
        <time>2020-01-21T10:13:11Z</time>
      </trkpt>
      <trkpt lat="45.0046" lon="6.43158">
        <ele>2331</ele>
        <time>2020-01-21T10:13:44Z</time>
      </trkpt>
      <trkpt lat="45.00462" lon="6.43156">
        <ele>2332</ele>
        <time>2020-01-21T10:13:49Z</time>
      </trkpt>
      <trkpt lat="45.00464" lon="6.43154">
        <ele>2333</ele>
        <time>2020-01-21T10:13:54Z</time>
      </trkpt>
      <trkpt lat="45.00465" lon="6.43152">
        <ele>2333</ele>
        <time>2020-01-21T10:13:57Z</time>
      </trkpt>
      <trkpt lat="45.00466" lon="6.43149">
        <ele>2333</ele>
        <time>2020-01-21T10:14:02Z</time>
      </trkpt>
      <trkpt lat="45.00465" lon="6.43146">
        <ele>2334</ele>
        <time>2020-01-21T10:14:09Z</time>
      </trkpt>
      <trkpt lat="45.00464" lon="6.43142">
        <ele>2334</ele>
        <time>2020-01-21T10:14:13Z</time>
      </trkpt>
      <trkpt lat="45.00463" lon="6.43139">
        <ele>2335</ele>
        <time>2020-01-21T10:14:17Z</time>
      </trkpt>
      <trkpt lat="45.00464" lon="6.43136">
        <ele>2336</ele>
        <time>2020-01-21T10:14:22Z</time>
      </trkpt>
      <trkpt lat="45.00461" lon="6.4313">
        <ele>2337</ele>
        <time>2020-01-21T10:14:31Z</time>
      </trkpt>
      <trkpt lat="45.00461" lon="6.43126">
        <ele>2339</ele>
        <time>2020-01-21T10:14:39Z</time>
      </trkpt>
      <trkpt lat="45.00458" lon="6.43123">
        <ele>2340</ele>
        <time>2020-01-21T10:14:48Z</time>
      </trkpt>
      <trkpt lat="45.00457" lon="6.43119">
        <ele>2340</ele>
        <time>2020-01-21T10:14:55Z</time>
      </trkpt>
      <trkpt lat="45.00453" lon="6.43114">
        <ele>2344</ele>
        <time>2020-01-21T10:15:09Z</time>
      </trkpt>
      <trkpt lat="45.00455" lon="6.4311">
        <ele>2344</ele>
        <time>2020-01-21T10:15:15Z</time>
      </trkpt>
      <trkpt lat="45.00457" lon="6.43108">
        <ele>2346</ele>
        <time>2020-01-21T10:15:20Z</time>
      </trkpt>
      <trkpt lat="45.00461" lon="6.43105">
        <ele>2347</ele>
        <time>2020-01-21T10:15:29Z</time>
      </trkpt>
      <trkpt lat="45.00464" lon="6.43102">
        <ele>2347</ele>
        <time>2020-01-21T10:15:41Z</time>
      </trkpt>
      <trkpt lat="45.00466" lon="6.43101">
        <ele>2348</ele>
        <time>2020-01-21T10:15:46Z</time>
      </trkpt>
      <trkpt lat="45.00468" lon="6.43102">
        <ele>2348</ele>
        <time>2020-01-21T10:15:51Z</time>
      </trkpt>
      <trkpt lat="45.00471" lon="6.43102">
        <ele>2349</ele>
        <time>2020-01-21T10:15:57Z</time>
      </trkpt>
      <trkpt lat="45.00473" lon="6.43101">
        <ele>2349</ele>
        <time>2020-01-21T10:16:02Z</time>
      </trkpt>
      <trkpt lat="45.00476" lon="6.43101">
        <ele>2350</ele>
        <time>2020-01-21T10:16:10Z</time>
      </trkpt>
      <trkpt lat="45.00475" lon="6.43099">
        <ele>2352</ele>
        <time>2020-01-21T10:16:16Z</time>
      </trkpt>
      <trkpt lat="45.00475" lon="6.43095">
        <ele>2354</ele>
        <time>2020-01-21T10:16:22Z</time>
      </trkpt>
      <trkpt lat="45.00475" lon="6.43092">
        <ele>2355</ele>
        <time>2020-01-21T10:16:27Z</time>
      </trkpt>
      <trkpt lat="45.00475" lon="6.43089">
        <ele>2357</ele>
        <time>2020-01-21T10:16:31Z</time>
      </trkpt>
      <trkpt lat="45.00475" lon="6.43086">
        <ele>2358</ele>
        <time>2020-01-21T10:16:37Z</time>
      </trkpt>
      <trkpt lat="45.00475" lon="6.43083">
        <ele>2359</ele>
        <time>2020-01-21T10:16:41Z</time>
      </trkpt>
      <trkpt lat="45.00474" lon="6.4308">
        <ele>2360</ele>
        <time>2020-01-21T10:16:48Z</time>
      </trkpt>
      <trkpt lat="45.00473" lon="6.43077">
        <ele>2364</ele>
        <time>2020-01-21T10:16:54Z</time>
      </trkpt>
      <trkpt lat="45.00472" lon="6.43074">
        <ele>2363</ele>
        <time>2020-01-21T10:17:01Z</time>
      </trkpt>
      <trkpt lat="45.00473" lon="6.43072">
        <ele>2363</ele>
        <time>2020-01-21T10:17:04Z</time>
      </trkpt>
      <trkpt lat="45.00472" lon="6.43069">
        <ele>2364</ele>
        <time>2020-01-21T10:17:08Z</time>
      </trkpt>
      <trkpt lat="45.0047" lon="6.4306">
        <ele>2365</ele>
        <time>2020-01-21T10:17:27Z</time>
      </trkpt>
      <trkpt lat="45.00469" lon="6.43058">
        <ele>2366</ele>
        <time>2020-01-21T10:17:31Z</time>
      </trkpt>
      <trkpt lat="45.00468" lon="6.43055">
        <ele>2366</ele>
        <time>2020-01-21T10:17:38Z</time>
      </trkpt>
      <trkpt lat="45.00467" lon="6.43052">
        <ele>2367</ele>
        <time>2020-01-21T10:17:42Z</time>
      </trkpt>
      <trkpt lat="45.00472" lon="6.43049">
        <ele>2371</ele>
        <time>2020-01-21T10:17:51Z</time>
      </trkpt>
      <trkpt lat="45.00473" lon="6.43048">
        <ele>2373</ele>
        <time>2020-01-21T10:17:59Z</time>
      </trkpt>
      <trkpt lat="45.00475" lon="6.43048">
        <ele>2374</ele>
        <time>2020-01-21T10:18:08Z</time>
      </trkpt>
      <trkpt lat="45.00478" lon="6.43048">
        <ele>2375</ele>
        <time>2020-01-21T10:18:14Z</time>
      </trkpt>
      <trkpt lat="45.00479" lon="6.43049">
        <ele>2375</ele>
        <time>2020-01-21T10:18:18Z</time>
      </trkpt>
      <trkpt lat="45.00484" lon="6.43047">
        <ele>2375</ele>
        <time>2020-01-21T10:18:31Z</time>
      </trkpt>
      <trkpt lat="45.00488" lon="6.4305">
        <ele>2378</ele>
        <time>2020-01-21T10:18:44Z</time>
      </trkpt>
      <trkpt lat="45.0049" lon="6.4305">
        <ele>2379</ele>
        <time>2020-01-21T10:18:50Z</time>
      </trkpt>
      <trkpt lat="45.00492" lon="6.4305">
        <ele>2380</ele>
        <time>2020-01-21T10:18:56Z</time>
      </trkpt>
      <trkpt lat="45.00495" lon="6.43052">
        <ele>2381</ele>
        <time>2020-01-21T10:19:02Z</time>
      </trkpt>
      <trkpt lat="45.00496" lon="6.4305">
        <ele>2381</ele>
        <time>2020-01-21T10:19:09Z</time>
      </trkpt>
      <trkpt lat="45.00495" lon="6.43045">
        <ele>2382</ele>
        <time>2020-01-21T10:19:20Z</time>
      </trkpt>
      <trkpt lat="45.00495" lon="6.43042">
        <ele>2385</ele>
        <time>2020-01-21T10:19:24Z</time>
      </trkpt>
      <trkpt lat="45.00496" lon="6.43028">
        <ele>2387</ele>
        <time>2020-01-21T10:19:47Z</time>
      </trkpt>
      <trkpt lat="45.00495" lon="6.43025">
        <ele>2387</ele>
        <time>2020-01-21T10:19:52Z</time>
      </trkpt>
      <trkpt lat="45.00494" lon="6.43009">
        <ele>2392</ele>
        <time>2020-01-21T10:20:18Z</time>
      </trkpt>
      <trkpt lat="45.00494" lon="6.42992">
        <ele>2396</ele>
        <time>2020-01-21T10:20:43Z</time>
      </trkpt>
      <trkpt lat="45.00495" lon="6.42989">
        <ele>2397</ele>
        <time>2020-01-21T10:20:50Z</time>
      </trkpt>
      <trkpt lat="45.00491" lon="6.42979">
        <ele>2399</ele>
        <time>2020-01-21T10:21:08Z</time>
      </trkpt>
      <trkpt lat="45.00498" lon="6.42973">
        <ele>2404</ele>
        <time>2020-01-21T10:21:38Z</time>
      </trkpt>
      <trkpt lat="45.005" lon="6.42973">
        <ele>2405</ele>
        <time>2020-01-21T10:21:46Z</time>
      </trkpt>
      <trkpt lat="45.00512" lon="6.42975">
        <ele>2409</ele>
        <time>2020-01-21T10:22:17Z</time>
      </trkpt>
      <trkpt lat="45.00515" lon="6.42976">
        <ele>2409</ele>
        <time>2020-01-21T10:22:28Z</time>
      </trkpt>
      <trkpt lat="45.00516" lon="6.42973">
        <ele>2409</ele>
        <time>2020-01-21T10:22:55Z</time>
      </trkpt>
      <trkpt lat="45.00517" lon="6.42968">
        <ele>2411</ele>
        <time>2020-01-21T10:23:01Z</time>
      </trkpt>
      <trkpt lat="45.00515" lon="6.42964">
        <ele>2411</ele>
        <time>2020-01-21T10:23:06Z</time>
      </trkpt>
      <trkpt lat="45.00516" lon="6.42961">
        <ele>2413</ele>
        <time>2020-01-21T10:23:12Z</time>
      </trkpt>
      <trkpt lat="45.00516" lon="6.42957">
        <ele>2414</ele>
        <time>2020-01-21T10:23:16Z</time>
      </trkpt>
      <trkpt lat="45.00516" lon="6.42953">
        <ele>2415</ele>
        <time>2020-01-21T10:23:22Z</time>
      </trkpt>
      <trkpt lat="45.00517" lon="6.42949">
        <ele>2416</ele>
        <time>2020-01-21T10:23:30Z</time>
      </trkpt>
      <trkpt lat="45.00516" lon="6.42942">
        <ele>2418</ele>
        <time>2020-01-21T10:23:41Z</time>
      </trkpt>
      <trkpt lat="45.00516" lon="6.42937">
        <ele>2419</ele>
        <time>2020-01-21T10:23:46Z</time>
      </trkpt>
      <trkpt lat="45.00514" lon="6.42934">
        <ele>2419</ele>
        <time>2020-01-21T10:23:51Z</time>
      </trkpt>
      <trkpt lat="45.00514" lon="6.42931">
        <ele>2420</ele>
        <time>2020-01-21T10:23:57Z</time>
      </trkpt>
      <trkpt lat="45.00514" lon="6.42927">
        <ele>2421</ele>
        <time>2020-01-21T10:24:03Z</time>
      </trkpt>
      <trkpt lat="45.00512" lon="6.42924">
        <ele>2421</ele>
        <time>2020-01-21T10:24:08Z</time>
      </trkpt>
      <trkpt lat="45.00514" lon="6.4292">
        <ele>2422</ele>
        <time>2020-01-21T10:24:16Z</time>
      </trkpt>
      <trkpt lat="45.00522" lon="6.42915">
        <ele>2425</ele>
        <time>2020-01-21T10:24:37Z</time>
      </trkpt>
      <trkpt lat="45.00526" lon="6.42915">
        <ele>2426</ele>
        <time>2020-01-21T10:24:46Z</time>
      </trkpt>
      <trkpt lat="45.00528" lon="6.42918">
        <ele>2427</ele>
        <time>2020-01-21T10:24:55Z</time>
      </trkpt>
      <trkpt lat="45.00531" lon="6.4292">
        <ele>2428</ele>
        <time>2020-01-21T10:25:03Z</time>
      </trkpt>
      <trkpt lat="45.00533" lon="6.4292">
        <ele>2428</ele>
        <time>2020-01-21T10:25:27Z</time>
      </trkpt>
      <trkpt lat="45.00533" lon="6.42917">
        <ele>2428</ele>
        <time>2020-01-21T10:25:32Z</time>
      </trkpt>
      <trkpt lat="45.00534" lon="6.42914">
        <ele>2429</ele>
        <time>2020-01-21T10:25:35Z</time>
      </trkpt>
      <trkpt lat="45.00534" lon="6.4291">
        <ele>2429</ele>
        <time>2020-01-21T10:25:40Z</time>
      </trkpt>
      <trkpt lat="45.00533" lon="6.42896">
        <ele>2433</ele>
        <time>2020-01-21T10:25:55Z</time>
      </trkpt>
      <trkpt lat="45.00531" lon="6.42893">
        <ele>2434</ele>
        <time>2020-01-21T10:26:01Z</time>
      </trkpt>
      <trkpt lat="45.0053" lon="6.42889">
        <ele>2433</ele>
        <time>2020-01-21T10:26:04Z</time>
      </trkpt>
      <trkpt lat="45.0053" lon="6.42886">
        <ele>2433</ele>
        <time>2020-01-21T10:26:08Z</time>
      </trkpt>
      <trkpt lat="45.00529" lon="6.42883">
        <ele>2433</ele>
        <time>2020-01-21T10:26:12Z</time>
      </trkpt>
      <trkpt lat="45.00529" lon="6.42879">
        <ele>2433</ele>
        <time>2020-01-21T10:26:18Z</time>
      </trkpt>
      <trkpt lat="45.00526" lon="6.42877">
        <ele>2433</ele>
        <time>2020-01-21T10:26:23Z</time>
      </trkpt>
      <trkpt lat="45.00524" lon="6.42876">
        <ele>2434</ele>
        <time>2020-01-21T10:26:29Z</time>
      </trkpt>
      <trkpt lat="45.00521" lon="6.42876">
        <ele>2437</ele>
        <time>2020-01-21T10:26:35Z</time>
      </trkpt>
      <trkpt lat="45.00514" lon="6.42876">
        <ele>2442</ele>
        <time>2020-01-21T10:26:47Z</time>
      </trkpt>
      <trkpt lat="45.00515" lon="6.42878">
        <ele>2443</ele>
        <time>2020-01-21T10:26:52Z</time>
      </trkpt>
      <trkpt lat="45.00517" lon="6.42877">
        <ele>2444</ele>
        <time>2020-01-21T10:26:56Z</time>
      </trkpt>
      <trkpt lat="45.00519" lon="6.42875">
        <ele>2444</ele>
        <time>2020-01-21T10:27:02Z</time>
      </trkpt>
      <trkpt lat="45.0052" lon="6.42871">
        <ele>2447</ele>
        <time>2020-01-21T10:27:11Z</time>
      </trkpt>
      <trkpt lat="45.00522" lon="6.42867">
        <ele>2448</ele>
        <time>2020-01-21T10:27:22Z</time>
      </trkpt>
      <trkpt lat="45.00522" lon="6.42864">
        <ele>2449</ele>
        <time>2020-01-21T10:27:30Z</time>
      </trkpt>
      <trkpt lat="45.00523" lon="6.4286">
        <ele>2450</ele>
        <time>2020-01-21T10:27:39Z</time>
      </trkpt>
      <trkpt lat="45.00522" lon="6.42858">
        <ele>2450</ele>
        <time>2020-01-21T10:27:45Z</time>
      </trkpt>
      <trkpt lat="45.0052" lon="6.42854">
        <ele>2449</ele>
        <time>2020-01-21T10:27:52Z</time>
      </trkpt>
      <trkpt lat="45.00517" lon="6.42855">
        <ele>2449</ele>
        <time>2020-01-21T10:27:59Z</time>
      </trkpt>
      <trkpt lat="45.0051" lon="6.42855">
        <ele>2451</ele>
        <time>2020-01-21T10:28:10Z</time>
      </trkpt>
      <trkpt lat="45.00508" lon="6.42855">
        <ele>2452</ele>
        <time>2020-01-21T10:28:15Z</time>
      </trkpt>
      <trkpt lat="45.00503" lon="6.42856">
        <ele>2455</ele>
        <time>2020-01-21T10:28:37Z</time>
      </trkpt>
      <trkpt lat="45.00505" lon="6.42858">
        <ele>2457</ele>
        <time>2020-01-21T10:28:51Z</time>
      </trkpt>
      <trkpt lat="45.00508" lon="6.42856">
        <ele>2458</ele>
        <time>2020-01-21T10:28:56Z</time>
      </trkpt>
      <trkpt lat="45.0051" lon="6.42845">
        <ele>2459</ele>
        <time>2020-01-21T10:29:12Z</time>
      </trkpt>
      <trkpt lat="45.00511" lon="6.42829">
        <ele>2466</ele>
        <time>2020-01-21T10:29:42Z</time>
      </trkpt>
      <trkpt lat="45.00511" lon="6.42826">
        <ele>2467</ele>
        <time>2020-01-21T10:29:49Z</time>
      </trkpt>
      <trkpt lat="45.0051" lon="6.42819">
        <ele>2470</ele>
        <time>2020-01-21T10:29:58Z</time>
      </trkpt>
      <trkpt lat="45.00509" lon="6.42792">
        <ele>2474</ele>
        <time>2020-01-21T10:30:27Z</time>
      </trkpt>
      <trkpt lat="45.00511" lon="6.42788">
        <ele>2475</ele>
        <time>2020-01-21T10:30:33Z</time>
      </trkpt>
      <trkpt lat="45.00513" lon="6.42783">
        <ele>2475</ele>
        <time>2020-01-21T10:30:39Z</time>
      </trkpt>
      <trkpt lat="45.00514" lon="6.4278">
        <ele>2475</ele>
        <time>2020-01-21T10:30:44Z</time>
      </trkpt>
      <trkpt lat="45.00514" lon="6.42777">
        <ele>2475</ele>
        <time>2020-01-21T10:30:49Z</time>
      </trkpt>
      <trkpt lat="45.00515" lon="6.42774">
        <ele>2477</ele>
        <time>2020-01-21T10:30:54Z</time>
      </trkpt>
      <trkpt lat="45.00517" lon="6.42767">
        <ele>2476</ele>
        <time>2020-01-21T10:31:05Z</time>
      </trkpt>
      <trkpt lat="45.00518" lon="6.42764">
        <ele>2477</ele>
        <time>2020-01-21T10:31:10Z</time>
      </trkpt>
      <trkpt lat="45.00518" lon="6.4276">
        <ele>2478</ele>
        <time>2020-01-21T10:31:17Z</time>
      </trkpt>
      <trkpt lat="45.00518" lon="6.42756">
        <ele>2480</ele>
        <time>2020-01-21T10:31:21Z</time>
      </trkpt>
      <trkpt lat="45.00518" lon="6.42752">
        <ele>2482</ele>
        <time>2020-01-21T10:31:45Z</time>
      </trkpt>
      <trkpt lat="45.00517" lon="6.42743">
        <ele>2483</ele>
        <time>2020-01-21T10:31:53Z</time>
      </trkpt>
      <trkpt lat="45.00515" lon="6.4274">
        <ele>2483</ele>
        <time>2020-01-21T10:31:58Z</time>
      </trkpt>
      <trkpt lat="45.00512" lon="6.42738">
        <ele>2484</ele>
        <time>2020-01-21T10:32:01Z</time>
      </trkpt>
      <trkpt lat="45.00508" lon="6.42735">
        <ele>2484</ele>
        <time>2020-01-21T10:32:08Z</time>
      </trkpt>
      <trkpt lat="45.00506" lon="6.42732">
        <ele>2484</ele>
        <time>2020-01-21T10:32:13Z</time>
      </trkpt>
      <trkpt lat="45.00503" lon="6.42727">
        <ele>2484</ele>
        <time>2020-01-21T10:32:22Z</time>
      </trkpt>
      <trkpt lat="45.00501" lon="6.42721">
        <ele>2485</ele>
        <time>2020-01-21T10:32:30Z</time>
      </trkpt>
      <trkpt lat="45.00501" lon="6.42717">
        <ele>2485</ele>
        <time>2020-01-21T10:32:35Z</time>
      </trkpt>
      <trkpt lat="45.005" lon="6.42715">
        <ele>2485</ele>
        <time>2020-01-21T10:32:39Z</time>
      </trkpt>
      <trkpt lat="45.00498" lon="6.42708">
        <ele>2486</ele>
        <time>2020-01-21T10:32:50Z</time>
      </trkpt>
      <trkpt lat="45.00499" lon="6.42705">
        <ele>2487</ele>
        <time>2020-01-21T10:32:55Z</time>
      </trkpt>
      <trkpt lat="45.00498" lon="6.427">
        <ele>2490</ele>
        <time>2020-01-21T10:33:10Z</time>
      </trkpt>
      <trkpt lat="45.00498" lon="6.4269">
        <ele>2493</ele>
        <time>2020-01-21T10:33:23Z</time>
      </trkpt>
      <trkpt lat="45.005" lon="6.42688">
        <ele>2495</ele>
        <time>2020-01-21T10:33:28Z</time>
      </trkpt>
      <trkpt lat="45.005" lon="6.42685">
        <ele>2499</ele>
        <time>2020-01-21T10:33:33Z</time>
      </trkpt>
      <trkpt lat="45.00499" lon="6.42682">
        <ele>2499</ele>
        <time>2020-01-21T10:33:40Z</time>
      </trkpt>
      <trkpt lat="45.00499" lon="6.42678">
        <ele>2501</ele>
        <time>2020-01-21T10:33:48Z</time>
      </trkpt>
      <trkpt lat="45.00497" lon="6.42673">
        <ele>2502</ele>
        <time>2020-01-21T10:34:00Z</time>
      </trkpt>
      <trkpt lat="45.00497" lon="6.42669">
        <ele>2502</ele>
        <time>2020-01-21T10:34:05Z</time>
      </trkpt>
      <trkpt lat="45.00497" lon="6.42667">
        <ele>2502</ele>
        <time>2020-01-21T10:34:15Z</time>
      </trkpt>
      <trkpt lat="45.00499" lon="6.42666">
        <ele>2501</ele>
        <time>2020-01-21T10:34:29Z</time>
      </trkpt>
      <trkpt lat="45.00501" lon="6.42664">
        <ele>2499</ele>
        <time>2020-01-21T10:36:14Z</time>
      </trkpt>
      <trkpt lat="45.00498" lon="6.42658">
        <ele>2501</ele>
        <time>2020-01-21T10:36:20Z</time>
      </trkpt>
      <trkpt lat="45.00495" lon="6.42653">
        <ele>2503</ele>
        <time>2020-01-21T10:36:26Z</time>
      </trkpt>
      <trkpt lat="45.00492" lon="6.42651">
        <ele>2504</ele>
        <time>2020-01-21T10:36:30Z</time>
      </trkpt>
      <trkpt lat="45.00491" lon="6.42649">
        <ele>2504</ele>
        <time>2020-01-21T10:36:34Z</time>
      </trkpt>
      <trkpt lat="45.00479" lon="6.42632">
        <ele>2506</ele>
        <time>2020-01-21T10:37:05Z</time>
      </trkpt>
      <trkpt lat="45.00478" lon="6.42629">
        <ele>2506</ele>
        <time>2020-01-21T10:37:11Z</time>
      </trkpt>
      <trkpt lat="45.00476" lon="6.42626">
        <ele>2506</ele>
        <time>2020-01-21T10:37:16Z</time>
      </trkpt>
      <trkpt lat="45.00474" lon="6.42623">
        <ele>2508</ele>
        <time>2020-01-21T10:37:21Z</time>
      </trkpt>
      <trkpt lat="45.00472" lon="6.42621">
        <ele>2509</ele>
        <time>2020-01-21T10:37:27Z</time>
      </trkpt>
      <trkpt lat="45.00472" lon="6.42617">
        <ele>2510</ele>
        <time>2020-01-21T10:37:33Z</time>
      </trkpt>
      <trkpt lat="45.0047" lon="6.42616">
        <ele>2510</ele>
        <time>2020-01-21T10:37:39Z</time>
      </trkpt>
      <trkpt lat="45.0047" lon="6.42612">
        <ele>2511</ele>
        <time>2020-01-21T10:37:48Z</time>
      </trkpt>
      <trkpt lat="45.00472" lon="6.42608">
        <ele>2514</ele>
        <time>2020-01-21T10:38:18Z</time>
      </trkpt>
      <trkpt lat="45.00471" lon="6.42605">
        <ele>2516</ele>
        <time>2020-01-21T10:38:33Z</time>
      </trkpt>
      <trkpt lat="45.0047" lon="6.42602">
        <ele>2516</ele>
        <time>2020-01-21T10:38:37Z</time>
      </trkpt>
      <trkpt lat="45.00468" lon="6.42601">
        <ele>2515</ele>
        <time>2020-01-21T10:38:45Z</time>
      </trkpt>
      <trkpt lat="45.00466" lon="6.42599">
        <ele>2515</ele>
        <time>2020-01-21T10:38:48Z</time>
      </trkpt>
      <trkpt lat="45.00467" lon="6.42595">
        <ele>2516</ele>
        <time>2020-01-21T10:38:56Z</time>
      </trkpt>
      <trkpt lat="45.00468" lon="6.42592">
        <ele>2518</ele>
        <time>2020-01-21T10:39:00Z</time>
      </trkpt>
      <trkpt lat="45.00469" lon="6.42589">
        <ele>2520</ele>
        <time>2020-01-21T10:39:06Z</time>
      </trkpt>
      <trkpt lat="45.00469" lon="6.42586">
        <ele>2521</ele>
        <time>2020-01-21T10:39:10Z</time>
      </trkpt>
      <trkpt lat="45.00466" lon="6.42585">
        <ele>2522</ele>
        <time>2020-01-21T10:39:14Z</time>
      </trkpt>
      <trkpt lat="45.00459" lon="6.42581">
        <ele>2525</ele>
        <time>2020-01-21T10:39:37Z</time>
      </trkpt>
      <trkpt lat="45.00456" lon="6.4258">
        <ele>2526</ele>
        <time>2020-01-21T10:39:40Z</time>
      </trkpt>
      <trkpt lat="45.00458" lon="6.4257">
        <ele>2527</ele>
        <time>2020-01-21T10:40:06Z</time>
      </trkpt>
      <trkpt lat="45.00456" lon="6.42567">
        <ele>2530</ele>
        <time>2020-01-21T10:40:13Z</time>
      </trkpt>
      <trkpt lat="45.00457" lon="6.4256">
        <ele>2532</ele>
        <time>2020-01-21T10:40:27Z</time>
      </trkpt>
      <trkpt lat="45.00457" lon="6.42556">
        <ele>2533</ele>
        <time>2020-01-21T10:40:34Z</time>
      </trkpt>
      <trkpt lat="45.00455" lon="6.42549">
        <ele>2535</ele>
        <time>2020-01-21T10:40:48Z</time>
      </trkpt>
      <trkpt lat="45.00452" lon="6.42549">
        <ele>2535</ele>
        <time>2020-01-21T10:40:52Z</time>
      </trkpt>
      <trkpt lat="45.00447" lon="6.42544">
        <ele>2536</ele>
        <time>2020-01-21T10:41:06Z</time>
      </trkpt>
      <trkpt lat="45.00445" lon="6.42543">
        <ele>2536</ele>
        <time>2020-01-21T10:41:12Z</time>
      </trkpt>
      <trkpt lat="45.00443" lon="6.42544">
        <ele>2537</ele>
        <time>2020-01-21T10:41:16Z</time>
      </trkpt>
      <trkpt lat="45.00441" lon="6.42546">
        <ele>2539</ele>
        <time>2020-01-21T10:41:28Z</time>
      </trkpt>
      <trkpt lat="45.0044" lon="6.42548">
        <ele>2541</ele>
        <time>2020-01-21T10:41:35Z</time>
      </trkpt>
      <trkpt lat="45.00439" lon="6.42551">
        <ele>2542</ele>
        <time>2020-01-21T10:41:39Z</time>
      </trkpt>
      <trkpt lat="45.00438" lon="6.42554">
        <ele>2543</ele>
        <time>2020-01-21T10:41:48Z</time>
      </trkpt>
      <trkpt lat="45.00436" lon="6.42556">
        <ele>2544</ele>
        <time>2020-01-21T10:41:59Z</time>
      </trkpt>
      <trkpt lat="45.00433" lon="6.42562">
        <ele>2546</ele>
        <time>2020-01-21T10:42:09Z</time>
      </trkpt>
      <trkpt lat="45.00433" lon="6.42565">
        <ele>2548</ele>
        <time>2020-01-21T10:42:20Z</time>
      </trkpt>
      <trkpt lat="45.0043" lon="6.42565">
        <ele>2548</ele>
        <time>2020-01-21T10:42:27Z</time>
      </trkpt>
      <trkpt lat="45.00427" lon="6.42565">
        <ele>2549</ele>
        <time>2020-01-21T10:42:34Z</time>
      </trkpt>
      <trkpt lat="45.00425" lon="6.42564">
        <ele>2549</ele>
        <time>2020-01-21T10:42:39Z</time>
      </trkpt>
      <trkpt lat="45.00422" lon="6.42563">
        <ele>2551</ele>
        <time>2020-01-21T10:42:43Z</time>
      </trkpt>
      <trkpt lat="45.0042" lon="6.42563">
        <ele>2552</ele>
        <time>2020-01-21T10:42:46Z</time>
      </trkpt>
      <trkpt lat="45.00418" lon="6.42562">
        <ele>2553</ele>
        <time>2020-01-21T10:42:49Z</time>
      </trkpt>
      <trkpt lat="45.00413" lon="6.42562">
        <ele>2553</ele>
        <time>2020-01-21T10:42:56Z</time>
      </trkpt>
      <trkpt lat="45.0041" lon="6.42561">
        <ele>2553</ele>
        <time>2020-01-21T10:43:00Z</time>
      </trkpt>
      <trkpt lat="45.00403" lon="6.42559">
        <ele>2552</ele>
        <time>2020-01-21T10:43:13Z</time>
      </trkpt>
      <trkpt lat="45.00401" lon="6.4256">
        <ele>2555</ele>
        <time>2020-01-21T10:43:20Z</time>
      </trkpt>
      <trkpt lat="45.00397" lon="6.42559">
        <ele>2556</ele>
        <time>2020-01-21T10:43:36Z</time>
      </trkpt>
      <trkpt lat="45.00394" lon="6.4256">
        <ele>2557</ele>
        <time>2020-01-21T10:43:39Z</time>
      </trkpt>
      <trkpt lat="45.00392" lon="6.42559">
        <ele>2557</ele>
        <time>2020-01-21T10:43:43Z</time>
      </trkpt>
      <trkpt lat="45.00389" lon="6.4256">
        <ele>2558</ele>
        <time>2020-01-21T10:43:47Z</time>
      </trkpt>
      <trkpt lat="45.00387" lon="6.42562">
        <ele>2558</ele>
        <time>2020-01-21T10:43:51Z</time>
      </trkpt>
      <trkpt lat="45.00384" lon="6.42562">
        <ele>2559</ele>
        <time>2020-01-21T10:43:54Z</time>
      </trkpt>
      <trkpt lat="45.00381" lon="6.42562">
        <ele>2559</ele>
        <time>2020-01-21T10:44:00Z</time>
      </trkpt>
      <trkpt lat="45.00378" lon="6.42561">
        <ele>2561</ele>
        <time>2020-01-21T10:44:07Z</time>
      </trkpt>
      <trkpt lat="45.00372" lon="6.42557">
        <ele>2562</ele>
        <time>2020-01-21T10:44:16Z</time>
      </trkpt>
      <trkpt lat="45.00363" lon="6.42551">
        <ele>2563</ele>
        <time>2020-01-21T10:44:32Z</time>
      </trkpt>
      <trkpt lat="45.00348" lon="6.42539">
        <ele>2564</ele>
        <time>2020-01-21T10:44:55Z</time>
      </trkpt>
      <trkpt lat="45.00345" lon="6.42537">
        <ele>2565</ele>
        <time>2020-01-21T10:45:00Z</time>
      </trkpt>
      <trkpt lat="45.00338" lon="6.42534">
        <ele>2567</ele>
        <time>2020-01-21T10:45:11Z</time>
      </trkpt>
      <trkpt lat="45.00333" lon="6.42532">
        <ele>2567</ele>
        <time>2020-01-21T10:45:19Z</time>
      </trkpt>
      <trkpt lat="45.00331" lon="6.42532">
        <ele>2566</ele>
        <time>2020-01-21T10:45:21Z</time>
      </trkpt>
      <trkpt lat="45.00328" lon="6.42532">
        <ele>2565</ele>
        <time>2020-01-21T10:45:24Z</time>
      </trkpt>
      <trkpt lat="45.00326" lon="6.4253">
        <ele>2566</ele>
        <time>2020-01-21T10:45:27Z</time>
      </trkpt>
      <trkpt lat="45.00323" lon="6.42528">
        <ele>2567</ele>
        <time>2020-01-21T10:45:32Z</time>
      </trkpt>
      <trkpt lat="45.00315" lon="6.42523">
        <ele>2568</ele>
        <time>2020-01-21T10:45:46Z</time>
      </trkpt>
      <trkpt lat="45.00313" lon="6.42522">
        <ele>2568</ele>
        <time>2020-01-21T10:45:50Z</time>
      </trkpt>
      <trkpt lat="45.00309" lon="6.42517">
        <ele>2570</ele>
        <time>2020-01-21T10:46:01Z</time>
      </trkpt>
      <trkpt lat="45.00304" lon="6.42514">
        <ele>2571</ele>
        <time>2020-01-21T10:46:09Z</time>
      </trkpt>
      <trkpt lat="45.003" lon="6.42512">
        <ele>2574</ele>
        <time>2020-01-21T10:46:14Z</time>
      </trkpt>
      <trkpt lat="45.00297" lon="6.42509">
        <ele>2573</ele>
        <time>2020-01-21T10:46:18Z</time>
      </trkpt>
      <trkpt lat="45.00293" lon="6.42509">
        <ele>2573</ele>
        <time>2020-01-21T10:46:26Z</time>
      </trkpt>
      <trkpt lat="45.00288" lon="6.42507">
        <ele>2574</ele>
        <time>2020-01-21T10:46:34Z</time>
      </trkpt>
      <trkpt lat="45.00286" lon="6.42507">
        <ele>2575</ele>
        <time>2020-01-21T10:46:39Z</time>
      </trkpt>
      <trkpt lat="45.00283" lon="6.42508">
        <ele>2579</ele>
        <time>2020-01-21T10:46:47Z</time>
      </trkpt>
      <trkpt lat="45.00279" lon="6.42509">
        <ele>2578</ele>
        <time>2020-01-21T10:46:51Z</time>
      </trkpt>
      <trkpt lat="45.00274" lon="6.42508">
        <ele>2579</ele>
        <time>2020-01-21T10:46:58Z</time>
      </trkpt>
      <trkpt lat="45.00271" lon="6.42508">
        <ele>2580</ele>
        <time>2020-01-21T10:47:02Z</time>
      </trkpt>
      <trkpt lat="45.00269" lon="6.42509">
        <ele>2579</ele>
        <time>2020-01-21T10:47:37Z</time>
      </trkpt>
      <trkpt lat="45.00267" lon="6.42509">
        <ele>2580</ele>
        <time>2020-01-21T10:47:41Z</time>
      </trkpt>
      <trkpt lat="45.00264" lon="6.42509">
        <ele>2580</ele>
        <time>2020-01-21T10:47:48Z</time>
      </trkpt>
      <trkpt lat="45.00262" lon="6.4251">
        <ele>2580</ele>
        <time>2020-01-21T10:47:52Z</time>
      </trkpt>
      <trkpt lat="45.0026" lon="6.42508">
        <ele>2581</ele>
        <time>2020-01-21T10:47:56Z</time>
      </trkpt>
      <trkpt lat="45.00255" lon="6.42505">
        <ele>2581</ele>
        <time>2020-01-21T10:48:02Z</time>
      </trkpt>
      <trkpt lat="45.00255" lon="6.42504">
        <ele>2585</ele>
        <time>2020-01-21T10:48:12Z</time>
      </trkpt>
      <trkpt lat="45.00253" lon="6.42501">
        <ele>2586</ele>
        <time>2020-01-21T10:48:16Z</time>
      </trkpt>
      <trkpt lat="45.00251" lon="6.42498">
        <ele>2587</ele>
        <time>2020-01-21T10:48:19Z</time>
      </trkpt>
      <trkpt lat="45.0025" lon="6.42494">
        <ele>2587</ele>
        <time>2020-01-21T10:48:25Z</time>
      </trkpt>
      <trkpt lat="45.00249" lon="6.42491">
        <ele>2588</ele>
        <time>2020-01-21T10:48:29Z</time>
      </trkpt>
      <trkpt lat="45.00246" lon="6.42491">
        <ele>2589</ele>
        <time>2020-01-21T10:48:32Z</time>
      </trkpt>
      <trkpt lat="45.00242" lon="6.42488">
        <ele>2589</ele>
        <time>2020-01-21T10:48:39Z</time>
      </trkpt>
      <trkpt lat="45.0024" lon="6.42486">
        <ele>2589</ele>
        <time>2020-01-21T10:48:45Z</time>
      </trkpt>
      <trkpt lat="45.00236" lon="6.42482">
        <ele>2590</ele>
        <time>2020-01-21T10:48:57Z</time>
      </trkpt>
      <trkpt lat="45.00234" lon="6.42468">
        <ele>2592</ele>
        <time>2020-01-21T10:49:15Z</time>
      </trkpt>
      <trkpt lat="45.00232" lon="6.42465">
        <ele>2593</ele>
        <time>2020-01-21T10:49:20Z</time>
      </trkpt>
      <trkpt lat="45.00232" lon="6.42461">
        <ele>2593</ele>
        <time>2020-01-21T10:49:25Z</time>
      </trkpt>
      <trkpt lat="45.00228" lon="6.42457">
        <ele>2594</ele>
        <time>2020-01-21T10:49:36Z</time>
      </trkpt>
      <trkpt lat="45.00226" lon="6.42455">
        <ele>2594</ele>
        <time>2020-01-21T10:49:42Z</time>
      </trkpt>
      <trkpt lat="45.00218" lon="6.42452">
        <ele>2594</ele>
        <time>2020-01-21T10:49:56Z</time>
      </trkpt>
      <trkpt lat="45.00216" lon="6.42452">
        <ele>2595</ele>
        <time>2020-01-21T10:50:00Z</time>
      </trkpt>
      <trkpt lat="45.00215" lon="6.4245">
        <ele>2597</ele>
        <time>2020-01-21T10:50:05Z</time>
      </trkpt>
      <trkpt lat="45.00213" lon="6.42448">
        <ele>2597</ele>
        <time>2020-01-21T10:50:08Z</time>
      </trkpt>
      <trkpt lat="45.0021" lon="6.42447">
        <ele>2598</ele>
        <time>2020-01-21T10:50:12Z</time>
      </trkpt>
      <trkpt lat="45.00207" lon="6.42444">
        <ele>2598</ele>
        <time>2020-01-21T10:50:23Z</time>
      </trkpt>
      <trkpt lat="45.00204" lon="6.42439">
        <ele>2598</ele>
        <time>2020-01-21T10:50:32Z</time>
      </trkpt>
      <trkpt lat="45.00202" lon="6.42437">
        <ele>2601</ele>
        <time>2020-01-21T10:50:37Z</time>
      </trkpt>
      <trkpt lat="45.002" lon="6.42432">
        <ele>2601</ele>
        <time>2020-01-21T10:50:41Z</time>
      </trkpt>
      <trkpt lat="45.00197" lon="6.42431">
        <ele>2601</ele>
        <time>2020-01-21T10:50:44Z</time>
      </trkpt>
      <trkpt lat="45.00194" lon="6.42425">
        <ele>2602</ele>
        <time>2020-01-21T10:50:52Z</time>
      </trkpt>
      <trkpt lat="45.00191" lon="6.42424">
        <ele>2602</ele>
        <time>2020-01-21T10:50:56Z</time>
      </trkpt>
      <trkpt lat="45.0018" lon="6.42411">
        <ele>2607</ele>
        <time>2020-01-21T10:51:23Z</time>
      </trkpt>
      <trkpt lat="45.00178" lon="6.42409">
        <ele>2608</ele>
        <time>2020-01-21T10:51:43Z</time>
      </trkpt>
      <trkpt lat="45.00176" lon="6.42408">
        <ele>2610</ele>
        <time>2020-01-21T10:51:47Z</time>
      </trkpt>
      <trkpt lat="45.00173" lon="6.42409">
        <ele>2612</ele>
        <time>2020-01-21T10:51:54Z</time>
      </trkpt>
      <trkpt lat="45.00167" lon="6.42407">
        <ele>2613</ele>
        <time>2020-01-21T10:52:05Z</time>
      </trkpt>
      <trkpt lat="45.00164" lon="6.42406">
        <ele>2614</ele>
        <time>2020-01-21T10:52:11Z</time>
      </trkpt>
      <trkpt lat="45.00161" lon="6.42408">
        <ele>2614</ele>
        <time>2020-01-21T10:52:14Z</time>
      </trkpt>
      <trkpt lat="45.00159" lon="6.42406">
        <ele>2613</ele>
        <time>2020-01-21T10:52:18Z</time>
      </trkpt>
      <trkpt lat="45.00154" lon="6.42405">
        <ele>2613</ele>
        <time>2020-01-21T10:52:23Z</time>
      </trkpt>
      <trkpt lat="45.00152" lon="6.42405">
        <ele>2614</ele>
        <time>2020-01-21T10:52:27Z</time>
      </trkpt>
      <trkpt lat="45.00147" lon="6.42404">
        <ele>2614</ele>
        <time>2020-01-21T10:52:33Z</time>
      </trkpt>
      <trkpt lat="45.00144" lon="6.42402">
        <ele>2614</ele>
        <time>2020-01-21T10:52:39Z</time>
      </trkpt>
      <trkpt lat="45.00142" lon="6.424">
        <ele>2615</ele>
        <time>2020-01-21T10:52:45Z</time>
      </trkpt>
      <trkpt lat="45.00141" lon="6.42399">
        <ele>2616</ele>
        <time>2020-01-21T10:52:48Z</time>
      </trkpt>
      <trkpt lat="45.00136" lon="6.42396">
        <ele>2618</ele>
        <time>2020-01-21T10:52:57Z</time>
      </trkpt>
      <trkpt lat="45.00134" lon="6.42394">
        <ele>2618</ele>
        <time>2020-01-21T10:53:01Z</time>
      </trkpt>
      <trkpt lat="45.00131" lon="6.42391">
        <ele>2620</ele>
        <time>2020-01-21T10:53:07Z</time>
      </trkpt>
      <trkpt lat="45.0013" lon="6.42389">
        <ele>2621</ele>
        <time>2020-01-21T10:53:10Z</time>
      </trkpt>
      <trkpt lat="45.00127" lon="6.42389">
        <ele>2621</ele>
        <time>2020-01-21T10:53:13Z</time>
      </trkpt>
      <trkpt lat="45.00125" lon="6.4239">
        <ele>2622</ele>
        <time>2020-01-21T10:53:18Z</time>
      </trkpt>
      <trkpt lat="45.00119" lon="6.42391">
        <ele>2621</ele>
        <time>2020-01-21T10:53:27Z</time>
      </trkpt>
      <trkpt lat="45.00117" lon="6.42391">
        <ele>2622</ele>
        <time>2020-01-21T10:53:31Z</time>
      </trkpt>
      <trkpt lat="45.00111" lon="6.42391">
        <ele>2624</ele>
        <time>2020-01-21T10:53:38Z</time>
      </trkpt>
      <trkpt lat="45.00109" lon="6.42393">
        <ele>2625</ele>
        <time>2020-01-21T10:53:43Z</time>
      </trkpt>
      <trkpt lat="45.00106" lon="6.42392">
        <ele>2625</ele>
        <time>2020-01-21T10:53:49Z</time>
      </trkpt>
      <trkpt lat="45.00104" lon="6.42393">
        <ele>2625</ele>
        <time>2020-01-21T10:54:22Z</time>
      </trkpt>
      <trkpt lat="45.00101" lon="6.42394">
        <ele>2623</ele>
        <time>2020-01-21T10:54:24Z</time>
      </trkpt>
      <trkpt lat="45.00098" lon="6.42394">
        <ele>2622</ele>
        <time>2020-01-21T10:54:27Z</time>
      </trkpt>
      <trkpt lat="45.00096" lon="6.42393">
        <ele>2622</ele>
        <time>2020-01-21T10:54:30Z</time>
      </trkpt>
      <trkpt lat="45.00093" lon="6.42395">
        <ele>2622</ele>
        <time>2020-01-21T10:54:33Z</time>
      </trkpt>
      <trkpt lat="45.0009" lon="6.42396">
        <ele>2624</ele>
        <time>2020-01-21T10:54:39Z</time>
      </trkpt>
      <trkpt lat="45.00089" lon="6.42399">
        <ele>2624</ele>
        <time>2020-01-21T10:54:44Z</time>
      </trkpt>
      <trkpt lat="45.00087" lon="6.424">
        <ele>2624</ele>
        <time>2020-01-21T10:54:48Z</time>
      </trkpt>
      <trkpt lat="45.00085" lon="6.42404">
        <ele>2625</ele>
        <time>2020-01-21T10:54:53Z</time>
      </trkpt>
      <trkpt lat="45.00083" lon="6.42406">
        <ele>2627</ele>
        <time>2020-01-21T10:54:58Z</time>
      </trkpt>
      <trkpt lat="45.00081" lon="6.42408">
        <ele>2628</ele>
        <time>2020-01-21T10:55:02Z</time>
      </trkpt>
      <trkpt lat="45.0008" lon="6.42412">
        <ele>2629</ele>
        <time>2020-01-21T10:55:07Z</time>
      </trkpt>
      <trkpt lat="45.00079" lon="6.42415">
        <ele>2631</ele>
        <time>2020-01-21T10:55:13Z</time>
      </trkpt>
      <trkpt lat="45.00076" lon="6.42421">
        <ele>2632</ele>
        <time>2020-01-21T10:55:20Z</time>
      </trkpt>
      <trkpt lat="45.00074" lon="6.42423">
        <ele>2632</ele>
        <time>2020-01-21T10:55:25Z</time>
      </trkpt>
      <trkpt lat="45.00072" lon="6.42423">
        <ele>2633</ele>
        <time>2020-01-21T10:55:30Z</time>
      </trkpt>
      <trkpt lat="45.00071" lon="6.42426">
        <ele>2633</ele>
        <time>2020-01-21T10:55:35Z</time>
      </trkpt>
      <trkpt lat="45.00071" lon="6.4243">
        <ele>2635</ele>
        <time>2020-01-21T10:55:41Z</time>
      </trkpt>
      <trkpt lat="45.00069" lon="6.42432">
        <ele>2634</ele>
        <time>2020-01-21T10:55:45Z</time>
      </trkpt>
      <trkpt lat="45.00064" lon="6.42438">
        <ele>2636</ele>
        <time>2020-01-21T10:55:55Z</time>
      </trkpt>
      <trkpt lat="45.00062" lon="6.42439">
        <ele>2637</ele>
        <time>2020-01-21T10:56:00Z</time>
      </trkpt>
      <trkpt lat="45.00058" lon="6.42443">
        <ele>2640</ele>
        <time>2020-01-21T10:56:07Z</time>
      </trkpt>
      <trkpt lat="45.00057" lon="6.42444">
        <ele>2641</ele>
        <time>2020-01-21T10:56:14Z</time>
      </trkpt>
      <trkpt lat="45.00055" lon="6.42447">
        <ele>2642</ele>
        <time>2020-01-21T10:56:19Z</time>
      </trkpt>
      <trkpt lat="45.00053" lon="6.42449">
        <ele>2642</ele>
        <time>2020-01-21T10:56:22Z</time>
      </trkpt>
      <trkpt lat="45.00053" lon="6.42453">
        <ele>2642</ele>
        <time>2020-01-21T10:56:27Z</time>
      </trkpt>
      <trkpt lat="45.0005" lon="6.42458">
        <ele>2644</ele>
        <time>2020-01-21T10:56:36Z</time>
      </trkpt>
      <trkpt lat="45.00048" lon="6.4246">
        <ele>2645</ele>
        <time>2020-01-21T10:56:39Z</time>
      </trkpt>
      <trkpt lat="45.00047" lon="6.42462">
        <ele>2646</ele>
        <time>2020-01-21T10:56:44Z</time>
      </trkpt>
      <trkpt lat="45.00046" lon="6.42465">
        <ele>2647</ele>
        <time>2020-01-21T10:56:58Z</time>
      </trkpt>
      <trkpt lat="45.00044" lon="6.42466">
        <ele>2647</ele>
        <time>2020-01-21T10:57:03Z</time>
      </trkpt>
      <trkpt lat="45.00046" lon="6.42469">
        <ele>2649</ele>
        <time>2020-01-21T10:58:21Z</time>
      </trkpt>
      <trkpt lat="45.00048" lon="6.42469">
        <ele>2647</ele>
        <time>2020-01-21T11:02:11Z</time>
      </trkpt>
      <trkpt lat="45.00047" lon="6.42469">
        <ele>2650</ele>
        <time>2020-01-21T11:04:04Z</time>
      </trkpt>
      <trkpt lat="45.00046" lon="6.42467">
        <ele>2650</ele>
        <time>2020-01-21T11:04:11Z</time>
      </trkpt>
      <trkpt lat="45.00043" lon="6.42465">
        <ele>2650</ele>
        <time>2020-01-21T11:05:27Z</time>
      </trkpt>
      <trkpt lat="45.00041" lon="6.42464">
        <ele>2650</ele>
        <time>2020-01-21T11:05:30Z</time>
      </trkpt>
      <trkpt lat="45.00038" lon="6.42465">
        <ele>2649</ele>
        <time>2020-01-21T11:05:34Z</time>
      </trkpt>
      <trkpt lat="45.00036" lon="6.42463">
        <ele>2650</ele>
        <time>2020-01-21T11:05:44Z</time>
      </trkpt>
      <trkpt lat="45.00032" lon="6.42465">
        <ele>2652</ele>
        <time>2020-01-21T11:05:53Z</time>
      </trkpt>
      <trkpt lat="45.00031" lon="6.42464">
        <ele>2654</ele>
        <time>2020-01-21T11:06:06Z</time>
      </trkpt>
      <trkpt lat="45.00029" lon="6.42462">
        <ele>2655</ele>
        <time>2020-01-21T11:06:13Z</time>
      </trkpt>
      <trkpt lat="45.00027" lon="6.42462">
        <ele>2658</ele>
        <time>2020-01-21T11:06:22Z</time>
      </trkpt>
      <trkpt lat="45.00025" lon="6.42463">
        <ele>2659</ele>
        <time>2020-01-21T11:06:31Z</time>
      </trkpt>
      <trkpt lat="45.00024" lon="6.42462">
        <ele>2660</ele>
        <time>2020-01-21T11:06:39Z</time>
      </trkpt>
      <trkpt lat="45.00019" lon="6.42461">
        <ele>2664</ele>
        <time>2020-01-21T11:06:52Z</time>
      </trkpt>
      <trkpt lat="45.00017" lon="6.42462">
        <ele>2664</ele>
        <time>2020-01-21T11:07:01Z</time>
      </trkpt>
      <trkpt lat="45.00016" lon="6.42464">
        <ele>2664</ele>
        <time>2020-01-21T11:07:05Z</time>
      </trkpt>
      <trkpt lat="45.00014" lon="6.42465">
        <ele>2667</ele>
        <time>2020-01-21T11:07:21Z</time>
      </trkpt>
      <trkpt lat="45.00012" lon="6.42464">
        <ele>2668</ele>
        <time>2020-01-21T11:07:33Z</time>
      </trkpt>
      <trkpt lat="45.0001" lon="6.42463">
        <ele>2669</ele>
        <time>2020-01-21T11:07:36Z</time>
      </trkpt>
      <trkpt lat="45.00008" lon="6.42465">
        <ele>2669</ele>
        <time>2020-01-21T11:07:50Z</time>
      </trkpt>
      <trkpt lat="45.00007" lon="6.42466">
        <ele>2671</ele>
        <time>2020-01-21T11:08:00Z</time>
      </trkpt>
      <trkpt lat="45" lon="6.42465">
        <ele>2676</ele>
        <time>2020-01-21T11:08:25Z</time>
      </trkpt>
      <trkpt lat="44.99996" lon="6.42463">
        <ele>2677</ele>
        <time>2020-01-21T11:08:40Z</time>
      </trkpt>
      <trkpt lat="44.99995" lon="6.42465">
        <ele>2678</ele>
        <time>2020-01-21T11:08:49Z</time>
      </trkpt>
      <trkpt lat="44.99993" lon="6.42466">
        <ele>2681</ele>
        <time>2020-01-21T11:09:02Z</time>
      </trkpt>
      <trkpt lat="44.9999" lon="6.42465">
        <ele>2683</ele>
        <time>2020-01-21T11:09:10Z</time>
      </trkpt>
      <trkpt lat="44.99988" lon="6.42465">
        <ele>2685</ele>
        <time>2020-01-21T11:09:19Z</time>
      </trkpt>
      <trkpt lat="44.99987" lon="6.42466">
        <ele>2686</ele>
        <time>2020-01-21T11:09:36Z</time>
      </trkpt>
      <trkpt lat="44.99985" lon="6.42465">
        <ele>2687</ele>
        <time>2020-01-21T11:09:41Z</time>
      </trkpt>
      <trkpt lat="44.99983" lon="6.42466">
        <ele>2689</ele>
        <time>2020-01-21T11:09:47Z</time>
      </trkpt>
      <trkpt lat="44.99981" lon="6.42466">
        <ele>2691</ele>
        <time>2020-01-21T11:10:06Z</time>
      </trkpt>
      <trkpt lat="44.99979" lon="6.42465">
        <ele>2692</ele>
        <time>2020-01-21T11:10:12Z</time>
      </trkpt>
      <trkpt lat="44.99978" lon="6.42466">
        <ele>2693</ele>
        <time>2020-01-21T11:10:19Z</time>
      </trkpt>
      <trkpt lat="44.99976" lon="6.42465">
        <ele>2695</ele>
        <time>2020-01-21T11:10:34Z</time>
      </trkpt>
      <trkpt lat="44.99974" lon="6.42465">
        <ele>2697</ele>
        <time>2020-01-21T11:10:41Z</time>
      </trkpt>
      <trkpt lat="44.99972" lon="6.42467">
        <ele>2698</ele>
        <time>2020-01-21T11:10:47Z</time>
      </trkpt>
      <trkpt lat="44.9997" lon="6.42465">
        <ele>2700</ele>
        <time>2020-01-21T11:10:59Z</time>
      </trkpt>
      <trkpt lat="44.99968" lon="6.42465">
        <ele>2701</ele>
        <time>2020-01-21T11:11:07Z</time>
      </trkpt>
      <trkpt lat="44.99966" lon="6.42466">
        <ele>2702</ele>
        <time>2020-01-21T11:11:12Z</time>
      </trkpt>
      <trkpt lat="44.99965" lon="6.42466">
        <ele>2703</ele>
        <time>2020-01-21T11:11:17Z</time>
      </trkpt>
      <trkpt lat="44.99963" lon="6.42468">
        <ele>2704</ele>
        <time>2020-01-21T11:11:24Z</time>
      </trkpt>
      <trkpt lat="44.99961" lon="6.42468">
        <ele>2704</ele>
        <time>2020-01-21T11:11:30Z</time>
      </trkpt>
      <trkpt lat="44.9996" lon="6.4247">
        <ele>2705</ele>
        <time>2020-01-21T11:11:39Z</time>
      </trkpt>
      <trkpt lat="44.99958" lon="6.42469">
        <ele>2706</ele>
        <time>2020-01-21T11:11:47Z</time>
      </trkpt>
      <trkpt lat="44.99955" lon="6.42471">
        <ele>2709</ele>
        <time>2020-01-21T11:12:09Z</time>
      </trkpt>
      <trkpt lat="44.99953" lon="6.4247">
        <ele>2710</ele>
        <time>2020-01-21T11:12:22Z</time>
      </trkpt>
      <trkpt lat="44.99951" lon="6.42472">
        <ele>2712</ele>
        <time>2020-01-21T11:12:28Z</time>
      </trkpt>
      <trkpt lat="44.99949" lon="6.42472">
        <ele>2712</ele>
        <time>2020-01-21T11:12:36Z</time>
      </trkpt>
      <trkpt lat="44.99947" lon="6.42473">
        <ele>2714</ele>
        <time>2020-01-21T11:12:50Z</time>
      </trkpt>
      <trkpt lat="44.99945" lon="6.42473">
        <ele>2715</ele>
        <time>2020-01-21T11:13:03Z</time>
      </trkpt>
      <trkpt lat="44.99943" lon="6.4247">
        <ele>2717</ele>
        <time>2020-01-21T11:13:09Z</time>
      </trkpt>
      <trkpt lat="44.99941" lon="6.42469">
        <ele>2720</ele>
        <time>2020-01-21T11:13:30Z</time>
      </trkpt>
      <trkpt lat="44.99939" lon="6.42471">
        <ele>2723</ele>
        <time>2020-01-21T11:13:38Z</time>
      </trkpt>
      <trkpt lat="44.99936" lon="6.4247">
        <ele>2725</ele>
        <time>2020-01-21T11:13:52Z</time>
      </trkpt>
      <trkpt lat="44.99934" lon="6.42468">
        <ele>2725</ele>
        <time>2020-01-21T11:14:00Z</time>
      </trkpt>
      <trkpt lat="44.99932" lon="6.42469">
        <ele>2727</ele>
        <time>2020-01-21T11:14:14Z</time>
      </trkpt>
      <trkpt lat="44.9993" lon="6.42469">
        <ele>2728</ele>
        <time>2020-01-21T11:14:18Z</time>
      </trkpt>
      <trkpt lat="44.99928" lon="6.42469">
        <ele>2729</ele>
        <time>2020-01-21T11:14:23Z</time>
      </trkpt>
      <trkpt lat="44.99925" lon="6.42468">
        <ele>2729</ele>
        <time>2020-01-21T11:14:49Z</time>
      </trkpt>
      <trkpt lat="44.99925" lon="6.42475">
        <ele>2730</ele>
        <time>2020-01-21T11:15:02Z</time>
      </trkpt>
      <trkpt lat="44.99923" lon="6.42476">
        <ele>2732</ele>
        <time>2020-01-21T11:15:13Z</time>
      </trkpt>
      <trkpt lat="44.99922" lon="6.42477">
        <ele>2734</ele>
        <time>2020-01-21T11:16:59Z</time>
      </trkpt>
      <trkpt lat="44.99921" lon="6.4248">
        <ele>2734</ele>
        <time>2020-01-21T11:17:03Z</time>
      </trkpt>
      <trkpt lat="44.99922" lon="6.42481">
        <ele>2734</ele>
        <time>2020-01-21T11:17:42Z</time>
      </trkpt>
      <trkpt lat="44.9992" lon="6.42484">
        <ele>2734</ele>
        <time>2020-01-21T11:17:48Z</time>
      </trkpt>
      <trkpt lat="44.99917" lon="6.42485">
        <ele>2734</ele>
        <time>2020-01-21T11:17:51Z</time>
      </trkpt>
      <trkpt lat="44.99915" lon="6.42486">
        <ele>2734</ele>
        <time>2020-01-21T11:17:55Z</time>
      </trkpt>
      <trkpt lat="44.99914" lon="6.42489">
        <ele>2734</ele>
        <time>2020-01-21T11:17:58Z</time>
      </trkpt>
      <trkpt lat="44.99911" lon="6.42495">
        <ele>2736</ele>
        <time>2020-01-21T11:18:08Z</time>
      </trkpt>
      <trkpt lat="44.99906" lon="6.42498">
        <ele>2737</ele>
        <time>2020-01-21T11:18:19Z</time>
      </trkpt>
      <trkpt lat="44.99902" lon="6.42501">
        <ele>2736</ele>
        <time>2020-01-21T11:18:28Z</time>
      </trkpt>
      <trkpt lat="44.999" lon="6.425">
        <ele>2736</ele>
        <time>2020-01-21T11:18:34Z</time>
      </trkpt>
      <trkpt lat="44.99898" lon="6.42501">
        <ele>2736</ele>
        <time>2020-01-21T11:18:43Z</time>
      </trkpt>
      <trkpt lat="44.99897" lon="6.42504">
        <ele>2736</ele>
        <time>2020-01-21T11:18:50Z</time>
      </trkpt>
      <trkpt lat="44.99896" lon="6.42505">
        <ele>2736</ele>
        <time>2020-01-21T11:18:55Z</time>
      </trkpt>
      <trkpt lat="44.99894" lon="6.42506">
        <ele>2736</ele>
        <time>2020-01-21T11:19:06Z</time>
      </trkpt>
      <trkpt lat="44.99893" lon="6.42509">
        <ele>2737</ele>
        <time>2020-01-21T11:19:11Z</time>
      </trkpt>
      <trkpt lat="44.99892" lon="6.42511">
        <ele>2738</ele>
        <time>2020-01-21T11:19:16Z</time>
      </trkpt>
      <trkpt lat="44.99888" lon="6.42515">
        <ele>2740</ele>
        <time>2020-01-21T11:19:26Z</time>
      </trkpt>
      <trkpt lat="44.99887" lon="6.42516">
        <ele>2741</ele>
        <time>2020-01-21T11:19:33Z</time>
      </trkpt>
      <trkpt lat="44.99883" lon="6.42519">
        <ele>2744</ele>
        <time>2020-01-21T11:19:46Z</time>
      </trkpt>
      <trkpt lat="44.99881" lon="6.42524">
        <ele>2746</ele>
        <time>2020-01-21T11:19:56Z</time>
      </trkpt>
      <trkpt lat="44.9988" lon="6.42526">
        <ele>2747</ele>
        <time>2020-01-21T11:19:59Z</time>
      </trkpt>
      <trkpt lat="44.99878" lon="6.42526">
        <ele>2747</ele>
        <time>2020-01-21T11:20:04Z</time>
      </trkpt>
      <trkpt lat="44.99875" lon="6.42529">
        <ele>2748</ele>
        <time>2020-01-21T11:20:11Z</time>
      </trkpt>
      <trkpt lat="44.99873" lon="6.42531">
        <ele>2750</ele>
        <time>2020-01-21T11:20:19Z</time>
      </trkpt>
      <trkpt lat="44.99872" lon="6.42533">
        <ele>2751</ele>
        <time>2020-01-21T11:20:28Z</time>
      </trkpt>
      <trkpt lat="44.99871" lon="6.42535">
        <ele>2752</ele>
        <time>2020-01-21T11:20:31Z</time>
      </trkpt>
      <trkpt lat="44.99869" lon="6.42536">
        <ele>2752</ele>
        <time>2020-01-21T11:20:34Z</time>
      </trkpt>
      <trkpt lat="44.99865" lon="6.42539">
        <ele>2754</ele>
        <time>2020-01-21T11:20:44Z</time>
      </trkpt>
      <trkpt lat="44.99867" lon="6.42538">
        <ele>2755</ele>
        <time>2020-01-21T11:20:56Z</time>
      </trkpt>
      <trkpt lat="44.99867" lon="6.42531">
        <ele>2758</ele>
        <time>2020-01-21T11:21:33Z</time>
      </trkpt>
      <trkpt lat="44.99867" lon="6.42521">
        <ele>2762</ele>
        <time>2020-01-21T11:21:49Z</time>
      </trkpt>
      <trkpt lat="44.99867" lon="6.42518">
        <ele>2763</ele>
        <time>2020-01-21T11:21:55Z</time>
      </trkpt>
      <trkpt lat="44.99867" lon="6.42515">
        <ele>2764</ele>
        <time>2020-01-21T11:22:00Z</time>
      </trkpt>
      <trkpt lat="44.99869" lon="6.42512">
        <ele>2765</ele>
        <time>2020-01-21T11:22:05Z</time>
      </trkpt>
      <trkpt lat="44.99869" lon="6.42508">
        <ele>2766</ele>
        <time>2020-01-21T11:22:11Z</time>
      </trkpt>
      <trkpt lat="44.99868" lon="6.42506">
        <ele>2766</ele>
        <time>2020-01-21T11:22:17Z</time>
      </trkpt>
      <trkpt lat="44.99867" lon="6.42502">
        <ele>2767</ele>
        <time>2020-01-21T11:22:27Z</time>
      </trkpt>
      <trkpt lat="44.99865" lon="6.42502">
        <ele>2767</ele>
        <time>2020-01-21T11:22:31Z</time>
      </trkpt>
      <trkpt lat="44.99863" lon="6.42504">
        <ele>2767</ele>
        <time>2020-01-21T11:22:35Z</time>
      </trkpt>
      <trkpt lat="44.9986" lon="6.42505">
        <ele>2768</ele>
        <time>2020-01-21T11:22:48Z</time>
      </trkpt>
      <trkpt lat="44.99856" lon="6.42509">
        <ele>2769</ele>
        <time>2020-01-21T11:22:58Z</time>
      </trkpt>
      <trkpt lat="44.99854" lon="6.4251">
        <ele>2770</ele>
        <time>2020-01-21T11:23:04Z</time>
      </trkpt>
      <trkpt lat="44.99851" lon="6.42514">
        <ele>2772</ele>
        <time>2020-01-21T11:23:15Z</time>
      </trkpt>
      <trkpt lat="44.9985" lon="6.42514">
        <ele>2772</ele>
        <time>2020-01-21T11:23:19Z</time>
      </trkpt>
      <trkpt lat="44.99849" lon="6.42514">
        <ele>2775</ele>
        <time>2020-01-21T11:23:52Z</time>
      </trkpt>
      <trkpt lat="44.99849" lon="6.42512">
        <ele>2778</ele>
        <time>2020-01-21T11:27:00Z</time>
      </trkpt>
      <trkpt lat="44.99849" lon="6.42509">
        <ele>2778</ele>
        <time>2020-01-21T11:27:04Z</time>
      </trkpt>
      <trkpt lat="44.99849" lon="6.42506">
        <ele>2779</ele>
        <time>2020-01-21T11:27:09Z</time>
      </trkpt>
      <trkpt lat="44.99849" lon="6.42503">
        <ele>2781</ele>
        <time>2020-01-21T11:27:13Z</time>
      </trkpt>
      <trkpt lat="44.9985" lon="6.42499">
        <ele>2781</ele>
        <time>2020-01-21T11:27:18Z</time>
      </trkpt>
      <trkpt lat="44.99849" lon="6.42497">
        <ele>2783</ele>
        <time>2020-01-21T11:27:33Z</time>
      </trkpt>
      <trkpt lat="44.99847" lon="6.42498">
        <ele>2783</ele>
        <time>2020-01-21T11:27:38Z</time>
      </trkpt>
      <trkpt lat="44.99838" lon="6.42503">
        <ele>2788</ele>
        <time>2020-01-21T11:28:03Z</time>
      </trkpt>
      <trkpt lat="44.99837" lon="6.42505">
        <ele>2788</ele>
        <time>2020-01-21T11:28:06Z</time>
      </trkpt>
      <trkpt lat="44.99835" lon="6.42506">
        <ele>2789</ele>
        <time>2020-01-21T11:28:12Z</time>
      </trkpt>
      <trkpt lat="44.99833" lon="6.42506">
        <ele>2788</ele>
        <time>2020-01-21T11:28:17Z</time>
      </trkpt>
      <trkpt lat="44.99829" lon="6.42507">
        <ele>2788</ele>
        <time>2020-01-21T11:28:26Z</time>
      </trkpt>
      <trkpt lat="44.99827" lon="6.42509">
        <ele>2791</ele>
        <time>2020-01-21T11:28:30Z</time>
      </trkpt>
      <trkpt lat="44.99826" lon="6.4251">
        <ele>2793</ele>
        <time>2020-01-21T11:28:37Z</time>
      </trkpt>
      <trkpt lat="44.99827" lon="6.4251">
        <ele>2796</ele>
        <time>2020-01-21T11:28:58Z</time>
      </trkpt>
      <trkpt lat="44.99828" lon="6.42508">
        <ele>2796</ele>
        <time>2020-01-21T11:29:02Z</time>
      </trkpt>
      <trkpt lat="44.99828" lon="6.42501">
        <ele>2797</ele>
        <time>2020-01-21T11:29:14Z</time>
      </trkpt>
      <trkpt lat="44.99829" lon="6.42498">
        <ele>2798</ele>
        <time>2020-01-21T11:29:20Z</time>
      </trkpt>
      <trkpt lat="44.99829" lon="6.42495">
        <ele>2799</ele>
        <time>2020-01-21T11:29:27Z</time>
      </trkpt>
      <trkpt lat="44.99829" lon="6.42488">
        <ele>2802</ele>
        <time>2020-01-21T11:29:44Z</time>
      </trkpt>
      <trkpt lat="44.99832" lon="6.42479">
        <ele>2807</ele>
        <time>2020-01-21T11:30:08Z</time>
      </trkpt>
      <trkpt lat="44.99831" lon="6.42477">
        <ele>2808</ele>
        <time>2020-01-21T11:30:29Z</time>
      </trkpt>
      <trkpt lat="44.99817" lon="6.42476">
        <ele>2810</ele>
        <time>2020-01-21T11:31:02Z</time>
      </trkpt>
      <trkpt lat="44.99815" lon="6.42476">
        <ele>2810</ele>
        <time>2020-01-21T11:31:07Z</time>
      </trkpt>
      <trkpt lat="44.99813" lon="6.42478">
        <ele>2810</ele>
        <time>2020-01-21T11:31:12Z</time>
      </trkpt>
      <trkpt lat="44.99812" lon="6.4248">
        <ele>2811</ele>
        <time>2020-01-21T11:31:17Z</time>
      </trkpt>
      <trkpt lat="44.9981" lon="6.42481">
        <ele>2811</ele>
        <time>2020-01-21T11:31:26Z</time>
      </trkpt>
      <trkpt lat="44.99808" lon="6.4248">
        <ele>2812</ele>
        <time>2020-01-21T11:31:30Z</time>
      </trkpt>
      <trkpt lat="44.99806" lon="6.42481">
        <ele>2814</ele>
        <time>2020-01-21T11:31:36Z</time>
      </trkpt>
      <trkpt lat="44.99803" lon="6.42485">
        <ele>2815</ele>
        <time>2020-01-21T11:31:43Z</time>
      </trkpt>
      <trkpt lat="44.998" lon="6.42486">
        <ele>2815</ele>
        <time>2020-01-21T11:31:53Z</time>
      </trkpt>
      <trkpt lat="44.99798" lon="6.42488">
        <ele>2815</ele>
        <time>2020-01-21T11:31:58Z</time>
      </trkpt>
      <trkpt lat="44.99797" lon="6.42489">
        <ele>2813</ele>
        <time>2020-01-21T11:32:03Z</time>
      </trkpt>
      <trkpt lat="44.99796" lon="6.42486">
        <ele>2816</ele>
        <time>2020-01-21T11:32:32Z</time>
      </trkpt>
      <trkpt lat="44.99797" lon="6.42483">
        <ele>2821</ele>
        <time>2020-01-21T11:32:36Z</time>
      </trkpt>
      <trkpt lat="44.99798" lon="6.4248">
        <ele>2823</ele>
        <time>2020-01-21T11:32:44Z</time>
      </trkpt>
      <trkpt lat="44.99797" lon="6.42477">
        <ele>2827</ele>
        <time>2020-01-21T11:32:52Z</time>
      </trkpt>
      <trkpt lat="44.99798" lon="6.42474">
        <ele>2828</ele>
        <time>2020-01-21T11:32:58Z</time>
      </trkpt>
      <trkpt lat="44.99799" lon="6.42468">
        <ele>2832</ele>
        <time>2020-01-21T11:33:40Z</time>
      </trkpt>
      <trkpt lat="44.99801" lon="6.42463">
        <ele>2834</ele>
        <time>2020-01-21T11:33:49Z</time>
      </trkpt>
      <trkpt lat="44.99801" lon="6.42461">
        <ele>2834</ele>
        <time>2020-01-21T11:33:54Z</time>
      </trkpt>
      <trkpt lat="44.99802" lon="6.42459">
        <ele>2835</ele>
        <time>2020-01-21T11:33:57Z</time>
      </trkpt>
      <trkpt lat="44.99802" lon="6.42456">
        <ele>2836</ele>
        <time>2020-01-21T11:34:01Z</time>
      </trkpt>
      <trkpt lat="44.99801" lon="6.42454">
        <ele>2837</ele>
        <time>2020-01-21T11:34:09Z</time>
      </trkpt>
      <trkpt lat="44.99801" lon="6.42451">
        <ele>2835</ele>
        <time>2020-01-21T11:34:14Z</time>
      </trkpt>
      <trkpt lat="44.99789" lon="6.4245">
        <ele>2833</ele>
        <time>2020-01-21T11:34:46Z</time>
      </trkpt>
      <trkpt lat="44.99785" lon="6.4245">
        <ele>2833</ele>
        <time>2020-01-21T11:34:54Z</time>
      </trkpt>
      <trkpt lat="44.99781" lon="6.42453">
        <ele>2836</ele>
        <time>2020-01-21T11:35:03Z</time>
      </trkpt>
      <trkpt lat="44.99775" lon="6.42459">
        <ele>2838</ele>
        <time>2020-01-21T11:35:21Z</time>
      </trkpt>
      <trkpt lat="44.99773" lon="6.42459">
        <ele>2839</ele>
        <time>2020-01-21T11:35:24Z</time>
      </trkpt>
      <trkpt lat="44.99774" lon="6.42459">
        <ele>2841</ele>
        <time>2020-01-21T11:35:43Z</time>
      </trkpt>
      <trkpt lat="44.99775" lon="6.4245">
        <ele>2847</ele>
        <time>2020-01-21T11:36:02Z</time>
      </trkpt>
      <trkpt lat="44.99777" lon="6.42447">
        <ele>2848</ele>
        <time>2020-01-21T11:36:09Z</time>
      </trkpt>
      <trkpt lat="44.99777" lon="6.42444">
        <ele>2851</ele>
        <time>2020-01-21T11:36:18Z</time>
      </trkpt>
      <trkpt lat="44.99779" lon="6.4244">
        <ele>2853</ele>
        <time>2020-01-21T11:36:24Z</time>
      </trkpt>
      <trkpt lat="44.99781" lon="6.42438">
        <ele>2854</ele>
        <time>2020-01-21T11:36:31Z</time>
      </trkpt>
      <trkpt lat="44.99779" lon="6.42436">
        <ele>2855</ele>
        <time>2020-01-21T11:36:54Z</time>
      </trkpt>
      <trkpt lat="44.99777" lon="6.42435">
        <ele>2854</ele>
        <time>2020-01-21T11:36:58Z</time>
      </trkpt>
      <trkpt lat="44.99775" lon="6.42435">
        <ele>2853</ele>
        <time>2020-01-21T11:37:07Z</time>
      </trkpt>
      <trkpt lat="44.99773" lon="6.42436">
        <ele>2853</ele>
        <time>2020-01-21T11:37:18Z</time>
      </trkpt>
      <trkpt lat="44.99771" lon="6.42436">
        <ele>2854</ele>
        <time>2020-01-21T11:37:23Z</time>
      </trkpt>
      <trkpt lat="44.99769" lon="6.42437">
        <ele>2853</ele>
        <time>2020-01-21T11:37:26Z</time>
      </trkpt>
      <trkpt lat="44.99762" lon="6.42438">
        <ele>2853</ele>
        <time>2020-01-21T11:37:42Z</time>
      </trkpt>
      <trkpt lat="44.9976" lon="6.4244">
        <ele>2854</ele>
        <time>2020-01-21T11:37:48Z</time>
      </trkpt>
      <trkpt lat="44.99758" lon="6.42441">
        <ele>2854</ele>
        <time>2020-01-21T11:37:52Z</time>
      </trkpt>
      <trkpt lat="44.99755" lon="6.42444">
        <ele>2855</ele>
        <time>2020-01-21T11:38:03Z</time>
      </trkpt>
      <trkpt lat="44.99753" lon="6.42447">
        <ele>2857</ele>
        <time>2020-01-21T11:38:08Z</time>
      </trkpt>
      <trkpt lat="44.99752" lon="6.42449">
        <ele>2857</ele>
        <time>2020-01-21T11:38:12Z</time>
      </trkpt>
      <trkpt lat="44.99748" lon="6.42455">
        <ele>2858</ele>
        <time>2020-01-21T11:38:27Z</time>
      </trkpt>
      <trkpt lat="44.99747" lon="6.42453">
        <ele>2859</ele>
        <time>2020-01-21T11:38:49Z</time>
      </trkpt>
      <trkpt lat="44.99744" lon="6.42448">
        <ele>2864</ele>
        <time>2020-01-21T11:39:03Z</time>
      </trkpt>
      <trkpt lat="44.99744" lon="6.42445">
        <ele>2865</ele>
        <time>2020-01-21T11:39:10Z</time>
      </trkpt>
      <trkpt lat="44.99744" lon="6.42443">
        <ele>2866</ele>
        <time>2020-01-21T11:39:16Z</time>
      </trkpt>
      <trkpt lat="44.99745" lon="6.4244">
        <ele>2869</ele>
        <time>2020-01-21T11:39:21Z</time>
      </trkpt>
      <trkpt lat="44.99744" lon="6.42438">
        <ele>2870</ele>
        <time>2020-01-21T11:39:26Z</time>
      </trkpt>
      <trkpt lat="44.99745" lon="6.42435">
        <ele>2872</ele>
        <time>2020-01-21T11:39:32Z</time>
      </trkpt>
      <trkpt lat="44.99745" lon="6.42432">
        <ele>2872</ele>
        <time>2020-01-21T11:39:35Z</time>
      </trkpt>
      <trkpt lat="44.99748" lon="6.42426">
        <ele>2875</ele>
        <time>2020-01-21T11:39:48Z</time>
      </trkpt>
      <trkpt lat="44.99747" lon="6.42424">
        <ele>2876</ele>
        <time>2020-01-21T11:39:52Z</time>
      </trkpt>
      <trkpt lat="44.99751" lon="6.4242">
        <ele>2882</ele>
        <time>2020-01-21T11:40:06Z</time>
      </trkpt>
      <trkpt lat="44.99752" lon="6.42416">
        <ele>2883</ele>
        <time>2020-01-21T11:40:13Z</time>
      </trkpt>
      <trkpt lat="44.99753" lon="6.4241">
        <ele>2885</ele>
        <time>2020-01-21T11:40:33Z</time>
      </trkpt>
      <trkpt lat="44.99748" lon="6.42407">
        <ele>2885</ele>
        <time>2020-01-21T11:41:06Z</time>
      </trkpt>
      <trkpt lat="44.99736" lon="6.42409">
        <ele>2884</ele>
        <time>2020-01-21T11:41:38Z</time>
      </trkpt>
      <trkpt lat="44.99732" lon="6.4241">
        <ele>2886</ele>
        <time>2020-01-21T11:41:49Z</time>
      </trkpt>
      <trkpt lat="44.99731" lon="6.42407">
        <ele>2888</ele>
        <time>2020-01-21T11:43:40Z</time>
      </trkpt>
      <trkpt lat="44.99731" lon="6.42404">
        <ele>2888</ele>
        <time>2020-01-21T11:43:44Z</time>
      </trkpt>
      <trkpt lat="44.99733" lon="6.42395">
        <ele>2894</ele>
        <time>2020-01-21T11:43:57Z</time>
      </trkpt>
      <trkpt lat="44.99735" lon="6.42392">
        <ele>2895</ele>
        <time>2020-01-21T11:44:06Z</time>
      </trkpt>
      <trkpt lat="44.99739" lon="6.42388">
        <ele>2899</ele>
        <time>2020-01-21T11:44:19Z</time>
      </trkpt>
      <trkpt lat="44.99736" lon="6.42388">
        <ele>2901</ele>
        <time>2020-01-21T11:44:43Z</time>
      </trkpt>
      <trkpt lat="44.99734" lon="6.42387">
        <ele>2899</ele>
        <time>2020-01-21T11:44:49Z</time>
      </trkpt>
      <trkpt lat="44.99732" lon="6.42387">
        <ele>2899</ele>
        <time>2020-01-21T11:44:53Z</time>
      </trkpt>
      <trkpt lat="44.9973" lon="6.42386">
        <ele>2898</ele>
        <time>2020-01-21T11:45:02Z</time>
      </trkpt>
      <trkpt lat="44.99719" lon="6.42389">
        <ele>2897</ele>
        <time>2020-01-21T11:45:32Z</time>
      </trkpt>
      <trkpt lat="44.99715" lon="6.42389">
        <ele>2898</ele>
        <time>2020-01-21T11:45:41Z</time>
      </trkpt>
      <trkpt lat="44.99713" lon="6.42388">
        <ele>2899</ele>
        <time>2020-01-21T11:45:44Z</time>
      </trkpt>
      <trkpt lat="44.99714" lon="6.42385">
        <ele>2904</ele>
        <time>2020-01-21T11:46:20Z</time>
      </trkpt>
      <trkpt lat="44.99716" lon="6.42375">
        <ele>2912</ele>
        <time>2020-01-21T11:47:03Z</time>
      </trkpt>
      <trkpt lat="44.99722" lon="6.42364">
        <ele>2917</ele>
        <time>2020-01-21T11:47:21Z</time>
      </trkpt>
      <trkpt lat="44.9972" lon="6.42363">
        <ele>2918</ele>
        <time>2020-01-21T11:47:37Z</time>
      </trkpt>
      <trkpt lat="44.99717" lon="6.42363">
        <ele>2917</ele>
        <time>2020-01-21T11:47:45Z</time>
      </trkpt>
      <trkpt lat="44.99715" lon="6.42362">
        <ele>2916</ele>
        <time>2020-01-21T11:47:51Z</time>
      </trkpt>
      <trkpt lat="44.99713" lon="6.42362">
        <ele>2916</ele>
        <time>2020-01-21T11:47:55Z</time>
      </trkpt>
      <trkpt lat="44.9971" lon="6.42362">
        <ele>2916</ele>
        <time>2020-01-21T11:48:14Z</time>
      </trkpt>
      <trkpt lat="44.99707" lon="6.42363">
        <ele>2915</ele>
        <time>2020-01-21T11:48:19Z</time>
      </trkpt>
      <trkpt lat="44.99705" lon="6.42362">
        <ele>2915</ele>
        <time>2020-01-21T11:48:23Z</time>
      </trkpt>
      <trkpt lat="44.99703" lon="6.42363">
        <ele>2917</ele>
        <time>2020-01-21T11:48:30Z</time>
      </trkpt>
      <trkpt lat="44.99701" lon="6.42364">
        <ele>2918</ele>
        <time>2020-01-21T11:48:38Z</time>
      </trkpt>
      <trkpt lat="44.99699" lon="6.42363">
        <ele>2922</ele>
        <time>2020-01-21T11:49:00Z</time>
      </trkpt>
      <trkpt lat="44.99699" lon="6.42359">
        <ele>2925</ele>
        <time>2020-01-21T11:49:34Z</time>
      </trkpt>
      <trkpt lat="44.99702" lon="6.42352">
        <ele>2930</ele>
        <time>2020-01-21T11:49:45Z</time>
      </trkpt>
      <trkpt lat="44.99704" lon="6.42346">
        <ele>2933</ele>
        <time>2020-01-21T11:50:07Z</time>
      </trkpt>
      <trkpt lat="44.99705" lon="6.42344">
        <ele>2935</ele>
        <time>2020-01-21T11:50:14Z</time>
      </trkpt>
      <trkpt lat="44.99704" lon="6.4234">
        <ele>2938</ele>
        <time>2020-01-21T11:50:47Z</time>
      </trkpt>
      <trkpt lat="44.99701" lon="6.42339">
        <ele>2939</ele>
        <time>2020-01-21T11:50:56Z</time>
      </trkpt>
      <trkpt lat="44.99698" lon="6.4234">
        <ele>2939</ele>
        <time>2020-01-21T11:51:03Z</time>
      </trkpt>
      <trkpt lat="44.99696" lon="6.42341">
        <ele>2940</ele>
        <time>2020-01-21T11:51:08Z</time>
      </trkpt>
      <trkpt lat="44.99696" lon="6.42349">
        <ele>2943</ele>
        <time>2020-01-21T11:51:20Z</time>
      </trkpt>
      <trkpt lat="44.99692" lon="6.42348">
        <ele>2944</ele>
        <time>2020-01-21T11:51:28Z</time>
      </trkpt>
      <trkpt lat="44.9969" lon="6.42344">
        <ele>2944</ele>
        <time>2020-01-21T11:52:13Z</time>
      </trkpt>
      <trkpt lat="44.99692" lon="6.4234">
        <ele>2944</ele>
        <time>2020-01-21T11:52:17Z</time>
      </trkpt>
      <trkpt lat="44.99692" lon="6.42337">
        <ele>2946</ele>
        <time>2020-01-21T11:52:29Z</time>
      </trkpt>
      <trkpt lat="44.99689" lon="6.42336">
        <ele>2947</ele>
        <time>2020-01-21T11:53:38Z</time>
      </trkpt>
      <trkpt lat="44.99688" lon="6.42339">
        <ele>2947</ele>
        <time>2020-01-21T11:53:46Z</time>
      </trkpt>
      <trkpt lat="44.99686" lon="6.42341">
        <ele>2947</ele>
        <time>2020-01-21T11:54:34Z</time>
      </trkpt>
      <trkpt lat="44.99684" lon="6.42342">
        <ele>2946</ele>
        <time>2020-01-21T11:54:38Z</time>
      </trkpt>
      <trkpt lat="44.99681" lon="6.42341">
        <ele>2946</ele>
        <time>2020-01-21T11:54:47Z</time>
      </trkpt>
      <trkpt lat="44.99681" lon="6.42337">
        <ele>2947</ele>
        <time>2020-01-21T11:55:23Z</time>
      </trkpt>
      <trkpt lat="44.99682" lon="6.42334">
        <ele>2951</ele>
        <time>2020-01-21T11:55:35Z</time>
      </trkpt>
      <trkpt lat="44.99681" lon="6.4233">
        <ele>2953</ele>
        <time>2020-01-21T11:55:45Z</time>
      </trkpt>
      <trkpt lat="44.9968" lon="6.42327">
        <ele>2955</ele>
        <time>2020-01-21T11:58:39Z</time>
      </trkpt>
      <trkpt lat="44.99683" lon="6.42324">
        <ele>2955</ele>
        <time>2020-01-21T11:58:56Z</time>
      </trkpt>
      <trkpt lat="44.99681" lon="6.42321">
        <ele>2959</ele>
        <time>2020-01-21T11:59:12Z</time>
      </trkpt>
      <trkpt lat="44.99679" lon="6.42319">
        <ele>2960</ele>
        <time>2020-01-21T11:59:17Z</time>
      </trkpt>
      <trkpt lat="44.99682" lon="6.42316">
        <ele>2963</ele>
        <time>2020-01-21T12:00:01Z</time>
      </trkpt>
      <trkpt lat="44.99683" lon="6.42305">
        <ele>2971</ele>
        <time>2020-01-21T12:00:49Z</time>
      </trkpt>
      <trkpt lat="44.99683" lon="6.42302">
        <ele>2972</ele>
        <time>2020-01-21T12:01:08Z</time>
      </trkpt>
      <trkpt lat="44.99684" lon="6.423">
        <ele>2973</ele>
        <time>2020-01-21T12:01:16Z</time>
      </trkpt>
      <trkpt lat="44.99685" lon="6.42297">
        <ele>2974</ele>
        <time>2020-01-21T12:01:27Z</time>
      </trkpt>
      <trkpt lat="44.99684" lon="6.42295">
        <ele>2975</ele>
        <time>2020-01-21T12:01:35Z</time>
      </trkpt>
      <trkpt lat="44.99686" lon="6.42294">
        <ele>2976</ele>
        <time>2020-01-21T12:01:48Z</time>
      </trkpt>
      <trkpt lat="44.99686" lon="6.4229">
        <ele>2976</ele>
        <time>2020-01-21T12:02:07Z</time>
      </trkpt>
      <trkpt lat="44.99687" lon="6.42287">
        <ele>2979</ele>
        <time>2020-01-21T12:02:35Z</time>
      </trkpt>
      <trkpt lat="44.99687" lon="6.42286">
        <ele>2980</ele>
        <time>2020-01-21T12:03:23Z</time>
      </trkpt>
      <trkpt lat="44.99686" lon="6.42284">
        <ele>2980</ele>
        <time>2020-01-21T12:03:27Z</time>
      </trkpt>
      <trkpt lat="44.99685" lon="6.42281">
        <ele>2984</ele>
        <time>2020-01-21T12:03:33Z</time>
      </trkpt>
      <trkpt lat="44.99683" lon="6.4228">
        <ele>2988</ele>
        <time>2020-01-21T12:04:00Z</time>
      </trkpt>
      <trkpt lat="44.99683" lon="6.42277">
        <ele>2988</ele>
        <time>2020-01-21T12:04:07Z</time>
      </trkpt>
      <trkpt lat="44.99683" lon="6.42274">
        <ele>2989</ele>
        <time>2020-01-21T12:04:13Z</time>
      </trkpt>
      <trkpt lat="44.99684" lon="6.42273">
        <ele>2992</ele>
        <time>2020-01-21T12:05:22Z</time>
      </trkpt>
      <trkpt lat="44.99685" lon="6.4227">
        <ele>2996</ele>
        <time>2020-01-21T12:05:52Z</time>
      </trkpt>
      <trkpt lat="44.99688" lon="6.42268">
        <ele>2997</ele>
        <time>2020-01-21T12:06:12Z</time>
      </trkpt>
      <trkpt lat="44.99689" lon="6.42265">
        <ele>2997</ele>
        <time>2020-01-21T12:06:26Z</time>
      </trkpt>
      <trkpt lat="44.99687" lon="6.42262">
        <ele>2998</ele>
        <time>2020-01-21T12:06:42Z</time>
      </trkpt>
      <trkpt lat="44.99687" lon="6.42259">
        <ele>2998</ele>
        <time>2020-01-21T12:06:54Z</time>
      </trkpt>
      <trkpt lat="44.99686" lon="6.42257">
        <ele>2999</ele>
        <time>2020-01-21T12:07:00Z</time>
      </trkpt>
      <trkpt lat="44.99684" lon="6.42252">
        <ele>3000</ele>
        <time>2020-01-21T12:07:30Z</time>
      </trkpt>
      <trkpt lat="44.99683" lon="6.4225">
        <ele>3003</ele>
        <time>2020-01-21T12:07:38Z</time>
      </trkpt>
      <trkpt lat="44.99682" lon="6.42248">
        <ele>3003</ele>
        <time>2020-01-21T12:07:55Z</time>
      </trkpt>
      <trkpt lat="44.99681" lon="6.42246">
        <ele>3003</ele>
        <time>2020-01-21T12:08:01Z</time>
      </trkpt>
      <trkpt lat="44.99679" lon="6.42246">
        <ele>3004</ele>
        <time>2020-01-21T12:08:12Z</time>
      </trkpt>
      <trkpt lat="44.99678" lon="6.42243">
        <ele>3004</ele>
        <time>2020-01-21T12:08:20Z</time>
      </trkpt>
      <trkpt lat="44.99676" lon="6.42243">
        <ele>3005</ele>
        <time>2020-01-21T12:08:27Z</time>
      </trkpt>
      <trkpt lat="44.99674" lon="6.4224">
        <ele>3007</ele>
        <time>2020-01-21T12:08:51Z</time>
      </trkpt>
      <trkpt lat="44.99671" lon="6.4224">
        <ele>3008</ele>
        <time>2020-01-21T12:08:59Z</time>
      </trkpt>
      <trkpt lat="44.9967" lon="6.42239">
        <ele>3010</ele>
        <time>2020-01-21T12:09:11Z</time>
      </trkpt>
      <trkpt lat="44.99669" lon="6.42237">
        <ele>3010</ele>
        <time>2020-01-21T12:09:20Z</time>
      </trkpt>
      <trkpt lat="44.99666" lon="6.42238">
        <ele>3012</ele>
        <time>2020-01-21T12:09:31Z</time>
      </trkpt>
      <trkpt lat="44.99664" lon="6.42235">
        <ele>3017</ele>
        <time>2020-01-21T12:09:51Z</time>
      </trkpt>
      <trkpt lat="44.99663" lon="6.42233">
        <ele>3020</ele>
        <time>2020-01-21T12:10:01Z</time>
      </trkpt>
      <trkpt lat="44.99661" lon="6.42231">
        <ele>3022</ele>
        <time>2020-01-21T12:10:42Z</time>
      </trkpt>
      <trkpt lat="44.99659" lon="6.42231">
        <ele>3027</ele>
        <time>2020-01-21T12:10:54Z</time>
      </trkpt>
      <trkpt lat="44.99657" lon="6.42228">
        <ele>3028</ele>
        <time>2020-01-21T12:11:18Z</time>
      </trkpt>
      <trkpt lat="44.99652" lon="6.42225">
        <ele>3029</ele>
        <time>2020-01-21T12:11:35Z</time>
      </trkpt>
      <trkpt lat="44.9965" lon="6.42223">
        <ele>3032</ele>
        <time>2020-01-21T12:11:49Z</time>
      </trkpt>
      <trkpt lat="44.9965" lon="6.4222">
        <ele>3034</ele>
        <time>2020-01-21T12:12:17Z</time>
      </trkpt>
      <trkpt lat="44.99649" lon="6.42217">
        <ele>3037</ele>
        <time>2020-01-21T12:12:25Z</time>
      </trkpt>
      <trkpt lat="44.99648" lon="6.42214">
        <ele>3039</ele>
        <time>2020-01-21T12:12:48Z</time>
      </trkpt>
      <trkpt lat="44.99649" lon="6.42211">
        <ele>3042</ele>
        <time>2020-01-21T12:13:12Z</time>
      </trkpt>
      <trkpt lat="44.99651" lon="6.42209">
        <ele>3044</ele>
        <time>2020-01-21T12:13:36Z</time>
      </trkpt>
      <trkpt lat="44.99652" lon="6.42208">
        <ele>3047</ele>
        <time>2020-01-21T12:15:22Z</time>
      </trkpt>
      <trkpt lat="44.99651" lon="6.42204">
        <ele>3047</ele>
        <time>2020-01-21T12:17:11Z</time>
      </trkpt>
      <trkpt lat="44.99652" lon="6.42202">
        <ele>3048</ele>
        <time>2020-01-21T12:17:37Z</time>
      </trkpt>
      <trkpt lat="44.99655" lon="6.42202">
        <ele>3054</ele>
        <time>2020-01-21T12:17:44Z</time>
      </trkpt>
      <trkpt lat="44.99655" lon="6.422">
        <ele>3057</ele>
        <time>2020-01-21T12:17:53Z</time>
      </trkpt>
      <trkpt lat="44.99653" lon="6.42201">
        <ele>3057</ele>
        <time>2020-01-21T12:18:14Z</time>
      </trkpt>
      <trkpt lat="44.99655" lon="6.42202">
        <ele>3058</ele>
        <time>2020-01-21T12:23:27Z</time>
      </trkpt>
      <trkpt lat="44.99653" lon="6.42204">
        <ele>3058</ele>
        <time>2020-01-21T12:24:21Z</time>
      </trkpt>
      <trkpt lat="44.99654" lon="6.42206">
        <ele>3058</ele>
        <time>2020-01-21T12:25:15Z</time>
      </trkpt>
      <trkpt lat="44.99655" lon="6.42209">
        <ele>3058</ele>
        <time>2020-01-21T12:25:20Z</time>
      </trkpt>
      <trkpt lat="44.99655" lon="6.42212">
        <ele>3058</ele>
        <time>2020-01-21T12:25:55Z</time>
      </trkpt>
      <trkpt lat="44.99658" lon="6.42216">
        <ele>3058</ele>
        <time>2020-01-21T12:35:22Z</time>
      </trkpt>
      <trkpt lat="44.99653" lon="6.42215">
        <ele>3061</ele>
        <time>2020-01-21T12:36:29Z</time>
      </trkpt>
      <trkpt lat="44.99653" lon="6.42218">
        <ele>3057</ele>
        <time>2020-01-21T12:38:41Z</time>
      </trkpt>
      <trkpt lat="44.99653" lon="6.42223">
        <ele>3053</ele>
        <time>2020-01-21T12:39:20Z</time>
      </trkpt>
      <trkpt lat="44.99655" lon="6.42227">
        <ele>3051</ele>
        <time>2020-01-21T12:39:28Z</time>
      </trkpt>
      <trkpt lat="44.99657" lon="6.42234">
        <ele>3050</ele>
        <time>2020-01-21T12:39:40Z</time>
      </trkpt>
      <trkpt lat="44.99662" lon="6.42238">
        <ele>3044</ele>
        <time>2020-01-21T12:39:58Z</time>
      </trkpt>
      <trkpt lat="44.99663" lon="6.42244">
        <ele>3042</ele>
        <time>2020-01-21T12:40:01Z</time>
      </trkpt>
      <trkpt lat="44.99662" lon="6.42246">
        <ele>3038</ele>
        <time>2020-01-21T12:40:31Z</time>
      </trkpt>
      <trkpt lat="44.9966" lon="6.42251">
        <ele>3037</ele>
        <time>2020-01-21T12:40:33Z</time>
      </trkpt>
      <trkpt lat="44.9966" lon="6.42254">
        <ele>3036</ele>
        <time>2020-01-21T12:40:34Z</time>
      </trkpt>
      <trkpt lat="44.99661" lon="6.42257">
        <ele>3036</ele>
        <time>2020-01-21T12:40:35Z</time>
      </trkpt>
      <trkpt lat="44.99666" lon="6.42256">
        <ele>3034</ele>
        <time>2020-01-21T12:40:37Z</time>
      </trkpt>
      <trkpt lat="44.99668" lon="6.42257">
        <ele>3033</ele>
        <time>2020-01-21T12:40:42Z</time>
      </trkpt>
      <trkpt lat="44.99672" lon="6.42261">
        <ele>3031</ele>
        <time>2020-01-21T12:40:46Z</time>
      </trkpt>
      <trkpt lat="44.99674" lon="6.42263">
        <ele>3030</ele>
        <time>2020-01-21T12:40:47Z</time>
      </trkpt>
      <trkpt lat="44.99677" lon="6.42263">
        <ele>3030</ele>
        <time>2020-01-21T12:40:49Z</time>
      </trkpt>
      <trkpt lat="44.99674" lon="6.42266">
        <ele>3028</ele>
        <time>2020-01-21T12:40:55Z</time>
      </trkpt>
      <trkpt lat="44.99675" lon="6.42273">
        <ele>3025</ele>
        <time>2020-01-21T12:40:57Z</time>
      </trkpt>
      <trkpt lat="44.99676" lon="6.42279">
        <ele>3024</ele>
        <time>2020-01-21T12:40:59Z</time>
      </trkpt>
      <trkpt lat="44.99679" lon="6.42285">
        <ele>3021</ele>
        <time>2020-01-21T12:41:01Z</time>
      </trkpt>
      <trkpt lat="44.9968" lon="6.42293">
        <ele>3018</ele>
        <time>2020-01-21T12:41:04Z</time>
      </trkpt>
      <trkpt lat="44.99682" lon="6.42299">
        <ele>3017</ele>
        <time>2020-01-21T12:41:05Z</time>
      </trkpt>
      <trkpt lat="44.99689" lon="6.42299">
        <ele>3014</ele>
        <time>2020-01-21T12:41:07Z</time>
      </trkpt>
      <trkpt lat="44.99691" lon="6.42298">
        <ele>3010</ele>
        <time>2020-01-21T12:41:29Z</time>
      </trkpt>
      <trkpt lat="44.99689" lon="6.42303">
        <ele>3009</ele>
        <time>2020-01-21T12:41:32Z</time>
      </trkpt>
      <trkpt lat="44.99691" lon="6.4231">
        <ele>3005</ele>
        <time>2020-01-21T12:41:34Z</time>
      </trkpt>
      <trkpt lat="44.99687" lon="6.42313">
        <ele>3001</ele>
        <time>2020-01-21T12:41:39Z</time>
      </trkpt>
      <trkpt lat="44.99684" lon="6.4231">
        <ele>2997</ele>
        <time>2020-01-21T12:41:51Z</time>
      </trkpt>
      <trkpt lat="44.99677" lon="6.4232">
        <ele>2991</ele>
        <time>2020-01-21T12:42:09Z</time>
      </trkpt>
      <trkpt lat="44.99675" lon="6.42324">
        <ele>2990</ele>
        <time>2020-01-21T12:42:11Z</time>
      </trkpt>
      <trkpt lat="44.99674" lon="6.42331">
        <ele>2989</ele>
        <time>2020-01-21T12:42:13Z</time>
      </trkpt>
      <trkpt lat="44.99676" lon="6.42329">
        <ele>2986</ele>
        <time>2020-01-21T12:42:31Z</time>
      </trkpt>
      <trkpt lat="44.99678" lon="6.42333">
        <ele>2986</ele>
        <time>2020-01-21T12:42:33Z</time>
      </trkpt>
      <trkpt lat="44.99681" lon="6.42339">
        <ele>2983</ele>
        <time>2020-01-21T12:42:35Z</time>
      </trkpt>
      <trkpt lat="44.99685" lon="6.4234">
        <ele>2982</ele>
        <time>2020-01-21T12:42:36Z</time>
      </trkpt>
      <trkpt lat="44.99693" lon="6.42339">
        <ele>2978</ele>
        <time>2020-01-21T12:42:39Z</time>
      </trkpt>
      <trkpt lat="44.99692" lon="6.42346">
        <ele>2977</ele>
        <time>2020-01-21T12:42:43Z</time>
      </trkpt>
      <trkpt lat="44.9969" lon="6.42351">
        <ele>2974</ele>
        <time>2020-01-21T12:42:45Z</time>
      </trkpt>
      <trkpt lat="44.99695" lon="6.42354">
        <ele>2972</ele>
        <time>2020-01-21T12:42:47Z</time>
      </trkpt>
      <trkpt lat="44.99708" lon="6.42352">
        <ele>2965</ele>
        <time>2020-01-21T12:42:51Z</time>
      </trkpt>
      <trkpt lat="44.99709" lon="6.42357">
        <ele>2964</ele>
        <time>2020-01-21T12:42:52Z</time>
      </trkpt>
      <trkpt lat="44.9971" lon="6.42362">
        <ele>2961</ele>
        <time>2020-01-21T12:42:53Z</time>
      </trkpt>
      <trkpt lat="44.99713" lon="6.42365">
        <ele>2960</ele>
        <time>2020-01-21T12:42:54Z</time>
      </trkpt>
      <trkpt lat="44.99718" lon="6.42374">
        <ele>2956</ele>
        <time>2020-01-21T12:42:56Z</time>
      </trkpt>
      <trkpt lat="44.99721" lon="6.42378">
        <ele>2955</ele>
        <time>2020-01-21T12:42:57Z</time>
      </trkpt>
      <trkpt lat="44.99726" lon="6.42393">
        <ele>2951</ele>
        <time>2020-01-21T12:42:59Z</time>
      </trkpt>
      <trkpt lat="44.99729" lon="6.42397">
        <ele>2948</ele>
        <time>2020-01-21T12:43:00Z</time>
      </trkpt>
      <trkpt lat="44.99732" lon="6.42409">
        <ele>2943</ele>
        <time>2020-01-21T12:43:02Z</time>
      </trkpt>
      <trkpt lat="44.99735" lon="6.42412">
        <ele>2941</ele>
        <time>2020-01-21T12:43:03Z</time>
      </trkpt>
      <trkpt lat="44.99737" lon="6.42409">
        <ele>2935</ele>
        <time>2020-01-21T12:43:05Z</time>
      </trkpt>
      <trkpt lat="44.99737" lon="6.42406">
        <ele>2931</ele>
        <time>2020-01-21T12:43:13Z</time>
      </trkpt>
      <trkpt lat="44.99736" lon="6.42403">
        <ele>2928</ele>
        <time>2020-01-21T12:43:19Z</time>
      </trkpt>
      <trkpt lat="44.99735" lon="6.42407">
        <ele>2926</ele>
        <time>2020-01-21T12:43:23Z</time>
      </trkpt>
      <trkpt lat="44.99738" lon="6.42415">
        <ele>2921</ele>
        <time>2020-01-21T12:43:25Z</time>
      </trkpt>
      <trkpt lat="44.99739" lon="6.42425">
        <ele>2917</ele>
        <time>2020-01-21T12:43:26Z</time>
      </trkpt>
      <trkpt lat="44.99745" lon="6.42432">
        <ele>2914</ele>
        <time>2020-01-21T12:43:27Z</time>
      </trkpt>
      <trkpt lat="44.99751" lon="6.42431">
        <ele>2910</ele>
        <time>2020-01-21T12:43:28Z</time>
      </trkpt>
      <trkpt lat="44.99757" lon="6.4243">
        <ele>2908</ele>
        <time>2020-01-21T12:43:29Z</time>
      </trkpt>
      <trkpt lat="44.99765" lon="6.42447">
        <ele>2902</ele>
        <time>2020-01-21T12:43:32Z</time>
      </trkpt>
      <trkpt lat="44.99767" lon="6.42459">
        <ele>2898</ele>
        <time>2020-01-21T12:43:34Z</time>
      </trkpt>
      <trkpt lat="44.99775" lon="6.4246">
        <ele>2893</ele>
        <time>2020-01-21T12:43:36Z</time>
      </trkpt>
      <trkpt lat="44.99777" lon="6.42465">
        <ele>2892</ele>
        <time>2020-01-21T12:43:37Z</time>
      </trkpt>
      <trkpt lat="44.99782" lon="6.42478">
        <ele>2887</ele>
        <time>2020-01-21T12:43:39Z</time>
      </trkpt>
      <trkpt lat="44.99785" lon="6.42485">
        <ele>2885</ele>
        <time>2020-01-21T12:43:40Z</time>
      </trkpt>
      <trkpt lat="44.99795" lon="6.42494">
        <ele>2878</ele>
        <time>2020-01-21T12:43:43Z</time>
      </trkpt>
      <trkpt lat="44.99798" lon="6.42493">
        <ele>2875</ele>
        <time>2020-01-21T12:43:44Z</time>
      </trkpt>
      <trkpt lat="44.99804" lon="6.42489">
        <ele>2870</ele>
        <time>2020-01-21T12:43:45Z</time>
      </trkpt>
      <trkpt lat="44.99806" lon="6.42484">
        <ele>2867</ele>
        <time>2020-01-21T12:43:46Z</time>
      </trkpt>
      <trkpt lat="44.99806" lon="6.42481">
        <ele>2862</ele>
        <time>2020-01-21T12:43:48Z</time>
      </trkpt>
      <trkpt lat="44.99807" lon="6.4248">
        <ele>2857</ele>
        <time>2020-01-21T12:44:24Z</time>
      </trkpt>
      <trkpt lat="44.99813" lon="6.4248">
        <ele>2853</ele>
        <time>2020-01-21T12:44:26Z</time>
      </trkpt>
      <trkpt lat="44.99817" lon="6.4248">
        <ele>2851</ele>
        <time>2020-01-21T12:44:27Z</time>
      </trkpt>
      <trkpt lat="44.9982" lon="6.42483">
        <ele>2848</ele>
        <time>2020-01-21T12:44:28Z</time>
      </trkpt>
      <trkpt lat="44.99832" lon="6.42486">
        <ele>2843</ele>
        <time>2020-01-21T12:44:30Z</time>
      </trkpt>
      <trkpt lat="44.99835" lon="6.42492">
        <ele>2841</ele>
        <time>2020-01-21T12:44:31Z</time>
      </trkpt>
      <trkpt lat="44.99835" lon="6.42499">
        <ele>2839</ele>
        <time>2020-01-21T12:44:32Z</time>
      </trkpt>
      <trkpt lat="44.99839" lon="6.42502">
        <ele>2835</ele>
        <time>2020-01-21T12:44:33Z</time>
      </trkpt>
      <trkpt lat="44.99849" lon="6.42518">
        <ele>2829</ele>
        <time>2020-01-21T12:44:36Z</time>
      </trkpt>
      <trkpt lat="44.99854" lon="6.42518">
        <ele>2826</ele>
        <time>2020-01-21T12:44:37Z</time>
      </trkpt>
      <trkpt lat="44.99859" lon="6.42529">
        <ele>2823</ele>
        <time>2020-01-21T12:44:39Z</time>
      </trkpt>
      <trkpt lat="44.99865" lon="6.42535">
        <ele>2820</ele>
        <time>2020-01-21T12:44:41Z</time>
      </trkpt>
      <trkpt lat="44.99878" lon="6.42542">
        <ele>2810</ele>
        <time>2020-01-21T12:44:44Z</time>
      </trkpt>
      <trkpt lat="44.99889" lon="6.42547">
        <ele>2804</ele>
        <time>2020-01-21T12:44:46Z</time>
      </trkpt>
      <trkpt lat="44.99893" lon="6.42552">
        <ele>2802</ele>
        <time>2020-01-21T12:44:47Z</time>
      </trkpt>
      <trkpt lat="44.99898" lon="6.42552">
        <ele>2796</ele>
        <time>2020-01-21T12:44:48Z</time>
      </trkpt>
      <trkpt lat="44.99902" lon="6.42547">
        <ele>2794</ele>
        <time>2020-01-21T12:44:49Z</time>
      </trkpt>
      <trkpt lat="44.99901" lon="6.42545">
        <ele>2781</ele>
        <time>2020-01-21T12:44:54Z</time>
      </trkpt>
      <trkpt lat="44.99902" lon="6.42542">
        <ele>2772</ele>
        <time>2020-01-21T12:45:31Z</time>
      </trkpt>
      <trkpt lat="44.99901" lon="6.42544">
        <ele>2767</ele>
        <time>2020-01-21T12:45:50Z</time>
      </trkpt>
      <trkpt lat="44.99897" lon="6.42573">
        <ele>2763</ele>
        <time>2020-01-21T12:45:56Z</time>
      </trkpt>
      <trkpt lat="44.999" lon="6.42579">
        <ele>2762</ele>
        <time>2020-01-21T12:45:57Z</time>
      </trkpt>
      <trkpt lat="44.99908" lon="6.42591">
        <ele>2756</ele>
        <time>2020-01-21T12:45:59Z</time>
      </trkpt>
      <trkpt lat="44.99913" lon="6.42596">
        <ele>2754</ele>
        <time>2020-01-21T12:46:00Z</time>
      </trkpt>
      <trkpt lat="44.99926" lon="6.42614">
        <ele>2746</ele>
        <time>2020-01-21T12:46:03Z</time>
      </trkpt>
      <trkpt lat="44.99925" lon="6.42611">
        <ele>2739</ele>
        <time>2020-01-21T12:46:39Z</time>
      </trkpt>
      <trkpt lat="44.99927" lon="6.42616">
        <ele>2733</ele>
        <time>2020-01-21T12:48:08Z</time>
      </trkpt>
      <trkpt lat="44.99927" lon="6.42622">
        <ele>2725</ele>
        <time>2020-01-21T12:48:09Z</time>
      </trkpt>
      <trkpt lat="44.9993" lon="6.42627">
        <ele>2721</ele>
        <time>2020-01-21T12:48:10Z</time>
      </trkpt>
      <trkpt lat="44.99934" lon="6.42628">
        <ele>2715</ele>
        <time>2020-01-21T12:48:11Z</time>
      </trkpt>
      <trkpt lat="44.99938" lon="6.42639">
        <ele>2709</ele>
        <time>2020-01-21T12:48:13Z</time>
      </trkpt>
      <trkpt lat="44.99946" lon="6.42648">
        <ele>2702</ele>
        <time>2020-01-21T12:48:15Z</time>
      </trkpt>
      <trkpt lat="44.99954" lon="6.42668">
        <ele>2690</ele>
        <time>2020-01-21T12:48:18Z</time>
      </trkpt>
      <trkpt lat="44.99957" lon="6.42671">
        <ele>2684</ele>
        <time>2020-01-21T12:48:19Z</time>
      </trkpt>
      <trkpt lat="44.99961" lon="6.42685">
        <ele>2675</ele>
        <time>2020-01-21T12:48:21Z</time>
      </trkpt>
      <trkpt lat="44.99971" lon="6.42702">
        <ele>2666</ele>
        <time>2020-01-21T12:48:24Z</time>
      </trkpt>
      <trkpt lat="44.99976" lon="6.42714">
        <ele>2658</ele>
        <time>2020-01-21T12:48:26Z</time>
      </trkpt>
      <trkpt lat="44.9998" lon="6.42719">
        <ele>2653</ele>
        <time>2020-01-21T12:48:27Z</time>
      </trkpt>
      <trkpt lat="44.99983" lon="6.42727">
        <ele>2650</ele>
        <time>2020-01-21T12:48:28Z</time>
      </trkpt>
      <trkpt lat="44.99987" lon="6.42733">
        <ele>2645</ele>
        <time>2020-01-21T12:48:29Z</time>
      </trkpt>
      <trkpt lat="44.99994" lon="6.42737">
        <ele>2641</ele>
        <time>2020-01-21T12:48:30Z</time>
      </trkpt>
      <trkpt lat="44.99995" lon="6.42748">
        <ele>2634</ele>
        <time>2020-01-21T12:48:31Z</time>
      </trkpt>
      <trkpt lat="44.99991" lon="6.42758">
        <ele>2631</ele>
        <time>2020-01-21T12:48:32Z</time>
      </trkpt>
      <trkpt lat="44.99992" lon="6.42764">
        <ele>2626</ele>
        <time>2020-01-21T12:48:33Z</time>
      </trkpt>
      <trkpt lat="45" lon="6.42776">
        <ele>2619</ele>
        <time>2020-01-21T12:48:35Z</time>
      </trkpt>
      <trkpt lat="45.00005" lon="6.42781">
        <ele>2617</ele>
        <time>2020-01-21T12:48:36Z</time>
      </trkpt>
      <trkpt lat="45.00011" lon="6.42781">
        <ele>2614</ele>
        <time>2020-01-21T12:48:37Z</time>
      </trkpt>
      <trkpt lat="45.00018" lon="6.42775">
        <ele>2611</ele>
        <time>2020-01-21T12:48:39Z</time>
      </trkpt>
      <trkpt lat="45.00019" lon="6.4277">
        <ele>2611</ele>
        <time>2020-01-21T12:48:41Z</time>
      </trkpt>
      <trkpt lat="45.00019" lon="6.42773">
        <ele>2604</ele>
        <time>2020-01-21T12:49:54Z</time>
      </trkpt>
      <trkpt lat="45.00017" lon="6.42781">
        <ele>2599</ele>
        <time>2020-01-21T12:49:56Z</time>
      </trkpt>
      <trkpt lat="45.00016" lon="6.42787">
        <ele>2596</ele>
        <time>2020-01-21T12:49:57Z</time>
      </trkpt>
      <trkpt lat="45.00019" lon="6.42791">
        <ele>2594</ele>
        <time>2020-01-21T12:49:58Z</time>
      </trkpt>
      <trkpt lat="45.00022" lon="6.42797">
        <ele>2589</ele>
        <time>2020-01-21T12:49:59Z</time>
      </trkpt>
      <trkpt lat="45.00021" lon="6.42808">
        <ele>2586</ele>
        <time>2020-01-21T12:50:00Z</time>
      </trkpt>
      <trkpt lat="45.00028" lon="6.42822">
        <ele>2580</ele>
        <time>2020-01-21T12:50:02Z</time>
      </trkpt>
      <trkpt lat="45.00038" lon="6.42848">
        <ele>2570</ele>
        <time>2020-01-21T12:50:05Z</time>
      </trkpt>
      <trkpt lat="45.00042" lon="6.42853">
        <ele>2568</ele>
        <time>2020-01-21T12:50:06Z</time>
      </trkpt>
      <trkpt lat="45.0005" lon="6.42853">
        <ele>2564</ele>
        <time>2020-01-21T12:50:07Z</time>
      </trkpt>
      <trkpt lat="45.00057" lon="6.42849">
        <ele>2561</ele>
        <time>2020-01-21T12:50:08Z</time>
      </trkpt>
      <trkpt lat="45.00062" lon="6.42852">
        <ele>2560</ele>
        <time>2020-01-21T12:50:09Z</time>
      </trkpt>
      <trkpt lat="45.00064" lon="6.42861">
        <ele>2556</ele>
        <time>2020-01-21T12:50:10Z</time>
      </trkpt>
      <trkpt lat="45.00067" lon="6.42868">
        <ele>2553</ele>
        <time>2020-01-21T12:50:11Z</time>
      </trkpt>
      <trkpt lat="45.00073" lon="6.42871">
        <ele>2550</ele>
        <time>2020-01-21T12:50:12Z</time>
      </trkpt>
      <trkpt lat="45.00077" lon="6.42875">
        <ele>2549</ele>
        <time>2020-01-21T12:50:13Z</time>
      </trkpt>
      <trkpt lat="45.00078" lon="6.42886">
        <ele>2546</ele>
        <time>2020-01-21T12:50:14Z</time>
      </trkpt>
      <trkpt lat="45.00086" lon="6.42886">
        <ele>2542</ele>
        <time>2020-01-21T12:50:16Z</time>
      </trkpt>
      <trkpt lat="45.00085" lon="6.42884">
        <ele>2532</ele>
        <time>2020-01-21T12:50:25Z</time>
      </trkpt>
      <trkpt lat="45.00085" lon="6.4289">
        <ele>2530</ele>
        <time>2020-01-21T12:50:27Z</time>
      </trkpt>
      <trkpt lat="45.00083" lon="6.42893">
        <ele>2528</ele>
        <time>2020-01-21T12:50:30Z</time>
      </trkpt>
      <trkpt lat="45.00085" lon="6.42913">
        <ele>2524</ele>
        <time>2020-01-21T12:50:40Z</time>
      </trkpt>
      <trkpt lat="45.00089" lon="6.42916">
        <ele>2523</ele>
        <time>2020-01-21T12:50:41Z</time>
      </trkpt>
      <trkpt lat="45.00094" lon="6.42913">
        <ele>2520</ele>
        <time>2020-01-21T12:50:42Z</time>
      </trkpt>
      <trkpt lat="45.00098" lon="6.42908">
        <ele>2518</ele>
        <time>2020-01-21T12:50:43Z</time>
      </trkpt>
      <trkpt lat="45.0012" lon="6.42889">
        <ele>2512</ele>
        <time>2020-01-21T12:50:48Z</time>
      </trkpt>
      <trkpt lat="45.00125" lon="6.42888">
        <ele>2512</ele>
        <time>2020-01-21T12:50:49Z</time>
      </trkpt>
      <trkpt lat="45.0013" lon="6.42893">
        <ele>2511</ele>
        <time>2020-01-21T12:50:50Z</time>
      </trkpt>
      <trkpt lat="45.00136" lon="6.429">
        <ele>2509</ele>
        <time>2020-01-21T12:50:51Z</time>
      </trkpt>
      <trkpt lat="45.00148" lon="6.429">
        <ele>2506</ele>
        <time>2020-01-21T12:50:53Z</time>
      </trkpt>
      <trkpt lat="45.00154" lon="6.42907">
        <ele>2505</ele>
        <time>2020-01-21T12:50:54Z</time>
      </trkpt>
      <trkpt lat="45.00167" lon="6.42916">
        <ele>2501</ele>
        <time>2020-01-21T12:50:56Z</time>
      </trkpt>
      <trkpt lat="45.00177" lon="6.4293">
        <ele>2498</ele>
        <time>2020-01-21T12:50:58Z</time>
      </trkpt>
      <trkpt lat="45.00187" lon="6.42936">
        <ele>2495</ele>
        <time>2020-01-21T12:51:00Z</time>
      </trkpt>
      <trkpt lat="45.00189" lon="6.42946">
        <ele>2492</ele>
        <time>2020-01-21T12:51:01Z</time>
      </trkpt>
      <trkpt lat="45.00194" lon="6.42947">
        <ele>2490</ele>
        <time>2020-01-21T12:51:02Z</time>
      </trkpt>
      <trkpt lat="45.00204" lon="6.42942">
        <ele>2484</ele>
        <time>2020-01-21T12:51:04Z</time>
      </trkpt>
      <trkpt lat="45.00209" lon="6.42949">
        <ele>2481</ele>
        <time>2020-01-21T12:51:05Z</time>
      </trkpt>
      <trkpt lat="45.00212" lon="6.42953">
        <ele>2479</ele>
        <time>2020-01-21T12:51:06Z</time>
      </trkpt>
      <trkpt lat="45.00218" lon="6.42953">
        <ele>2474</ele>
        <time>2020-01-21T12:51:07Z</time>
      </trkpt>
      <trkpt lat="45.0024" lon="6.42948">
        <ele>2463</ele>
        <time>2020-01-21T12:51:10Z</time>
      </trkpt>
      <trkpt lat="45.00242" lon="6.42958">
        <ele>2462</ele>
        <time>2020-01-21T12:51:11Z</time>
      </trkpt>
      <trkpt lat="45.00238" lon="6.42974">
        <ele>2458</ele>
        <time>2020-01-21T12:51:13Z</time>
      </trkpt>
      <trkpt lat="45.00236" lon="6.42974">
        <ele>2452</ele>
        <time>2020-01-21T12:51:18Z</time>
      </trkpt>
      <trkpt lat="45.00236" lon="6.42973">
        <ele>2449</ele>
        <time>2020-01-21T12:51:36Z</time>
      </trkpt>
      <trkpt lat="45.00238" lon="6.42978">
        <ele>2449</ele>
        <time>2020-01-21T12:51:38Z</time>
      </trkpt>
      <trkpt lat="45.0024" lon="6.42981">
        <ele>2446</ele>
        <time>2020-01-21T12:51:39Z</time>
      </trkpt>
      <trkpt lat="45.00248" lon="6.42982">
        <ele>2441</ele>
        <time>2020-01-21T12:51:57Z</time>
      </trkpt>
      <trkpt lat="45.00251" lon="6.42987">
        <ele>2439</ele>
        <time>2020-01-21T12:51:58Z</time>
      </trkpt>
      <trkpt lat="45.0025" lon="6.42997">
        <ele>2437</ele>
        <time>2020-01-21T12:51:59Z</time>
      </trkpt>
      <trkpt lat="45.00253" lon="6.43003">
        <ele>2435</ele>
        <time>2020-01-21T12:52:00Z</time>
      </trkpt>
      <trkpt lat="45.00266" lon="6.43004">
        <ele>2431</ele>
        <time>2020-01-21T12:52:02Z</time>
      </trkpt>
      <trkpt lat="45.00278" lon="6.43014">
        <ele>2428</ele>
        <time>2020-01-21T12:52:04Z</time>
      </trkpt>
      <trkpt lat="45.00284" lon="6.43019">
        <ele>2426</ele>
        <time>2020-01-21T12:52:05Z</time>
      </trkpt>
      <trkpt lat="45.00298" lon="6.43031">
        <ele>2411</ele>
        <time>2020-01-21T12:52:08Z</time>
      </trkpt>
      <trkpt lat="45.00304" lon="6.43057">
        <ele>2390</ele>
        <time>2020-01-21T12:52:10Z</time>
      </trkpt>
      <trkpt lat="45.00314" lon="6.43069">
        <ele>2387</ele>
        <time>2020-01-21T12:52:12Z</time>
      </trkpt>
      <trkpt lat="45.00318" lon="6.4308">
        <ele>2387</ele>
        <time>2020-01-21T12:52:13Z</time>
      </trkpt>
      <trkpt lat="45.00318" lon="6.43091">
        <ele>2387</ele>
        <time>2020-01-21T12:52:14Z</time>
      </trkpt>
      <trkpt lat="45.00315" lon="6.43117">
        <ele>2387</ele>
        <time>2020-01-21T12:52:16Z</time>
      </trkpt>
      <trkpt lat="45.00311" lon="6.43129">
        <ele>2385</ele>
        <time>2020-01-21T12:52:17Z</time>
      </trkpt>
      <trkpt lat="45.00302" lon="6.43163">
        <ele>2378</ele>
        <time>2020-01-21T12:52:20Z</time>
      </trkpt>
      <trkpt lat="45.003" lon="6.43175">
        <ele>2375</ele>
        <time>2020-01-21T12:52:21Z</time>
      </trkpt>
      <trkpt lat="45.00297" lon="6.43186">
        <ele>2372</ele>
        <time>2020-01-21T12:52:22Z</time>
      </trkpt>
      <trkpt lat="45.00296" lon="6.43195">
        <ele>2369</ele>
        <time>2020-01-21T12:52:23Z</time>
      </trkpt>
      <trkpt lat="45.00301" lon="6.43202">
        <ele>2365</ele>
        <time>2020-01-21T12:52:24Z</time>
      </trkpt>
      <trkpt lat="45.00309" lon="6.43208">
        <ele>2361</ele>
        <time>2020-01-21T12:52:25Z</time>
      </trkpt>
      <trkpt lat="45.0031" lon="6.43217">
        <ele>2359</ele>
        <time>2020-01-21T12:52:26Z</time>
      </trkpt>
      <trkpt lat="45.00311" lon="6.43228">
        <ele>2354</ele>
        <time>2020-01-21T12:52:27Z</time>
      </trkpt>
      <trkpt lat="45.00315" lon="6.43237">
        <ele>2351</ele>
        <time>2020-01-21T12:52:28Z</time>
      </trkpt>
      <trkpt lat="45.00316" lon="6.43245">
        <ele>2349</ele>
        <time>2020-01-21T12:52:29Z</time>
      </trkpt>
      <trkpt lat="45.00315" lon="6.43253">
        <ele>2346</ele>
        <time>2020-01-21T12:52:30Z</time>
      </trkpt>
      <trkpt lat="45.00318" lon="6.43257">
        <ele>2345</ele>
        <time>2020-01-21T12:52:31Z</time>
      </trkpt>
      <trkpt lat="45.00319" lon="6.43253">
        <ele>2339</ele>
        <time>2020-01-21T12:53:34Z</time>
      </trkpt>
      <trkpt lat="45.0032" lon="6.43253">
        <ele>2339</ele>
        <time>2020-01-21T12:53:36Z</time>
      </trkpt>
      <trkpt lat="45.00319" lon="6.43252">
        <ele>2340</ele>
        <time>2020-01-21T12:54:57Z</time>
      </trkpt>
      <trkpt lat="45.00316" lon="6.43256">
        <ele>2340</ele>
        <time>2020-01-21T12:55:13Z</time>
      </trkpt>
      <trkpt lat="45.00313" lon="6.43259">
        <ele>2342</ele>
        <time>2020-01-21T12:55:19Z</time>
      </trkpt>
      <trkpt lat="45.00312" lon="6.43254">
        <ele>2342</ele>
        <time>2020-01-21T12:55:24Z</time>
      </trkpt>
      <trkpt lat="45.00316" lon="6.43255">
        <ele>2342</ele>
        <time>2020-01-21T12:55:38Z</time>
      </trkpt>
      <trkpt lat="45.00316" lon="6.43261">
        <ele>2341</ele>
        <time>2020-01-21T12:55:56Z</time>
      </trkpt>
      <trkpt lat="45.00308" lon="6.43288">
        <ele>2335</ele>
        <time>2020-01-21T12:56:04Z</time>
      </trkpt>
      <trkpt lat="45.00303" lon="6.43309">
        <ele>2332</ele>
        <time>2020-01-21T12:56:07Z</time>
      </trkpt>
      <trkpt lat="45.00306" lon="6.43327">
        <ele>2329</ele>
        <time>2020-01-21T12:56:09Z</time>
      </trkpt>
      <trkpt lat="45.00305" lon="6.43338">
        <ele>2327</ele>
        <time>2020-01-21T12:56:10Z</time>
      </trkpt>
      <trkpt lat="45.00307" lon="6.43348">
        <ele>2325</ele>
        <time>2020-01-21T12:56:11Z</time>
      </trkpt>
      <trkpt lat="45.00309" lon="6.4336">
        <ele>2324</ele>
        <time>2020-01-21T12:56:12Z</time>
      </trkpt>
      <trkpt lat="45.00305" lon="6.43372">
        <ele>2322</ele>
        <time>2020-01-21T12:56:13Z</time>
      </trkpt>
      <trkpt lat="45.00299" lon="6.43384">
        <ele>2320</ele>
        <time>2020-01-21T12:56:14Z</time>
      </trkpt>
      <trkpt lat="45.00295" lon="6.43395">
        <ele>2317</ele>
        <time>2020-01-21T12:56:15Z</time>
      </trkpt>
      <trkpt lat="45.0029" lon="6.43405">
        <ele>2315</ele>
        <time>2020-01-21T12:56:16Z</time>
      </trkpt>
      <trkpt lat="45.00287" lon="6.43416">
        <ele>2313</ele>
        <time>2020-01-21T12:56:17Z</time>
      </trkpt>
      <trkpt lat="45.00284" lon="6.43427">
        <ele>2311</ele>
        <time>2020-01-21T12:56:18Z</time>
      </trkpt>
      <trkpt lat="45.0025" lon="6.43524">
        <ele>2294</ele>
        <time>2020-01-21T12:56:28Z</time>
      </trkpt>
      <trkpt lat="45.00221" lon="6.43575">
        <ele>2286</ele>
        <time>2020-01-21T12:56:36Z</time>
      </trkpt>
      <trkpt lat="45.0022" lon="6.43583">
        <ele>2286</ele>
        <time>2020-01-21T12:56:37Z</time>
      </trkpt>
      <trkpt lat="45.00221" lon="6.43593">
        <ele>2283</ele>
        <time>2020-01-21T12:56:38Z</time>
      </trkpt>
      <trkpt lat="45.0022" lon="6.43602">
        <ele>2280</ele>
        <time>2020-01-21T12:56:39Z</time>
      </trkpt>
      <trkpt lat="45.00222" lon="6.43612">
        <ele>2277</ele>
        <time>2020-01-21T12:56:40Z</time>
      </trkpt>
      <trkpt lat="45.00226" lon="6.43621">
        <ele>2273</ele>
        <time>2020-01-21T12:56:41Z</time>
      </trkpt>
      <trkpt lat="45.00226" lon="6.43633">
        <ele>2270</ele>
        <time>2020-01-21T12:56:42Z</time>
      </trkpt>
      <trkpt lat="45.00223" lon="6.43647">
        <ele>2267</ele>
        <time>2020-01-21T12:56:43Z</time>
      </trkpt>
      <trkpt lat="45.00227" lon="6.43662">
        <ele>2264</ele>
        <time>2020-01-21T12:56:44Z</time>
      </trkpt>
      <trkpt lat="45.00231" lon="6.43676">
        <ele>2261</ele>
        <time>2020-01-21T12:56:45Z</time>
      </trkpt>
      <trkpt lat="45.00231" lon="6.43691">
        <ele>2257</ele>
        <time>2020-01-21T12:56:46Z</time>
      </trkpt>
      <trkpt lat="45.00232" lon="6.43707">
        <ele>2254</ele>
        <time>2020-01-21T12:56:47Z</time>
      </trkpt>
      <trkpt lat="45.00241" lon="6.43737">
        <ele>2249</ele>
        <time>2020-01-21T12:56:49Z</time>
      </trkpt>
      <trkpt lat="45.00244" lon="6.4375">
        <ele>2246</ele>
        <time>2020-01-21T12:56:50Z</time>
      </trkpt>
      <trkpt lat="45.00239" lon="6.43797">
        <ele>2240</ele>
        <time>2020-01-21T12:56:53Z</time>
      </trkpt>
      <trkpt lat="45.00244" lon="6.43846">
        <ele>2235</ele>
        <time>2020-01-21T12:56:57Z</time>
      </trkpt>
      <trkpt lat="45.00236" lon="6.43938">
        <ele>2225</ele>
        <time>2020-01-21T12:57:08Z</time>
      </trkpt>
      <trkpt lat="45.00233" lon="6.43949">
        <ele>2223</ele>
        <time>2020-01-21T12:57:09Z</time>
      </trkpt>
      <trkpt lat="45.0023" lon="6.43961">
        <ele>2221</ele>
        <time>2020-01-21T12:57:10Z</time>
      </trkpt>
      <trkpt lat="45.00218" lon="6.44008">
        <ele>2216</ele>
        <time>2020-01-21T12:57:14Z</time>
      </trkpt>
      <trkpt lat="45.00206" lon="6.44107">
        <ele>2211</ele>
        <time>2020-01-21T12:57:26Z</time>
      </trkpt>
      <trkpt lat="45.00207" lon="6.44112">
        <ele>2211</ele>
        <time>2020-01-21T12:57:27Z</time>
      </trkpt>
      <trkpt lat="45.00209" lon="6.44122">
        <ele>2211</ele>
        <time>2020-01-21T12:57:32Z</time>
      </trkpt>
      <trkpt lat="45.0021" lon="6.4419">
        <ele>2209</ele>
        <time>2020-01-21T12:57:54Z</time>
      </trkpt>
      <trkpt lat="45.0021" lon="6.44194">
        <ele>2209</ele>
        <time>2020-01-21T12:57:55Z</time>
      </trkpt>
      <trkpt lat="45.00214" lon="6.44203">
        <ele>2208</ele>
        <time>2020-01-21T12:57:57Z</time>
      </trkpt>
      <trkpt lat="45.00217" lon="6.44208">
        <ele>2208</ele>
        <time>2020-01-21T12:57:58Z</time>
      </trkpt>
      <trkpt lat="45.00221" lon="6.44213">
        <ele>2207</ele>
        <time>2020-01-21T12:57:59Z</time>
      </trkpt>
      <trkpt lat="45.00225" lon="6.44217">
        <ele>2206</ele>
        <time>2020-01-21T12:58:00Z</time>
      </trkpt>
      <trkpt lat="45.00226" lon="6.44223">
        <ele>2206</ele>
        <time>2020-01-21T12:58:01Z</time>
      </trkpt>
      <trkpt lat="45.00224" lon="6.44227">
        <ele>2205</ele>
        <time>2020-01-21T12:58:03Z</time>
      </trkpt>
      <trkpt lat="45.00224" lon="6.44248">
        <ele>2199</ele>
        <time>2020-01-21T12:58:16Z</time>
      </trkpt>
      <trkpt lat="45.0023" lon="6.44261">
        <ele>2197</ele>
        <time>2020-01-21T12:58:18Z</time>
      </trkpt>
      <trkpt lat="45.00233" lon="6.44269">
        <ele>2195</ele>
        <time>2020-01-21T12:58:19Z</time>
      </trkpt>
      <trkpt lat="45.00234" lon="6.44281">
        <ele>2193</ele>
        <time>2020-01-21T12:58:20Z</time>
      </trkpt>
      <trkpt lat="45.00239" lon="6.44308">
        <ele>2189</ele>
        <time>2020-01-21T12:58:22Z</time>
      </trkpt>
      <trkpt lat="45.00327" lon="6.44521">
        <ele>2169</ele>
        <time>2020-01-21T12:58:52Z</time>
      </trkpt>
      <trkpt lat="45.00343" lon="6.44543">
        <ele>2166</ele>
        <time>2020-01-21T12:58:58Z</time>
      </trkpt>
      <trkpt lat="45.00348" lon="6.44544">
        <ele>2165</ele>
        <time>2020-01-21T12:58:59Z</time>
      </trkpt>
      <trkpt lat="45.0035" lon="6.44547">
        <ele>2165</ele>
        <time>2020-01-21T12:59:00Z</time>
      </trkpt>
      <trkpt lat="45.00354" lon="6.4455">
        <ele>2164</ele>
        <time>2020-01-21T12:59:01Z</time>
      </trkpt>
      <trkpt lat="45.00364" lon="6.44568">
        <ele>2164</ele>
        <time>2020-01-21T12:59:05Z</time>
      </trkpt>
      <trkpt lat="45.00418" lon="6.44644">
        <ele>2148</ele>
        <time>2020-01-21T12:59:25Z</time>
      </trkpt>
      <trkpt lat="45.00416" lon="6.44652">
        <ele>2147</ele>
        <time>2020-01-21T12:59:26Z</time>
      </trkpt>
      <trkpt lat="45.0041" lon="6.44659">
        <ele>2144</ele>
        <time>2020-01-21T12:59:27Z</time>
      </trkpt>
      <trkpt lat="45.00408" lon="6.44669">
        <ele>2142</ele>
        <time>2020-01-21T12:59:28Z</time>
      </trkpt>
      <trkpt lat="45.00415" lon="6.44688">
        <ele>2138</ele>
        <time>2020-01-21T12:59:30Z</time>
      </trkpt>
      <trkpt lat="45.00405" lon="6.44707">
        <ele>2130</ele>
        <time>2020-01-21T12:59:32Z</time>
      </trkpt>
      <trkpt lat="45.00412" lon="6.44727">
        <ele>2120</ele>
        <time>2020-01-21T12:59:34Z</time>
      </trkpt>
      <trkpt lat="45.00412" lon="6.44735">
        <ele>2118</ele>
        <time>2020-01-21T12:59:35Z</time>
      </trkpt>
      <trkpt lat="45.0041" lon="6.44746">
        <ele>2113</ele>
        <time>2020-01-21T12:59:36Z</time>
      </trkpt>
      <trkpt lat="45.00412" lon="6.44766">
        <ele>2104</ele>
        <time>2020-01-21T12:59:38Z</time>
      </trkpt>
      <trkpt lat="45.00407" lon="6.44776">
        <ele>2098</ele>
        <time>2020-01-21T12:59:39Z</time>
      </trkpt>
      <trkpt lat="45.00406" lon="6.44784">
        <ele>2094</ele>
        <time>2020-01-21T12:59:40Z</time>
      </trkpt>
      <trkpt lat="45.00412" lon="6.44804">
        <ele>2082</ele>
        <time>2020-01-21T12:59:42Z</time>
      </trkpt>
      <trkpt lat="45.00417" lon="6.44827">
        <ele>2072</ele>
        <time>2020-01-21T12:59:44Z</time>
      </trkpt>
      <trkpt lat="45.00422" lon="6.44838">
        <ele>2068</ele>
        <time>2020-01-21T12:59:45Z</time>
      </trkpt>
      <trkpt lat="45.00451" lon="6.44858">
        <ele>2060</ele>
        <time>2020-01-21T12:59:51Z</time>
      </trkpt>
      <trkpt lat="45.00452" lon="6.44868">
        <ele>2059</ele>
        <time>2020-01-21T13:00:08Z</time>
      </trkpt>
      <trkpt lat="45.00449" lon="6.44872">
        <ele>2058</ele>
        <time>2020-01-21T13:00:09Z</time>
      </trkpt>
      <trkpt lat="45.00445" lon="6.44871">
        <ele>2056</ele>
        <time>2020-01-21T13:00:10Z</time>
      </trkpt>
      <trkpt lat="45.00441" lon="6.44874">
        <ele>2055</ele>
        <time>2020-01-21T13:00:11Z</time>
      </trkpt>
      <trkpt lat="45.00441" lon="6.44884">
        <ele>2051</ele>
        <time>2020-01-21T13:00:12Z</time>
      </trkpt>
      <trkpt lat="45.00444" lon="6.44894">
        <ele>2047</ele>
        <time>2020-01-21T13:00:13Z</time>
      </trkpt>
      <trkpt lat="45.00446" lon="6.44903">
        <ele>2044</ele>
        <time>2020-01-21T13:00:14Z</time>
      </trkpt>
      <trkpt lat="45.00441" lon="6.44911">
        <ele>2042</ele>
        <time>2020-01-21T13:00:15Z</time>
      </trkpt>
      <trkpt lat="45.00439" lon="6.44922">
        <ele>2038</ele>
        <time>2020-01-21T13:00:16Z</time>
      </trkpt>
      <trkpt lat="45.00442" lon="6.44934">
        <ele>2034</ele>
        <time>2020-01-21T13:00:17Z</time>
      </trkpt>
      <trkpt lat="45.00448" lon="6.44942">
        <ele>2031</ele>
        <time>2020-01-21T13:00:18Z</time>
      </trkpt>
      <trkpt lat="45.00451" lon="6.4495">
        <ele>2028</ele>
        <time>2020-01-21T13:00:19Z</time>
      </trkpt>
      <trkpt lat="45.00449" lon="6.44961">
        <ele>2025</ele>
        <time>2020-01-21T13:00:20Z</time>
      </trkpt>
      <trkpt lat="45.0045" lon="6.44972">
        <ele>2019</ele>
        <time>2020-01-21T13:00:21Z</time>
      </trkpt>
      <trkpt lat="45.00454" lon="6.44989">
        <ele>2014</ele>
        <time>2020-01-21T13:00:22Z</time>
      </trkpt>
      <trkpt lat="45.00458" lon="6.45003">
        <ele>2009</ele>
        <time>2020-01-21T13:00:23Z</time>
      </trkpt>
      <trkpt lat="45.00473" lon="6.4504">
        <ele>2004</ele>
        <time>2020-01-21T13:00:26Z</time>
      </trkpt>
      <trkpt lat="45.0048" lon="6.45055">
        <ele>2002</ele>
        <time>2020-01-21T13:00:28Z</time>
      </trkpt>
      <trkpt lat="45.00476" lon="6.4506">
        <ele>2001</ele>
        <time>2020-01-21T13:00:29Z</time>
      </trkpt>
      <trkpt lat="45.00473" lon="6.4507">
        <ele>1999</ele>
        <time>2020-01-21T13:00:30Z</time>
      </trkpt>
      <trkpt lat="45.00475" lon="6.4508">
        <ele>1997</ele>
        <time>2020-01-21T13:00:31Z</time>
      </trkpt>
      <trkpt lat="45.00494" lon="6.45119">
        <ele>1991</ele>
        <time>2020-01-21T13:00:36Z</time>
      </trkpt>
      <trkpt lat="45.00495" lon="6.45122">
        <ele>1991</ele>
        <time>2020-01-21T13:00:37Z</time>
      </trkpt>
      <trkpt lat="45.00491" lon="6.45124">
        <ele>1989</ele>
        <time>2020-01-21T13:01:02Z</time>
      </trkpt>
      <trkpt lat="45.00452" lon="6.45113">
        <ele>1981</ele>
        <time>2020-01-21T13:01:08Z</time>
      </trkpt>
      <trkpt lat="45.00446" lon="6.45115">
        <ele>1980</ele>
        <time>2020-01-21T13:01:09Z</time>
      </trkpt>
      <trkpt lat="45.00444" lon="6.45124">
        <ele>1977</ele>
        <time>2020-01-21T13:01:10Z</time>
      </trkpt>
      <trkpt lat="45.00444" lon="6.45133">
        <ele>1974</ele>
        <time>2020-01-21T13:01:11Z</time>
      </trkpt>
      <trkpt lat="45.00442" lon="6.45143">
        <ele>1971</ele>
        <time>2020-01-21T13:01:12Z</time>
      </trkpt>
      <trkpt lat="45.00444" lon="6.45154">
        <ele>1968</ele>
        <time>2020-01-21T13:01:13Z</time>
      </trkpt>
      <trkpt lat="45.00457" lon="6.45176">
        <ele>1965</ele>
        <time>2020-01-21T13:01:16Z</time>
      </trkpt>
      <trkpt lat="45.00458" lon="6.45184">
        <ele>1963</ele>
        <time>2020-01-21T13:01:17Z</time>
      </trkpt>
      <trkpt lat="45.0046" lon="6.45194">
        <ele>1961</ele>
        <time>2020-01-21T13:01:18Z</time>
      </trkpt>
      <trkpt lat="45.00467" lon="6.4521">
        <ele>1957</ele>
        <time>2020-01-21T13:01:20Z</time>
      </trkpt>
      <trkpt lat="45.00466" lon="6.45218">
        <ele>1955</ele>
        <time>2020-01-21T13:01:21Z</time>
      </trkpt>
      <trkpt lat="45.00462" lon="6.45227">
        <ele>1953</ele>
        <time>2020-01-21T13:01:22Z</time>
      </trkpt>
      <trkpt lat="45.0046" lon="6.45237">
        <ele>1950</ele>
        <time>2020-01-21T13:01:23Z</time>
      </trkpt>
      <trkpt lat="45.00461" lon="6.45247">
        <ele>1947</ele>
        <time>2020-01-21T13:01:24Z</time>
      </trkpt>
      <trkpt lat="45.00467" lon="6.45256">
        <ele>1945</ele>
        <time>2020-01-21T13:01:25Z</time>
      </trkpt>
      <trkpt lat="45.00469" lon="6.45267">
        <ele>1944</ele>
        <time>2020-01-21T13:01:26Z</time>
      </trkpt>
      <trkpt lat="45.0047" lon="6.45277">
        <ele>1941</ele>
        <time>2020-01-21T13:01:27Z</time>
      </trkpt>
      <trkpt lat="45.00487" lon="6.45301">
        <ele>1937</ele>
        <time>2020-01-21T13:01:30Z</time>
      </trkpt>
      <trkpt lat="45.00498" lon="6.45331">
        <ele>1932</ele>
        <time>2020-01-21T13:01:33Z</time>
      </trkpt>
      <trkpt lat="45.00514" lon="6.45361">
        <ele>1929</ele>
        <time>2020-01-21T13:01:38Z</time>
      </trkpt>
      <trkpt lat="45.0052" lon="6.45381">
        <ele>1926</ele>
        <time>2020-01-21T13:01:41Z</time>
      </trkpt>
      <trkpt lat="45.00516" lon="6.45383">
        <ele>1926</ele>
        <time>2020-01-21T13:01:42Z</time>
      </trkpt>
      <trkpt lat="45.00506" lon="6.45383">
        <ele>1923</ele>
        <time>2020-01-21T13:01:44Z</time>
      </trkpt>
      <trkpt lat="45.005" lon="6.45393">
        <ele>1919</ele>
        <time>2020-01-21T13:01:46Z</time>
      </trkpt>
      <trkpt lat="45.00496" lon="6.454">
        <ele>1916</ele>
        <time>2020-01-21T13:01:47Z</time>
      </trkpt>
      <trkpt lat="45.00492" lon="6.45409">
        <ele>1914</ele>
        <time>2020-01-21T13:01:48Z</time>
      </trkpt>
      <trkpt lat="45.00491" lon="6.45422">
        <ele>1911</ele>
        <time>2020-01-21T13:01:49Z</time>
      </trkpt>
      <trkpt lat="45.00491" lon="6.45432">
        <ele>1909</ele>
        <time>2020-01-21T13:01:50Z</time>
      </trkpt>
      <trkpt lat="45.00494" lon="6.45448">
        <ele>1907</ele>
        <time>2020-01-21T13:01:52Z</time>
      </trkpt>
      <trkpt lat="45.00491" lon="6.45465">
        <ele>1904</ele>
        <time>2020-01-21T13:01:54Z</time>
      </trkpt>
      <trkpt lat="45.00487" lon="6.45483">
        <ele>1901</ele>
        <time>2020-01-21T13:01:56Z</time>
      </trkpt>
      <trkpt lat="45.00488" lon="6.45492">
        <ele>1901</ele>
        <time>2020-01-21T13:01:57Z</time>
      </trkpt>
      <trkpt lat="45.0049" lon="6.455">
        <ele>1900</ele>
        <time>2020-01-21T13:01:58Z</time>
      </trkpt>
      <trkpt lat="45.00494" lon="6.45504">
        <ele>1899</ele>
        <time>2020-01-21T13:01:59Z</time>
      </trkpt>
      <trkpt lat="45.00498" lon="6.45506">
        <ele>1898</ele>
        <time>2020-01-21T13:02:00Z</time>
      </trkpt>
      <trkpt lat="45.00497" lon="6.4551">
        <ele>1897</ele>
        <time>2020-01-21T13:02:03Z</time>
      </trkpt>
      <trkpt lat="45.00498" lon="6.45513">
        <ele>1895</ele>
        <time>2020-01-21T13:02:07Z</time>
      </trkpt>
      <trkpt lat="45.00502" lon="6.45521">
        <ele>1893</ele>
        <time>2020-01-21T13:02:10Z</time>
      </trkpt>
      <trkpt lat="45.005" lon="6.4553">
        <ele>1891</ele>
        <time>2020-01-21T13:02:13Z</time>
      </trkpt>
      <trkpt lat="45.00501" lon="6.45537">
        <ele>1889</ele>
        <time>2020-01-21T13:02:14Z</time>
      </trkpt>
      <trkpt lat="45.00505" lon="6.45551">
        <ele>1886</ele>
        <time>2020-01-21T13:02:16Z</time>
      </trkpt>
      <trkpt lat="45.00508" lon="6.45557">
        <ele>1885</ele>
        <time>2020-01-21T13:02:17Z</time>
      </trkpt>
      <trkpt lat="45.00512" lon="6.4557">
        <ele>1884</ele>
        <time>2020-01-21T13:02:19Z</time>
      </trkpt>
      <trkpt lat="45.00524" lon="6.4556">
        <ele>1883</ele>
        <time>2020-01-21T13:02:23Z</time>
      </trkpt>
      <trkpt lat="45.00529" lon="6.45564">
        <ele>1882</ele>
        <time>2020-01-21T13:02:24Z</time>
      </trkpt>
      <trkpt lat="45.00533" lon="6.4557">
        <ele>1881</ele>
        <time>2020-01-21T13:02:25Z</time>
      </trkpt>
      <trkpt lat="45.00538" lon="6.45569">
        <ele>1881</ele>
        <time>2020-01-21T13:02:26Z</time>
      </trkpt>
      <trkpt lat="45.0054" lon="6.45566">
        <ele>1880</ele>
        <time>2020-01-21T13:02:27Z</time>
      </trkpt>
      <trkpt lat="45.0054" lon="6.45566">
        <ele>1876</ele>
        <time>2020-01-21T13:02:38Z</time>
      </trkpt>
      <trkpt lat="45.00541" lon="6.45572">
        <ele>1875</ele>
        <time>2020-01-21T13:02:40Z</time>
      </trkpt>
      <trkpt lat="45.00542" lon="6.45579">
        <ele>1873</ele>
        <time>2020-01-21T13:02:41Z</time>
      </trkpt>
      <trkpt lat="45.00546" lon="6.45587">
        <ele>1872</ele>
        <time>2020-01-21T13:02:42Z</time>
      </trkpt>
      <trkpt lat="45.00548" lon="6.45591">
        <ele>1872</ele>
        <time>2020-01-21T13:02:43Z</time>
      </trkpt>
      <trkpt lat="45.00546" lon="6.45593">
        <ele>1871</ele>
        <time>2020-01-21T13:02:46Z</time>
      </trkpt>
      <trkpt lat="45.00545" lon="6.45598">
        <ele>1869</ele>
        <time>2020-01-21T13:02:55Z</time>
      </trkpt>
      <trkpt lat="45.00546" lon="6.45602">
        <ele>1867</ele>
        <time>2020-01-21T13:02:56Z</time>
      </trkpt>
      <trkpt lat="45.00551" lon="6.45606">
        <ele>1866</ele>
        <time>2020-01-21T13:02:58Z</time>
      </trkpt>
      <trkpt lat="45.00559" lon="6.45612">
        <ele>1864</ele>
        <time>2020-01-21T13:03:05Z</time>
      </trkpt>
      <trkpt lat="45.00561" lon="6.45615">
        <ele>1864</ele>
        <time>2020-01-21T13:03:12Z</time>
      </trkpt>
      <trkpt lat="45.00564" lon="6.45621">
        <ele>1864</ele>
        <time>2020-01-21T13:03:14Z</time>
      </trkpt>
      <trkpt lat="45.00563" lon="6.45627">
        <ele>1863</ele>
        <time>2020-01-21T13:03:15Z</time>
      </trkpt>
      <trkpt lat="45.00565" lon="6.45637">
        <ele>1861</ele>
        <time>2020-01-21T13:03:16Z</time>
      </trkpt>
      <trkpt lat="45.00582" lon="6.45673">
        <ele>1854</ele>
        <time>2020-01-21T13:03:20Z</time>
      </trkpt>
      <trkpt lat="45.00584" lon="6.45684">
        <ele>1851</ele>
        <time>2020-01-21T13:03:21Z</time>
      </trkpt>
      <trkpt lat="45.00587" lon="6.45696">
        <ele>1849</ele>
        <time>2020-01-21T13:03:22Z</time>
      </trkpt>
      <trkpt lat="45.00592" lon="6.45707">
        <ele>1847</ele>
        <time>2020-01-21T13:03:23Z</time>
      </trkpt>
      <trkpt lat="45.00599" lon="6.45731">
        <ele>1843</ele>
        <time>2020-01-21T13:03:25Z</time>
      </trkpt>
      <trkpt lat="45.00618" lon="6.45781">
        <ele>1836</ele>
        <time>2020-01-21T13:03:30Z</time>
      </trkpt>
      <trkpt lat="45.00626" lon="6.45794">
        <ele>1835</ele>
        <time>2020-01-21T13:03:32Z</time>
      </trkpt>
      <trkpt lat="45.0063" lon="6.45799">
        <ele>1835</ele>
        <time>2020-01-21T13:03:35Z</time>
      </trkpt>
      <trkpt lat="45.00629" lon="6.45796">
        <ele>1835</ele>
        <time>2020-01-21T13:03:42Z</time>
      </trkpt>
      <trkpt lat="45.00631" lon="6.45797">
        <ele>1834</ele>
        <time>2020-01-21T13:04:01Z</time>
      </trkpt>
      <trkpt lat="45.00634" lon="6.45794">
        <ele>1835</ele>
        <time>2020-01-21T13:04:07Z</time>
      </trkpt>
      <trkpt lat="45.00634" lon="6.45791">
        <ele>1836</ele>
        <time>2020-01-21T13:04:09Z</time>
      </trkpt>
      <trkpt lat="45.00632" lon="6.45792">
        <ele>1835</ele>
        <time>2020-01-21T13:04:10Z</time>
      </trkpt>
      <trkpt lat="45.00629" lon="6.45792">
        <ele>1834</ele>
        <time>2020-01-21T13:04:12Z</time>
      </trkpt>
      <trkpt lat="45.00624" lon="6.45789">
        <ele>1833</ele>
        <time>2020-01-21T13:04:15Z</time>
      </trkpt>
      <trkpt lat="45.00623" lon="6.45789">
        <ele>1832</ele>
        <time>2020-01-21T13:04:19Z</time>
      </trkpt>
      <trkpt lat="45.00621" lon="6.45791">
        <ele>1832</ele>
        <time>2020-01-21T13:04:20Z</time>
      </trkpt>
      <trkpt lat="45.00621" lon="6.45797">
        <ele>1831</ele>
        <time>2020-01-21T13:04:21Z</time>
      </trkpt>
      <trkpt lat="45.00623" lon="6.45804">
        <ele>1830</ele>
        <time>2020-01-21T13:04:22Z</time>
      </trkpt>
      <trkpt lat="45.0063" lon="6.45821">
        <ele>1827</ele>
        <time>2020-01-21T13:04:25Z</time>
      </trkpt>
      <trkpt lat="45.00646" lon="6.45858">
        <ele>1819</ele>
        <time>2020-01-21T13:04:32Z</time>
      </trkpt>
      <trkpt lat="45.00644" lon="6.4586">
        <ele>1818</ele>
        <time>2020-01-21T13:04:34Z</time>
      </trkpt>
      <trkpt lat="45.00632" lon="6.45856">
        <ele>1814</ele>
        <time>2020-01-21T13:04:37Z</time>
      </trkpt>
      <trkpt lat="45.00629" lon="6.4586">
        <ele>1813</ele>
        <time>2020-01-21T13:04:38Z</time>
      </trkpt>
      <trkpt lat="45.00629" lon="6.45869">
        <ele>1812</ele>
        <time>2020-01-21T13:04:39Z</time>
      </trkpt>
      <trkpt lat="45.0063" lon="6.45874">
        <ele>1811</ele>
        <time>2020-01-21T13:04:40Z</time>
      </trkpt>
      <trkpt lat="45.00628" lon="6.45881">
        <ele>1810</ele>
        <time>2020-01-21T13:04:41Z</time>
      </trkpt>
      <trkpt lat="45.0063" lon="6.45893">
        <ele>1807</ele>
        <time>2020-01-21T13:04:43Z</time>
      </trkpt>
      <trkpt lat="45.00627" lon="6.45906">
        <ele>1805</ele>
        <time>2020-01-21T13:04:45Z</time>
      </trkpt>
      <trkpt lat="45.00632" lon="6.45928">
        <ele>1802</ele>
        <time>2020-01-21T13:04:48Z</time>
      </trkpt>
      <trkpt lat="45.00633" lon="6.45933">
        <ele>1801</ele>
        <time>2020-01-21T13:04:50Z</time>
      </trkpt>
      <trkpt lat="45.00631" lon="6.45941">
        <ele>1798</ele>
        <time>2020-01-21T13:04:53Z</time>
      </trkpt>
      <trkpt lat="45.0063" lon="6.45948">
        <ele>1797</ele>
        <time>2020-01-21T13:04:54Z</time>
      </trkpt>
      <trkpt lat="45.00633" lon="6.45956">
        <ele>1795</ele>
        <time>2020-01-21T13:04:55Z</time>
      </trkpt>
      <trkpt lat="45.00642" lon="6.45969">
        <ele>1792</ele>
        <time>2020-01-21T13:04:58Z</time>
      </trkpt>
      <trkpt lat="45.00644" lon="6.45972">
        <ele>1790</ele>
        <time>2020-01-21T13:04:59Z</time>
      </trkpt>
      <trkpt lat="45.00644" lon="6.45976">
        <ele>1789</ele>
        <time>2020-01-21T13:05:00Z</time>
      </trkpt>
      <trkpt lat="45.0064" lon="6.45981">
        <ele>1787</ele>
        <time>2020-01-21T13:05:01Z</time>
      </trkpt>
      <trkpt lat="45.00639" lon="6.45991">
        <ele>1784</ele>
        <time>2020-01-21T13:05:02Z</time>
      </trkpt>
      <trkpt lat="45.00642" lon="6.45999">
        <ele>1782</ele>
        <time>2020-01-21T13:05:03Z</time>
      </trkpt>
      <trkpt lat="45.00646" lon="6.46007">
        <ele>1781</ele>
        <time>2020-01-21T13:05:04Z</time>
      </trkpt>
      <trkpt lat="45.00646" lon="6.46011">
        <ele>1781</ele>
        <time>2020-01-21T13:05:05Z</time>
      </trkpt>
      <trkpt lat="45.00643" lon="6.46017">
        <ele>1781</ele>
        <time>2020-01-21T13:05:06Z</time>
      </trkpt>
      <trkpt lat="45.00644" lon="6.46027">
        <ele>1779</ele>
        <time>2020-01-21T13:05:07Z</time>
      </trkpt>
      <trkpt lat="45.00656" lon="6.46041">
        <ele>1775</ele>
        <time>2020-01-21T13:05:09Z</time>
      </trkpt>
      <trkpt lat="45.00657" lon="6.46046">
        <ele>1774</ele>
        <time>2020-01-21T13:05:10Z</time>
      </trkpt>
      <trkpt lat="45.00655" lon="6.46055">
        <ele>1773</ele>
        <time>2020-01-21T13:05:11Z</time>
      </trkpt>
      <trkpt lat="45.00658" lon="6.46064">
        <ele>1771</ele>
        <time>2020-01-21T13:05:12Z</time>
      </trkpt>
      <trkpt lat="45.00669" lon="6.46076">
        <ele>1766</ele>
        <time>2020-01-21T13:05:14Z</time>
      </trkpt>
      <trkpt lat="45.0067" lon="6.46082">
        <ele>1765</ele>
        <time>2020-01-21T13:05:15Z</time>
      </trkpt>
      <trkpt lat="45.00671" lon="6.4609">
        <ele>1763</ele>
        <time>2020-01-21T13:05:16Z</time>
      </trkpt>
      <trkpt lat="45.00682" lon="6.46112">
        <ele>1760</ele>
        <time>2020-01-21T13:05:19Z</time>
      </trkpt>
      <trkpt lat="45.00678" lon="6.46119">
        <ele>1759</ele>
        <time>2020-01-21T13:05:21Z</time>
      </trkpt>
      <trkpt lat="45.00673" lon="6.46121">
        <ele>1758</ele>
        <time>2020-01-21T13:05:22Z</time>
      </trkpt>
      <trkpt lat="45.0067" lon="6.46129">
        <ele>1754</ele>
        <time>2020-01-21T13:05:23Z</time>
      </trkpt>
      <trkpt lat="45.00671" lon="6.46134">
        <ele>1751</ele>
        <time>2020-01-21T13:05:24Z</time>
      </trkpt>
      <trkpt lat="45.00676" lon="6.46145">
        <ele>1748</ele>
        <time>2020-01-21T13:05:26Z</time>
      </trkpt>
      <trkpt lat="45.00674" lon="6.46152">
        <ele>1745</ele>
        <time>2020-01-21T13:05:28Z</time>
      </trkpt>
      <trkpt lat="45.00665" lon="6.46163">
        <ele>1742</ele>
        <time>2020-01-21T13:05:31Z</time>
      </trkpt>
      <trkpt lat="45.00664" lon="6.46171">
        <ele>1741</ele>
        <time>2020-01-21T13:05:33Z</time>
      </trkpt>
      <trkpt lat="45.00666" lon="6.46179">
        <ele>1738</ele>
        <time>2020-01-21T13:05:36Z</time>
      </trkpt>
      <trkpt lat="45.00668" lon="6.46188">
        <ele>1736</ele>
        <time>2020-01-21T13:05:37Z</time>
      </trkpt>
      <trkpt lat="45.00678" lon="6.46198">
        <ele>1735</ele>
        <time>2020-01-21T13:05:39Z</time>
      </trkpt>
      <trkpt lat="45.0068" lon="6.46211">
        <ele>1731</ele>
        <time>2020-01-21T13:05:41Z</time>
      </trkpt>
      <trkpt lat="45.00686" lon="6.4622">
        <ele>1729</ele>
        <time>2020-01-21T13:05:42Z</time>
      </trkpt>
      <trkpt lat="45.00693" lon="6.46224">
        <ele>1727</ele>
        <time>2020-01-21T13:05:43Z</time>
      </trkpt>
      <trkpt lat="45.00699" lon="6.46228">
        <ele>1724</ele>
        <time>2020-01-21T13:05:44Z</time>
      </trkpt>
      <trkpt lat="45.00701" lon="6.46234">
        <ele>1723</ele>
        <time>2020-01-21T13:05:45Z</time>
      </trkpt>
      <trkpt lat="45.00702" lon="6.46242">
        <ele>1721</ele>
        <time>2020-01-21T13:05:46Z</time>
      </trkpt>
      <trkpt lat="45.00708" lon="6.46251">
        <ele>1718</ele>
        <time>2020-01-21T13:05:47Z</time>
      </trkpt>
      <trkpt lat="45.00714" lon="6.46259">
        <ele>1716</ele>
        <time>2020-01-21T13:05:48Z</time>
      </trkpt>
      <trkpt lat="45.00717" lon="6.46267">
        <ele>1714</ele>
        <time>2020-01-21T13:05:49Z</time>
      </trkpt>
      <trkpt lat="45.00713" lon="6.46273">
        <ele>1713</ele>
        <time>2020-01-21T13:05:50Z</time>
      </trkpt>
      <trkpt lat="45.00709" lon="6.46278">
        <ele>1711</ele>
        <time>2020-01-21T13:05:51Z</time>
      </trkpt>
      <trkpt lat="45.00709" lon="6.46285">
        <ele>1706</ele>
        <time>2020-01-21T13:05:52Z</time>
      </trkpt>
      <trkpt lat="45.0071" lon="6.46294">
        <ele>1703</ele>
        <time>2020-01-21T13:05:53Z</time>
      </trkpt>
      <trkpt lat="45.00713" lon="6.46304">
        <ele>1701</ele>
        <time>2020-01-21T13:05:54Z</time>
      </trkpt>
      <trkpt lat="45.00718" lon="6.46314">
        <ele>1699</ele>
        <time>2020-01-21T13:05:55Z</time>
      </trkpt>
      <trkpt lat="45.0073" lon="6.4632">
        <ele>1697</ele>
        <time>2020-01-21T13:05:57Z</time>
      </trkpt>
      <trkpt lat="45.00731" lon="6.46324">
        <ele>1695</ele>
        <time>2020-01-21T13:05:58Z</time>
      </trkpt>
      <trkpt lat="45.00727" lon="6.46321">
        <ele>1693</ele>
        <time>2020-01-21T13:06:00Z</time>
      </trkpt>
      <trkpt lat="45.00727" lon="6.46322">
        <ele>1688</ele>
        <time>2020-01-21T13:06:08Z</time>
      </trkpt>
      <trkpt lat="45.00736" lon="6.46336">
        <ele>1685</ele>
        <time>2020-01-21T13:06:11Z</time>
      </trkpt>
      <trkpt lat="45.0074" lon="6.46341">
        <ele>1684</ele>
        <time>2020-01-21T13:06:12Z</time>
      </trkpt>
      <trkpt lat="45.00748" lon="6.46345">
        <ele>1682</ele>
        <time>2020-01-21T13:06:14Z</time>
      </trkpt>
      <trkpt lat="45.00757" lon="6.46357">
        <ele>1682</ele>
        <time>2020-01-21T13:06:16Z</time>
      </trkpt>
      <trkpt lat="45.0076" lon="6.46363">
        <ele>1681</ele>
        <time>2020-01-21T13:06:17Z</time>
      </trkpt>
      <trkpt lat="45.0076" lon="6.46372">
        <ele>1680</ele>
        <time>2020-01-21T13:06:18Z</time>
      </trkpt>
      <trkpt lat="45.00763" lon="6.46381">
        <ele>1678</ele>
        <time>2020-01-21T13:06:19Z</time>
      </trkpt>
      <trkpt lat="45.00782" lon="6.46414">
        <ele>1673</ele>
        <time>2020-01-21T13:06:23Z</time>
      </trkpt>
      <trkpt lat="45.00793" lon="6.4642">
        <ele>1670</ele>
        <time>2020-01-21T13:06:25Z</time>
      </trkpt>
      <trkpt lat="45.00801" lon="6.46427">
        <ele>1668</ele>
        <time>2020-01-21T13:06:26Z</time>
      </trkpt>
      <trkpt lat="45.00808" lon="6.46433">
        <ele>1665</ele>
        <time>2020-01-21T13:06:27Z</time>
      </trkpt>
      <trkpt lat="45.00816" lon="6.46436">
        <ele>1663</ele>
        <time>2020-01-21T13:06:28Z</time>
      </trkpt>
      <trkpt lat="45.00837" lon="6.46437">
        <ele>1659</ele>
        <time>2020-01-21T13:06:32Z</time>
      </trkpt>
      <trkpt lat="45.00841" lon="6.46438">
        <ele>1658</ele>
        <time>2020-01-21T13:06:33Z</time>
      </trkpt>
      <trkpt lat="45.00844" lon="6.46442">
        <ele>1658</ele>
        <time>2020-01-21T13:06:34Z</time>
      </trkpt>
      <trkpt lat="45.00848" lon="6.46449">
        <ele>1657</ele>
        <time>2020-01-21T13:06:35Z</time>
      </trkpt>
      <trkpt lat="45.00853" lon="6.46455">
        <ele>1655</ele>
        <time>2020-01-21T13:06:36Z</time>
      </trkpt>
      <trkpt lat="45.00858" lon="6.46461">
        <ele>1653</ele>
        <time>2020-01-21T13:06:37Z</time>
      </trkpt>
      <trkpt lat="45.0086" lon="6.4647">
        <ele>1651</ele>
        <time>2020-01-21T13:06:38Z</time>
      </trkpt>
      <trkpt lat="45.00861" lon="6.46496">
        <ele>1647</ele>
        <time>2020-01-21T13:06:40Z</time>
      </trkpt>
      <trkpt lat="45.00868" lon="6.46519">
        <ele>1644</ele>
        <time>2020-01-21T13:06:42Z</time>
      </trkpt>
      <trkpt lat="45.00878" lon="6.46534">
        <ele>1642</ele>
        <time>2020-01-21T13:06:44Z</time>
      </trkpt>
      <trkpt lat="45.00881" lon="6.46541">
        <ele>1641</ele>
        <time>2020-01-21T13:06:45Z</time>
      </trkpt>
      <trkpt lat="45.00886" lon="6.4656">
        <ele>1639</ele>
        <time>2020-01-21T13:06:48Z</time>
      </trkpt>
      <trkpt lat="45.00887" lon="6.46568">
        <ele>1639</ele>
        <time>2020-01-21T13:06:50Z</time>
      </trkpt>
      <trkpt lat="45.00887" lon="6.4657">
        <ele>1639</ele>
        <time>2020-01-21T13:06:51Z</time>
      </trkpt>
      <trkpt lat="45.00887" lon="6.46573">
        <ele>1639</ele>
        <time>2020-01-21T13:06:54Z</time>
      </trkpt>
      <trkpt lat="45.00886" lon="6.46576">
        <ele>1638</ele>
        <time>2020-01-21T13:06:56Z</time>
      </trkpt>
      <trkpt lat="45.00883" lon="6.46577">
        <ele>1639</ele>
        <time>2020-01-21T13:06:59Z</time>
      </trkpt>
      <trkpt lat="45.00887" lon="6.46589">
        <ele>1640</ele>
        <time>2020-01-21T13:07:04Z</time>
      </trkpt>
      <trkpt lat="45.00893" lon="6.46598">
        <ele>1640</ele>
        <time>2020-01-21T13:07:08Z</time>
      </trkpt>
      <trkpt lat="45.00932" lon="6.46641">
        <ele>1638</ele>
        <time>2020-01-21T13:07:24Z</time>
      </trkpt>
      <trkpt lat="45.00938" lon="6.46648">
        <ele>1638</ele>
        <time>2020-01-21T13:07:27Z</time>
      </trkpt>
      <trkpt lat="45.00939" lon="6.46652">
        <ele>1638</ele>
        <time>2020-01-21T13:07:29Z</time>
      </trkpt>
      <trkpt lat="45.0094" lon="6.46656">
        <ele>1639</ele>
        <time>2020-01-21T13:07:31Z</time>
      </trkpt>
      <trkpt lat="45.00942" lon="6.4666">
        <ele>1641</ele>
        <time>2020-01-21T13:07:33Z</time>
      </trkpt>
      <trkpt lat="45.0095" lon="6.4667">
        <ele>1642</ele>
        <time>2020-01-21T13:07:40Z</time>
      </trkpt>
      <trkpt lat="45.00951" lon="6.46678">
        <ele>1642</ele>
        <time>2020-01-21T13:07:44Z</time>
      </trkpt>
      <trkpt lat="45.00953" lon="6.46681">
        <ele>1642</ele>
        <time>2020-01-21T13:07:45Z</time>
      </trkpt>
      <trkpt lat="45.00957" lon="6.46683">
        <ele>1642</ele>
        <time>2020-01-21T13:07:53Z</time>
      </trkpt>
      <trkpt lat="45.00959" lon="6.46683">
        <ele>1642</ele>
        <time>2020-01-21T13:07:54Z</time>
      </trkpt>
      <trkpt lat="45.00962" lon="6.46684">
        <ele>1641</ele>
        <time>2020-01-21T13:07:56Z</time>
      </trkpt>
      <trkpt lat="45.00958" lon="6.46691">
        <ele>1640</ele>
        <time>2020-01-21T13:08:00Z</time>
      </trkpt>
      <trkpt lat="45.00961" lon="6.46705">
        <ele>1637</ele>
        <time>2020-01-21T13:08:16Z</time>
      </trkpt>
      <trkpt lat="45.00966" lon="6.46717">
        <ele>1636</ele>
        <time>2020-01-21T13:08:19Z</time>
      </trkpt>
      <trkpt lat="45.00968" lon="6.46729">
        <ele>1636</ele>
        <time>2020-01-21T13:08:26Z</time>
      </trkpt>
      <trkpt lat="45.00965" lon="6.46729">
        <ele>1637</ele>
        <time>2020-01-21T13:08:45Z</time>
      </trkpt>
      <trkpt lat="45.00963" lon="6.46727">
        <ele>1637</ele>
        <time>2020-01-21T13:08:48Z</time>
      </trkpt>
      <trkpt lat="45.00968" lon="6.46728">
        <ele>1639</ele>
        <time>2020-01-21T13:08:54Z</time>
      </trkpt>
      <trkpt lat="45.00969" lon="6.46731">
        <ele>1639</ele>
        <time>2020-01-21T13:09:02Z</time>
      </trkpt>
      <trkpt lat="45.00969" lon="6.46734">
        <ele>1640</ele>
        <time>2020-01-21T13:09:07Z</time>
      </trkpt>
      <trkpt lat="45.00965" lon="6.46748">
        <ele>1639</ele>
        <time>2020-01-21T13:09:17Z</time>
      </trkpt>
      <trkpt lat="45.00963" lon="6.46751">
        <ele>1641</ele>
        <time>2020-01-21T13:09:21Z</time>
      </trkpt>
      <trkpt lat="45.00963" lon="6.46755">
        <ele>1641</ele>
        <time>2020-01-21T13:09:24Z</time>
      </trkpt>
      <trkpt lat="45.00962" lon="6.46759">
        <ele>1641</ele>
        <time>2020-01-21T13:09:26Z</time>
      </trkpt>
      <trkpt lat="45.00965" lon="6.46758">
        <ele>1639</ele>
        <time>2020-01-21T13:09:55Z</time>
      </trkpt>
      <trkpt lat="45.00961" lon="6.46756">
        <ele>1640</ele>
        <time>2020-01-21T13:10:07Z</time>
      </trkpt>
      <trkpt lat="45.00962" lon="6.46758">
        <ele>1640</ele>
        <time>2020-01-21T13:10:30Z</time>
      </trkpt>
      <trkpt lat="45.00961" lon="6.4676">
        <ele>1636</ele>
        <time>2020-01-21T13:11:25Z</time>
      </trkpt>
      <trkpt lat="45.00959" lon="6.4676">
        <ele>1639</ele>
        <time>2020-01-21T13:12:34Z</time>
      </trkpt>
    </trkseg>
  </trk>
</gpx>